GFSGBSN_con_mlcape_000.txt.gz
CAPE
21 39 11 8 11 22 25 11 0 0 2 2 4 1 0 0 0 0 0 0 0 12 19 33 40 19 30 19 9 26 0 0 0 3 8 0 19 19 56 44 15 0 0 0 0 0 0
18 20 22 10 8 8 5 39 23 0 1 1 7 3 0 0 0 0 0 0 0 0 29 40 45 21 17 11 0 0 1 0 0 0 4 3 20 24 19 81 29 0 0 0 0 0 0
6 20 19 17 10 5 2 11 21 0 0 1 10 7 0 0 0 1 0 0 0 20 4 38 3 32 26 0 0 0 0 0 0 0 0 0 0 196 25 140 107 39 10 9 0 0 0
14 15 21 23 14 10 6 5 10 2 0 0 4 18 5 0 0 0 0 1 15 43 32 6 14 20 6 0 0 0 0 0 0 0 0 1 6 37 187 166 137 89 43 29 0 2 0
15 29 18 17 21 14 13 11 13 20 8 0 2 13 3 14 13 4 0 2 22 42 34 25 9 22 4 0 0 0 0 0 0 0 0 2 59 71 230 121 93 82 18 3 6 0 0
10 11 12 16 11 12 11 12 17 0 19 0 1 7 12 16 3 6 8 10 22 26 19 19 21 7 0 0 0 0 0 0 13 138 47 36 34 71 166 70 17 12 13 14 11 0 0
16 0 7 16 13 16 15 8 8 0 11 0 0 5 3 10 13 2 0 0 2 8 7 0 0 0 0 0 0 0 0 0 10 138 17 7 20 6 32 22 45 13 2 13 4 0 0
14 3 1 15 11 14 13 10 8 0 0 0 0 5 7 6 28 11 6 9 0 0 1 0 0 0 15 4 9 6 12 0 6 1 62 10 10 13 3 62 33 18 3 6 8 0 0
10 18 3 9 26 17 14 17 12 0 0 0 0 3 4 13 17 1 4 5 0 0 1 3 0 3 8 2 49 50 36 0 1 5 5 2 3 10 11 34 38 17 8 2 3 0 0
10 16 23 13 15 14 19 25 16 6 0 0 0 0 6 11 0 0 12 1 0 0 0 0 5 2 16 38 5 28 52 0 43 19 7 0 5 17 22 24 25 15 23 4 0 27 26
27 26 30 16 11 15 14 20 18 17 2 0 0 0 6 4 12 1 0 0 0 0 0 0 5 1 1 3 22 3 94 3 9 19 1 0 12 1 18 2 16 34 6 1 7 11 0
7 18 29 32 23 16 13 12 14 6 16 4 0 2 0 12 11 2 0 0 0 0 0 1 5 5 13 14 17 74 39 19 43 7 1 0 31 10 46 5 22 0 0 0 0 0 3
25 17 29 32 27 14 20 12 16 9 15 18 5 0 0 3 6 4 2 0 0 0 0 0 0 5 3 4 3 10 10 3 5 0 0 0 2 8 86 26 0 18 11 2 6 3 1
5 20 31 35 17 22 17 15 12 20 13 17 17 2 1 7 13 29 2 1 0 0 0 0 1 4 4 10 11 5 11 7 5 14 0 0 1 6 11 3 0 5 9 2 1 0 0
7 50 24 21 23 26 10 13 9 28 6 10 2 1 1 0 44 5 1 0 0 2 0 0 14 4 9 7 1 13 7 1 8 1 0 0 0 1 19 0 0 2 2 0 0 0 0
6 2 24 20 30 29 18 9 9 24 7 3 0 0 2 0 34 8 0 0 0 3 1 5 0 3 3 3 0 11 3 0 2 0 12 0 0 0 0 5 0 0 0 0 0 0 0
14 14 39 30 28 21 21 15 12 16 10 0 1 0 0 3 12 3 0 0 4 5 0 0 0 0 0 0 2 7 0 0 0 1 0 0 0 0 0 6 0 1 0 0 0 0 0
33 27 21 28 33 21 19 12 19 10 1 0 1 0 3 11 2 4 1 4 3 9 1 0 0 0 0 0 0 8 0 0 0 24 0 0 2 1 0 0 0 3 3 0 5 0 0
40 3 11 43 44 20 15 5 8 12 0 0 0 1 3 1 1 3 6 3 5 13 0 0 1 0 0 0 0 4 1 0 0 0 5 0 5 2 0 0 0 4 0 0 0 0 0
29 11 5 12 44 20 11 1 1 8 3 0 0 1 6 8 4 4 4 5 6 8 5 16 2 0 0 0 0 0 2 1 4 0 0 0 0 0 0 0 0 0 0 0 0 0 0
39 9 13 2 46 24 11 1 0 6 1 0 0 0 0 2 2 1 3 4 1 21 17 25 2 0 0 0 1 2 1 3 0 0 0 0 1 0 0 0 0 0 0 0 0 0 0
35 12 22 4 3 33 12 0 0 3 1 0 0 0 0 1 0 2 0 4 2 9 3 0 2 0 0 0 0 0 0 0 2 0 6 0 0 0 0 0 0 0 0 0 0 0 0
16 20 20 6 2 29 12 0 0 1 0 0 0 0 0 0 0 0 0 2 0 1 2 0 0 0 0 0 0 1 0 0 0 0 1 0 0 0 0 0 0 0 0 0 0 0 0
12 38 19 4 2 19 10 0 0 0 0 0 0 0 0 0 0 0 0 3 2 0 5 0 0 1 0 0 0 0 0 0 0 0 0 0 0 0 0 0 0 0 0 0 0 0 0
11 24 16 22 3 16 0 0 0 0 1 0 0 0 0 0 0 0 0 2 0 0 0 0 0 0 0 0 0 0 0 0 0 0 0 0 0 0 0 0 0 0 0 0 0 0 0
24 37 6 2 3 4 0 0 0 0 4 0 0 0 0 0 0 0 0 0 0 0 0 0 0 0 0 0 5 0 0 2 0 0 0 0 0 0 0 0 0 0 0 0 0 0 0
22 29 14 3 5 3 0 0 0 0 1 0 0 0 0 0 0 0 0 0 0 0 0 0 0 0 0 0 0 0 0 0 0 0 0 0 0 0 0 0 0 0 0 0 0 0 0
18 26 24 15 8 3 0 0 0 0 3 0 0 0 0 0 0 0 0 0 0 0 0 0 0 0 0 0 0 0 0 0 0 0 0 0 0 0 0 0 0 0 0 0 0 0 0
16 21 20 17 3 2 0 0 0 0 1 0 0 0 0 0 0 0 0 0 0 0 0 0 0 0 0 0 0 0 0 0 0 0 0 0 0 0 0 0 0 0 0 0 0 0 0

GFSGBSN_con_mlcape_003.txt.gz
CAPE
15 3 10 25 14 4 13 20 0 0 0 0 3 9 5 1 8 3 0 0 0 0 0 7 26 17 7 24 7 32 0 0 0 2 4 1 0 0 17 25 27 13 5 0 0 7 0
25 4 3 15 14 8 2 6 23 0 0 0 1 7 5 0 3 3 0 0 0 0 0 0 21 17 23 16 1 22 15 0 0 3 12 12 1 0 4 42 23 22 24 6 8 8 0
41 10 3 6 16 11 8 6 0 16 0 0 0 3 9 0 1 19 10 0 0 0 0 0 14 17 25 0 1 2 0 0 0 0 4 12 32 16 14 36 8 86 67 15 9 23 1
30 14 8 11 14 6 10 11 3 5 0 0 0 4 9 2 2 18 16 6 0 0 0 0 0 20 26 0 2 1 0 0 0 0 0 1 57 10 16 34 40 51 136 16 8 31 5
13 16 15 23 14 8 8 8 14 8 5 0 1 2 4 7 0 24 23 18 19 10 3 3 4 26 9 0 0 0 0 0 2 0 0 1 60 23 20 12 74 112 19 14 41 30 1
9 17 24 13 8 4 5 4 8 23 25 13 11 1 0 0 0 14 22 13 44 21 10 24 15 21 0 0 0 0 0 0 2 17 19 9 27 15 11 64 55 23 22 53 50 14 9
14 11 21 17 16 11 5 3 7 11 17 10 13 2 0 0 1 20 8 0 2 3 11 0 0 0 0 0 0 0 0 4 4 16 16 18 16 10 0 0 28 82 139 76 110 17 25
12 14 9 19 18 15 10 4 4 11 12 0 17 1 1 0 0 22 27 5 2 0 2 0 4 3 7 1 0 0 0 10 14 14 16 43 52 0 3 2 92 121 122 122 81 3 0
11 3 10 17 16 24 23 14 4 15 15 3 7 0 0 0 2 28 13 0 0 0 1 1 0 4 0 11 6 15 3 13 14 15 13 88 18 51 57 0 162 85 89 117 57 15 0
63 17 6 18 26 12 18 15 6 12 14 6 2 0 0 6 5 2 15 0 0 0 0 0 1 0 1 14 8 10 36 22 15 21 48 64 73 160 77 14 7 25 44 14 27 12 8
6 10 16 10 25 12 9 24 8 5 6 8 0 0 3 0 17 24 0 1 0 0 0 0 7 1 9 4 6 0 0 70 27 47 30 0 25 28 53 0 2 22 9 12 60 76 59
28 6 29 17 19 31 21 23 16 5 5 12 0 0 0 14 11 15 1 0 0 0 0 1 5 6 10 11 2 22 4 63 74 28 23 0 16 5 6 11 0 43 78 68 47 37 2
0 14 18 62 12 24 17 24 21 16 11 7 5 0 0 4 9 0 0 1 0 0 0 0 0 3 8 6 13 19 15 23 17 2 7 3 0 3 1 2 3 10 14 8 8 14 0
22 22 33 5 44 12 12 38 31 16 26 7 14 2 0 0 28 4 0 0 0 1 0 2 1 1 3 6 15 22 23 21 7 0 0 0 0 1 0 7 5 2 4 0 2 0 0
14 3 6 8 2 29 17 40 31 24 30 7 10 3 3 0 21 2 1 0 1 8 0 0 2 0 1 1 2 6 2 11 0 0 0 0 0 0 1 21 0 0 3 0 3 0 24
25 44 12 18 10 19 26 48 24 29 33 2 0 0 0 2 16 4 1 0 6 10 2 3 0 5 1 10 16 16 2 0 0 0 1 0 0 0 7 1 0 4 37 2 8 0 6
33 25 24 26 16 18 21 53 20 25 28 0 0 1 4 0 40 5 1 0 9 16 0 6 15 0 8 5 1 4 3 0 0 0 0 7 1 0 7 9 2 0 8 2 5 3 47
68 29 67 27 7 3 21 33 23 25 21 1 1 1 4 6 4 1 2 1 3 5 1 10 5 8 6 1 0 13 4 0 0 0 2 6 4 0 1 0 0 17 1 4 32 0 0
39 22 46 2 2 2 20 23 22 34 0 0 1 7 5 0 2 2 3 3 4 2 18 0 7 6 0 3 2 4 2 0 0 0 16 14 1 0 1 0 0 0 1 15 24 0 0
25 27 29 9 12 1 4 16 16 28 0 0 3 7 4 6 2 4 3 3 2 1 8 0 3 20 1 0 0 0 2 0 0 0 0 3 0 0 5 0 0 0 0 0 0 0 0
28 33 27 21 14 6 6 11 8 20 1 0 0 3 5 2 2 1 4 4 4 6 1 0 12 11 1 0 0 4 0 6 0 0 0 2 6 0 0 0 0 0 1 0 0 1 0
46 22 29 27 3 2 6 10 5 4 4 0 0 0 16 21 0 1 1 2 4 1 15 5 10 2 2 0 0 0 0 5 11 1 4 0 8 0 0 0 0 0 0 0 0 0 0
21 37 28 3 8 14 4 11 4 1 0 0 0 0 0 8 18 2 4 0 0 1 2 7 4 12 8 1 0 0 1 3 14 2 10 15 8 1 6 0 0 0 0 0 0 0 0
17 30 25 21 4 8 3 9 2 1 0 0 0 0 0 0 0 2 2 5 2 1 1 2 0 1 3 0 0 29 23 0 13 2 2 2 5 0 0 0 0 0 0 0 0 0 0
22 23 25 43 9 4 2 3 0 0 2 0 0 0 4 0 0 0 0 0 7 2 1 0 0 0 0 0 11 18 3 0 0 0 2 3 2 2 0 0 0 0 0 0 0 0 0
25 24 24 45 14 9 5 3 1 0 0 0 0 0 0 0 0 0 0 5 0 0 0 0 0 0 0 0 21 4 0 0 0 0 0 6 2 12 0 0 0 0 0 0 0 0 0
10 17 25 47 10 6 2 2 0 0 0 0 0 0 0 2 0 0 0 0 1 0 0 0 0 0 0 0 3 9 9 1 0 0 1 0 3 0 0 0 0 0 0 0 0 0 0
8 20 16 37 20 6 4 0 3 0 0 0 0 0 0 7 0 0 0 0 0 0 0 0 0 0 1 2 0 0 0 0 0 0 0 0 0 0 0 1 0 0 0 0 0 0 0
9 24 21 22 28 4 2 2 3 0 0 1 0 0 0 1 1 0 0 0 0 0 0 0 0 0 0 4 0 0 0 0 0 0 0 1 0 0 0 0 0 0 0 0 0 0 0

GFSGBSN_con_mlcape_006.txt.gz
CAPE
9 10 15 7 14 14 10 6 19 9 1 0 0 1 1 1 2 5 0 0 0 0 8 0 21 5 0 5 1 7 0 0 0 0 0 0 4 0 0 17 39 14 13 9 1 0 0
9 11 22 6 2 13 13 6 9 4 15 12 3 1 2 1 3 5 3 0 0 21 12 24 24 12 4 2 0 0 12 1 0 2 17 29 23 5 0 8 22 44 33 19 10 1 1
12 3 9 17 5 8 16 15 8 5 3 22 11 0 1 6 0 0 0 3 0 17 21 35 33 0 13 0 0 0 11 0 0 0 0 12 14 33 21 6 14 44 48 55 9 4 6
5 6 0 15 9 15 20 18 9 9 3 5 3 4 0 1 11 0 0 0 2 2 39 31 33 27 7 0 0 0 0 0 0 0 0 0 0 26 31 10 27 28 49 9 0 8 9
5 1 3 7 10 15 29 26 16 9 4 5 1 14 1 8 13 5 5 0 0 3 26 22 11 30 1 0 0 0 0 0 0 0 0 0 0 10 28 8 5 13 0 0 0 15 5
16 0 0 8 15 23 25 30 21 11 11 7 8 11 14 0 17 8 13 0 0 1 8 31 14 14 0 0 0 0 0 0 0 0 0 5 8 9 3 13 0 2 13 0 2 0 38
17 36 6 7 16 22 16 21 20 16 9 8 6 0 14 0 6 13 3 0 0 0 2 0 0 0 2 0 0 0 0 0 0 2 0 3 11 0 0 0 0 4 17 47 18 61 73
20 11 46 12 11 15 26 24 26 20 19 14 3 0 3 0 13 10 19 1 0 0 0 1 0 0 1 4 0 0 0 5 8 4 0 9 3 0 0 0 6 1 8 9 40 146 68
7 10 36 61 12 5 23 16 24 17 19 15 7 0 0 0 11 9 3 0 0 0 1 2 0 0 0 2 4 1 0 0 0 3 5 1 0 0 1 7 12 13 4 13 34 124 73
23 4 16 5 26 7 7 17 17 18 16 14 8 0 0 0 1 0 10 21 1 1 0 0 0 2 0 0 1 0 5 2 3 2 6 19 0 0 4 5 2 5 0 10 0 71 5
32 29 5 6 5 4 17 23 21 21 20 18 1 0 0 0 20 11 1 1 0 1 0 0 5 0 3 0 2 0 0 7 10 0 15 0 0 4 5 0 1 1 0 11 0 1 16
38 43 14 28 4 1 20 34 23 32 28 21 2 0 0 1 4 11 2 1 0 0 0 0 3 4 5 4 6 0 1 30 10 13 12 4 29 26 9 5 0 2 8 5 20 0 6
56 44 42 34 1 3 8 39 34 36 40 27 9 0 0 1 0 0 0 0 0 0 0 0 1 4 2 5 5 2 0 13 9 6 1 2 0 20 25 24 22 78 37 40 17 1 1
74 82 63 44 3 1 7 29 22 34 49 45 20 1 0 0 0 0 0 1 0 2 0 1 1 1 1 5 1 2 7 15 12 10 1 0 0 0 0 0 35 39 1 0 13 0 3
58 63 69 53 12 1 22 43 29 38 41 57 18 3 1 0 0 0 2 0 1 8 1 1 1 0 1 5 2 4 11 6 0 1 8 14 0 4 0 0 47 29 7 0 2 0 0
67 76 65 44 31 12 45 2 37 45 27 62 4 2 2 0 1 2 2 1 3 4 0 2 0 1 1 1 0 1 10 0 0 1 0 0 0 6 13 5 1 4 0 0 2 0 0
50 59 33 34 28 20 21 3 11 34 49 14 0 0 0 0 1 7 3 1 1 2 4 0 0 3 1 0 0 0 0 0 0 0 0 1 0 1 0 6 1 8 5 7 1 6 3
25 42 23 27 33 20 33 3 3 59 37 1 0 0 1 6 4 8 3 0 7 4 2 4 1 1 0 2 0 2 0 0 0 0 1 1 0 0 0 0 2 1 5 0 5 0 0
10 18 30 29 29 31 1 7 0 59 5 0 0 2 5 4 2 3 0 2 3 8 7 4 1 0 3 2 0 0 2 0 0 0 0 3 1 0 0 2 3 12 0 0 0 0 0
6 19 30 25 21 25 12 5 4 61 5 1 0 3 6 6 1 2 3 1 1 2 0 6 0 1 1 2 0 0 0 0 1 0 2 10 4 0 0 0 0 0 0 0 0 5 0
9 14 20 23 31 8 20 12 3 82 7 0 0 0 0 2 1 0 2 2 2 1 1 0 0 0 6 4 2 0 0 0 0 0 3 3 1 1 0 0 0 3 0 0 1 0 0
4 8 16 23 35 17 12 2 1 53 5 0 0 0 10 15 0 0 1 3 1 3 5 1 0 2 9 0 0 0 0 0 0 0 0 0 0 0 0 0 4 0 1 0 0 0 0
6 5 18 18 30 23 8 3 0 48 0 1 0 0 0 4 1 12 6 0 1 1 2 0 0 0 11 9 0 0 0 0 3 0 0 0 0 1 0 0 0 0 0 0 0 0 0
22 8 17 20 28 17 9 13 4 40 8 0 0 0 0 0 0 7 20 16 7 5 3 3 2 4 24 5 20 17 1 5 8 5 5 0 2 0 0 0 0 0 0 0 0 0 0
23 9 11 11 14 38 7 10 13 1 16 0 0 0 0 0 0 0 0 8 10 6 10 4 3 1 0 0 16 22 10 4 2 0 2 0 10 3 0 0 0 0 0 0 0 0 0
18 8 8 7 13 35 5 0 5 3 7 0 0 0 0 0 0 0 0 0 1 3 2 5 0 0 0 0 14 3 1 1 0 0 0 1 8 1 0 0 0 0 0 0 0 0 0
22 10 10 14 17 34 4 2 2 3 7 1 0 0 0 0 0 0 0 0 9 0 0 0 0 0 0 0 6 3 1 0 0 0 0 1 2 0 1 0 0 0 0 0 0 0 0
14 13 3 15 12 19 9 2 2 3 4 3 0 0 0 0 0 0 0 0 2 1 0 0 0 1 1 1 2 0 0 0 0 0 0 0 0 2 0 1 0 0 0 0 0 0 0
12 17 4 17 21 28 8 9 10 4 3 4 2 0 0 0 0 0 0 0 0 0 0 0 0 0 3 6 0 0 0 0 2 1 0 0 0 0 0 0 0 0 0 0 0 0 0

GFSGBSN_con_mlcape_009.txt.gz
CAPE
13 3 2 0 24 16 7 11 14 17 12 3 0 0 1 3 5 0 1 0 0 0 0 8 12 23 14 0 0 1 0 0 0 0 0 3 0 0 0 0 0 0 0 0 0 0 0
44 6 0 0 0 22 11 8 16 15 9 18 12 2 0 0 5 0 1 0 0 0 1 0 0 15 5 0 0 0 0 0 0 0 0 1 2 0 8 0 0 2 0 0 0 0 0
6 49 2 2 0 2 9 10 14 20 9 12 24 11 0 0 3 0 0 12 10 0 0 0 0 0 0 0 0 0 6 0 0 0 0 3 21 30 21 0 0 0 0 0 0 0 0
10 7 38 6 2 0 16 9 18 31 22 9 23 14 0 0 0 3 0 6 8 13 0 9 0 7 0 0 0 0 0 0 0 0 0 0 0 0 3 8 0 0 11 2 0 0 0
3 3 12 23 4 0 11 17 17 28 32 19 14 7 0 0 0 2 0 7 0 5 13 13 0 1 0 0 0 0 0 0 0 0 0 0 0 0 0 5 4 6 0 12 4 0 12
13 6 16 3 57 17 2 17 26 30 30 19 25 14 5 0 0 3 1 0 0 1 4 23 5 10 0 0 0 0 0 0 0 0 0 0 0 0 0 19 4 7 2 1 1 0 11
4 3 10 4 41 70 29 27 37 23 14 14 19 14 6 0 0 0 0 0 0 0 12 0 0 0 0 0 0 0 0 0 0 0 0 0 0 1 0 0 0 0 0 10 2 0 16
21 7 8 15 14 10 74 24 0 23 25 21 21 20 5 1 0 0 3 1 0 0 0 1 0 0 0 0 1 0 0 0 5 1 0 0 0 0 0 0 0 1 1 0 0 0 33
28 23 25 22 17 8 2 57 14 18 46 30 34 14 10 0 1 3 0 1 0 0 0 3 1 0 0 0 1 2 0 0 1 2 0 0 0 0 0 0 3 3 0 0 0 0 4
39 20 35 25 34 6 7 9 38 16 36 32 29 11 5 0 0 0 1 0 2 3 7 0 0 3 5 1 1 2 3 0 10 1 0 0 0 0 1 1 0 0 0 1 3 5 0
34 21 32 31 38 14 19 15 2 57 43 51 45 12 0 0 0 0 0 0 11 7 0 0 1 0 12 7 1 0 0 3 3 1 2 0 0 0 0 0 4 0 0 0 12 4 6
28 29 28 44 67 36 63 2 7 2 48 67 61 8 0 0 0 0 0 0 1 0 0 0 0 0 2 12 8 3 0 1 5 4 1 0 0 2 0 0 0 0 5 3 30 12 4
34 26 40 60 76 45 39 1 11 0 43 83 31 16 0 0 0 0 0 0 1 0 0 0 0 0 0 3 3 10 4 3 3 0 0 0 0 0 0 0 0 24 8 8 16 4 1
31 26 72 64 33 76 72 0 10 5 52 117 13 3 0 0 0 0 0 2 0 0 0 0 0 1 1 0 5 4 0 2 9 0 0 0 0 0 0 0 0 0 3 3 1 0 0
28 39 80 31 16 23 30 8 0 0 31 129 23 4 0 0 0 0 0 0 0 0 0 0 1 1 1 3 2 4 2 0 0 0 0 0 0 0 0 0 15 0 5 0 8 12 9
21 20 36 25 38 34 1 1 0 4 31 129 9 2 2 0 0 0 0 0 0 0 0 0 0 0 0 0 2 1 0 0 0 0 0 0 0 0 1 7 7 0 0 1 5 8 1
21 11 21 35 34 27 14 17 18 25 2 71 1 2 2 1 1 2 0 0 0 0 0 1 1 1 0 0 0 0 0 0 0 0 0 0 0 0 1 0 0 1 5 11 9 0 3
21 38 20 39 24 50 32 34 23 9 0 11 0 4 3 1 3 3 2 0 4 0 4 2 5 2 0 0 0 0 0 0 0 0 0 0 0 0 0 0 0 9 5 1 0 0 1
47 41 16 33 26 39 22 10 15 3 2 0 9 2 3 1 1 1 1 1 3 3 6 5 1 0 9 0 0 0 0 0 0 0 0 2 0 0 0 3 4 3 12 34 0 0 0
35 43 17 14 24 31 19 17 0 2 24 2 0 2 8 8 4 1 2 2 4 2 1 16 3 1 1 1 0 0 0 0 0 0 2 3 0 0 0 0 0 2 2 1 3 0 0
31 34 15 14 25 28 19 17 7 13 1 0 0 2 0 1 1 3 2 1 1 0 0 5 2 0 0 0 1 0 0 2 0 0 0 0 0 0 0 0 0 0 0 1 0 0 0
31 24 17 9 29 22 32 13 6 4 1 0 0 2 2 0 1 1 1 4 4 2 3 3 0 0 0 0 0 0 0 0 0 0 0 0 0 3 1 0 9 0 0 2 1 0 0
34 18 24 11 14 26 40 22 3 1 2 0 0 0 1 2 0 1 0 0 0 1 1 2 2 0 0 0 4 1 1 1 0 0 0 0 2 1 0 0 0 0 0 0 0 0 0
30 13 23 10 19 24 27 17 4 2 9 2 0 0 0 1 1 0 1 4 5 2 1 0 2 0 0 16 2 6 14 0 6 0 0 0 0 0 0 0 0 0 0 0 0 0 0
29 20 18 11 22 29 31 23 6 8 4 0 0 1 0 2 0 0 0 0 8 8 4 1 7 0 0 8 15 20 2 20 11 1 0 2 0 3 0 0 0 0 0 0 0 0 0
24 20 12 16 20 14 12 34 5 8 5 1 0 0 0 0 0 0 0 2 0 0 2 4 0 0 0 9 12 3 1 0 0 2 0 5 1 9 0 0 0 0 0 0 0 0 0
33 25 11 14 7 11 16 34 17 3 1 2 0 0 0 0 0 0 0 2 0 0 2 3 0 0 0 2 0 0 0 0 0 0 1 2 8 0 0 0 0 0 0 0 0 0 0
27 22 11 13 5 19 15 26 24 7 1 2 0 0 1 0 0 0 0 0 0 0 2 1 0 0 0 1 1 0 5 0 0 0 1 1 0 0 0 1 0 0 0 0 0 0 0
36 16 16 13 8 9 17 27 22 0 4 2 0 0 0 0 0 0 0 0 0 0 4 1 0 0 0 1 2 2 0 0 0 0 0 0 0 0 0 0 0 0 0 0 0 0 0

GFSGBSN_con_mlcape_012.txt.gz
CAPE
10 16 28 48 0 0 4 31 13 14 18 28 17 5 1 2 4 0 0 0 0 0 0 0 0 1 0 0 0 0 0 0 3 20 12 0 0 0 0 0 0 0 0 0 0 0 0
3 1 4 12 59 2 0 5 24 14 27 33 26 16 8 0 3 1 0 0 0 0 0 0 0 0 0 0 0 0 0 0 0 0 0 5 0 0 0 0 0 0 0 0 0 0 0
6 7 1 3 15 20 10 0 14 20 35 33 31 24 16 0 0 0 0 0 3 0 0 0 0 0 0 0 0 0 0 0 0 0 0 13 0 26 15 0 0 0 0 0 0 0 0
8 14 10 1 6 5 31 12 6 16 32 44 29 33 20 0 0 7 0 11 0 6 0 0 0 0 0 0 0 0 0 0 0 0 0 0 0 0 0 5 0 0 0 0 0 0 0
4 6 10 8 3 8 35 59 15 4 15 42 41 24 23 1 0 0 13 6 0 0 0 9 0 0 0 0 0 0 0 0 0 0 0 0 0 0 0 17 14 4 0 0 1 0 0
9 10 8 12 15 0 12 5 45 24 6 43 37 34 29 9 3 5 14 12 0 1 7 21 8 0 0 0 0 0 0 0 0 0 0 0 0 0 0 5 0 0 0 0 0 0 0
20 10 21 12 16 17 3 6 9 55 12 38 32 43 21 20 2 3 10 0 0 0 15 0 0 0 0 0 0 0 0 0 0 0 0 0 0 1 0 0 0 0 1 0 0 0 0
19 11 30 26 20 27 10 7 13 11 16 14 26 30 41 12 6 1 0 0 0 0 0 0 0 0 0 0 0 0 0 0 1 0 0 2 1 1 0 0 0 0 0 0 0 0 0
11 12 19 44 16 10 25 13 4 4 61 12 28 43 46 6 8 5 0 0 0 0 0 0 0 0 0 5 2 4 0 0 0 2 0 2 0 0 0 0 0 0 0 0 0 0 0
35 35 26 38 21 28 23 28 12 31 2 26 37 61 46 30 3 0 3 0 0 0 0 0 0 1 8 18 6 2 1 0 3 2 0 1 0 0 0 3 0 0 0 0 1 6 0
56 55 30 26 32 34 43 46 17 19 0 35 51 73 35 0 0 0 0 0 0 10 0 0 0 0 8 5 0 0 1 2 1 0 0 0 0 0 0 0 0 1 0 0 4 13 12
55 25 49 25 63 60 37 74 37 47 4 26 25 83 16 0 0 0 0 0 3 0 0 0 0 0 4 4 3 3 1 15 6 4 1 0 0 0 0 0 0 9 20 16 20 15 0
37 16 12 28 35 82 43 32 15 46 56 38 14 73 0 0 0 0 0 12 0 0 0 0 0 0 0 1 0 0 1 1 0 4 0 0 0 0 0 0 6 8 13 0 0 0 0
44 39 26 13 29 30 15 44 54 39 6 8 4 35 0 0 0 0 0 0 0 0 0 0 0 0 1 0 3 2 10 2 1 1 0 0 0 1 0 0 0 3 0 0 0 0 0
40 43 17 24 26 18 20 91 40 45 4 10 4 9 0 0 0 0 3 0 0 0 0 0 2 2 1 2 1 5 7 3 0 0 0 0 0 0 0 0 0 0 12 0 0 1 7
37 37 20 32 15 33 28 29 43 26 7 22 4 3 3 0 0 2 3 0 0 0 0 0 0 0 0 0 0 0 0 0 1 0 0 0 0 0 0 0 2 0 1 0 4 0 0
35 42 26 16 13 14 20 38 18 32 6 11 17 2 4 1 0 7 0 0 0 0 0 0 1 1 0 0 0 0 0 0 0 0 0 0 0 0 0 0 0 1 12 8 0 0 23
25 32 24 15 12 14 24 43 19 31 18 0 21 1 6 3 3 2 1 1 0 0 0 0 0 2 1 0 0 0 0 0 0 0 0 0 0 0 0 0 0 1 0 0 11 0 0
46 34 38 12 16 9 21 49 25 26 0 16 13 12 5 3 0 1 2 1 1 1 2 3 3 2 0 0 0 0 0 0 0 0 0 1 0 0 0 0 1 6 0 0 0 3 1
28 34 32 15 21 6 17 26 22 10 22 1 0 1 7 9 8 1 3 3 3 1 3 9 5 1 2 5 0 0 0 0 0 0 0 2 0 0 0 0 0 4 1 0 0 4 0
30 26 37 16 25 15 19 18 15 4 7 0 3 4 1 1 2 0 1 1 0 3 2 4 2 2 3 0 0 0 0 0 0 0 4 1 0 0 0 0 2 2 1 1 1 0 0
28 25 30 18 23 14 26 19 15 20 3 12 6 4 6 0 4 2 0 0 2 3 2 3 1 2 0 1 0 0 0 0 0 0 0 3 0 0 1 0 3 2 0 3 7 1 0
28 26 29 16 11 12 19 14 30 9 6 1 10 0 0 0 0 1 1 0 1 1 0 1 2 4 3 0 0 1 6 11 0 0 1 0 0 0 0 1 3 0 0 0 1 2 0
27 31 27 23 16 17 17 20 40 11 8 3 3 0 12 1 0 0 0 0 0 0 0 3 1 2 0 2 13 4 16 16 1 0 0 0 2 0 0 1 0 0 0 0 0 1 0
40 26 31 25 12 11 12 20 54 8 2 2 1 4 0 2 5 0 0 0 0 0 0 9 2 6 0 0 7 12 0 0 0 0 2 0 7 0 0 0 0 0 0 0 0 0 0
34 31 23 14 15 15 6 26 46 6 2 5 0 0 0 0 0 8 0 1 1 0 0 0 0 2 1 10 5 0 0 0 0 7 0 6 0 0 0 0 0 0 0 0 0 0 0
37 27 25 12 17 10 6 29 38 16 12 5 1 0 0 12 0 0 0 0 0 0 0 0 1 4 2 6 1 1 0 0 0 0 2 7 12 0 0 0 0 0 0 0 0 0 0
34 29 24 9 18 18 4 23 32 19 11 4 1 0 1 0 0 0 0 0 0 0 0 0 3 3 1 3 1 2 0 0 0 0 0 0 0 0 0 0 0 0 0 0 0 0 0
29 30 28 8 10 13 5 13 25 17 7 4 1 0 0 0 0 0 0 0 0 0 0 1 0 2 5 1 0 1 6 0 0 0 0 0 0 0 0 0 0 0 0 0 0 0 0

GFSGBSN_con_mlcape_015.txt.gz
CAPE
6 2 1 3 0 7 6 36 9 23 19 41 47 30 18 4 7 17 9 7 0 0 0 0 0 0 0 0 0 0 0 0 1 25 5 6 0 0 0 0 0 0 0 0 0 0 0
6 5 6 4 5 3 7 10 57 8 26 19 41 39 24 10 0 12 14 7 1 0 0 0 0 0 0 0 0 0 0 0 0 17 13 14 0 0 0 0 0 0 0 0 0 0 0
5 9 7 4 5 5 0 5 6 33 8 19 45 47 32 17 4 1 12 14 16 2 0 0 0 0 0 0 0 0 0 0 0 0 0 0 11 11 16 0 0 0 0 0 0 0 0
7 8 6 8 6 10 5 1 8 6 46 33 28 60 47 38 8 0 12 16 21 29 8 0 0 0 0 0 0 0 0 0 0 0 0 0 31 0 0 0 5 6 2 0 0 0 0
2 5 6 7 12 10 9 9 2 6 9 42 2 31 59 40 14 0 19 17 7 5 16 19 0 0 0 0 0 0 0 0 0 0 0 0 0 0 0 10 5 4 0 0 0 0 0
9 3 3 4 10 21 17 20 11 5 4 10 24 15 39 45 14 1 0 27 19 9 6 28 2 0 0 0 0 0 0 0 0 0 0 0 0 0 0 3 0 0 2 1 0 0 0
8 6 10 2 10 7 25 17 13 11 3 5 11 11 51 43 28 7 17 0 0 0 9 0 0 0 0 0 0 0 0 0 0 0 0 0 1 0 0 0 0 0 0 0 0 0 0
34 34 22 29 8 42 28 22 20 12 7 1 4 26 59 80 16 8 0 0 0 0 0 0 0 0 0 0 0 0 0 0 0 0 0 0 0 0 0 0 0 0 0 0 0 0 0
38 50 32 29 32 44 31 34 22 24 15 9 0 21 53 79 45 14 0 0 0 0 0 0 0 1 0 3 2 2 0 0 0 0 0 0 0 0 0 0 0 0 0 0 0 0 0
27 43 36 28 22 32 18 32 33 54 24 26 0 16 29 91 22 0 4 0 0 0 0 0 0 0 1 15 2 0 2 0 0 0 0 3 2 0 0 0 0 0 0 0 0 0 0
29 30 26 27 23 26 39 58 33 37 41 8 1 8 31 24 0 2 0 0 1 0 0 0 0 0 13 2 0 0 0 0 0 0 0 0 0 0 0 0 0 3 0 0 1 0 0
44 26 29 38 15 21 44 35 18 11 104 50 27 5 58 0 0 0 0 0 5 0 0 0 0 1 2 7 5 1 6 14 3 7 1 0 0 0 0 0 0 8 3 10 12 3 0
34 47 51 37 28 29 37 16 16 69 74 85 20 0 17 0 0 0 0 2 0 0 0 0 0 1 1 0 1 5 0 5 7 5 0 0 1 0 0 0 0 0 9 0 0 3 0
25 39 72 67 40 49 18 22 30 58 76 62 9 7 4 0 0 0 0 0 0 0 0 0 0 0 0 0 1 2 5 2 5 0 0 0 0 1 0 0 0 0 0 0 0 0 0
41 57 36 63 27 25 15 32 27 25 44 24 23 12 11 1 0 0 0 0 0 0 0 0 2 1 2 1 1 3 3 0 1 0 0 0 0 0 0 0 0 0 0 0 0 0 0
42 50 57 42 33 17 16 40 30 30 40 17 17 8 31 1 1 6 0 0 0 0 0 0 0 0 0 1 1 2 0 0 1 0 1 0 0 0 0 0 0 0 0 0 0 0 0
36 44 54 26 27 16 8 21 23 35 37 21 16 2 17 2 10 2 0 0 0 0 0 0 0 0 0 0 0 0 0 0 0 0 0 0 0 0 0 0 0 0 2 6 0 0 0
41 41 40 23 15 18 8 23 36 28 28 14 8 2 33 9 2 1 0 0 0 0 0 0 0 3 2 0 0 0 0 0 0 0 0 0 0 0 0 0 0 1 0 0 37 0 0
41 43 53 29 10 22 9 17 28 17 34 5 36 2 8 8 0 0 0 0 0 0 0 0 0 1 0 0 0 0 0 0 0 0 0 0 0 0 0 0 1 0 0 0 0 3 0
41 41 61 37 10 18 15 14 21 10 28 6 7 0 16 16 6 0 2 1 3 0 0 10 1 6 3 0 0 0 0 0 0 0 0 0 0 0 0 0 0 0 1 0 0 0 0
45 41 60 45 12 10 9 12 5 22 5 3 0 1 0 0 1 0 0 0 0 2 1 2 4 1 3 0 1 0 0 0 0 0 3 1 0 0 0 0 1 0 0 0 0 0 0
41 28 64 46 25 6 13 16 22 11 0 2 5 6 0 1 1 1 0 0 3 0 2 1 2 1 1 3 0 0 0 0 0 0 0 2 0 0 0 0 2 0 0 2 0 0 0
44 59 59 48 30 7 5 3 26 17 14 11 0 6 0 1 2 6 1 0 0 2 0 0 1 1 4 1 0 0 0 0 1 0 2 0 0 0 0 2 1 1 1 1 0 1 0
49 50 68 43 30 16 8 8 29 34 20 8 2 0 18 1 1 0 2 1 0 0 1 1 0 3 0 1 1 0 6 7 0 0 0 0 0 1 0 0 0 0 1 0 1 0 0
40 46 49 39 13 12 8 8 20 32 15 6 2 2 7 4 1 1 1 0 0 1 0 0 2 3 6 3 5 3 7 1 0 0 0 0 2 0 0 0 0 0 3 2 0 0 0
35 41 40 30 9 16 13 6 15 26 9 3 2 0 0 1 1 4 0 1 0 1 0 1 0 3 2 6 8 1 0 0 0 0 0 1 2 1 0 0 0 0 0 0 0 0 0
35 43 41 18 11 6 21 6 10 20 7 8 0 2 0 3 0 0 0 1 0 0 0 0 0 0 1 5 6 3 0 0 0 0 0 1 1 0 0 0 0 0 0 0 0 0 0
28 43 32 15 17 7 12 6 9 16 7 9 1 0 0 8 0 0 0 0 0 0 0 0 1 2 3 15 7 2 0 0 0 0 0 0 0 0 0 0 0 0 0 0 0 0 0
25 36 10 19 5 9 11 3 12 15 14 7 2 1 0 0 0 0 0 0 0 0 0 0 1 5 5 12 0 0 3 0 0 0 0 0 0 0 0 0 0 0 0 0 0 0 0

GFSGBSN_con_mlcape_018.txt.gz
CAPE
8 11 7 7 6 1 2 1 1 1 12 25 18 15 65 38 21 1 15 5 11 1 1 0 9 4 5 1 0 0 0 0 0 33 2 3 0 0 0 0 0 0 0 0 0 0 0
5 6 9 5 4 12 5 5 6 0 3 16 39 7 29 26 26 9 11 11 16 5 4 2 6 15 0 0 0 0 0 0 5 18 7 8 0 0 0 0 0 0 0 0 0 0 0
4 4 3 3 8 7 7 8 11 6 4 2 19 32 19 30 30 19 8 13 16 7 0 0 9 3 0 0 0 0 0 0 0 14 11 25 11 0 2 0 0 0 0 0 0 0 0
3 6 4 7 2 8 17 14 7 16 10 5 16 9 10 43 38 25 11 22 16 16 12 1 16 0 0 0 0 0 0 0 0 0 0 0 17 12 8 0 0 1 3 0 0 0 0
8 6 6 10 11 16 9 26 33 12 10 6 9 1 31 9 48 27 10 28 24 5 22 25 0 0 0 0 0 0 0 0 0 0 0 0 1 0 0 1 0 0 0 0 1 0 0
7 7 6 16 27 5 11 32 44 42 20 10 8 2 5 12 71 27 8 22 19 17 15 28 1 0 0 0 0 0 0 0 0 0 0 0 0 2 3 1 0 0 0 0 0 0 0
27 26 26 14 21 21 23 30 29 25 32 17 17 2 3 32 57 14 7 6 0 0 7 1 0 0 0 0 0 0 0 0 0 0 0 0 1 1 1 0 0 0 0 0 0 0 0
34 42 53 25 45 24 18 28 39 35 34 12 35 13 4 2 76 4 0 0 0 0 0 0 0 0 0 0 0 0 0 0 0 0 0 0 0 0 0 1 1 0 0 0 0 0 0
33 38 33 22 46 22 15 24 35 54 45 41 20 16 4 2 28 6 0 0 0 0 0 0 0 0 0 0 0 0 0 0 0 0 0 0 0 0 0 0 0 0 0 0 0 0 0
21 21 26 32 36 31 9 32 51 33 47 17 36 23 10 0 5 1 3 1 0 0 0 0 0 0 0 5 6 0 0 0 2 0 1 0 0 0 0 0 0 0 0 0 0 0 0
7 19 24 47 34 57 37 45 37 17 2 3 68 32 25 26 6 1 0 0 0 0 0 0 0 2 11 0 0 0 1 2 5 0 0 0 0 0 0 0 0 0 0 0 0 0 0
16 23 28 57 49 32 50 33 17 10 28 70 63 52 44 0 2 0 0 0 0 0 0 0 1 3 9 6 3 0 11 13 3 4 1 0 0 0 0 0 0 0 0 2 7 3 0
30 20 31 44 72 34 31 30 23 39 57 81 64 43 1 0 6 0 0 0 0 0 0 0 1 1 1 1 1 2 3 12 3 2 0 0 1 0 0 0 0 0 0 0 0 0 0
33 27 32 44 54 34 18 24 6 39 29 45 41 33 24 27 2 0 0 0 0 0 0 0 0 1 1 0 1 1 5 3 7 5 0 0 0 0 0 0 0 0 0 0 0 0 0
31 32 38 41 47 31 15 11 6 48 16 14 42 10 11 11 2 0 0 0 0 0 0 0 1 0 1 0 0 1 3 1 1 6 1 0 0 0 0 0 0 1 0 0 0 0 0
32 38 38 40 48 32 10 20 7 41 23 20 7 0 0 0 18 5 0 0 0 0 0 0 0 0 0 0 0 2 1 0 0 0 0 0 0 0 0 0 0 0 0 3 0 0 0
22 43 41 45 49 40 18 13 21 37 26 18 9 0 0 0 42 6 1 0 0 0 0 0 0 0 0 1 0 0 0 0 0 0 0 0 0 0 1 0 0 0 3 0 0 0 0
22 41 43 51 66 55 20 9 29 32 38 5 16 0 1 42 2 4 1 0 0 0 0 0 0 0 0 0 0 0 0 0 0 0 0 0 0 0 0 0 0 0 0 0 0 0 0
32 41 43 51 72 56 17 10 12 21 33 5 7 3 30 10 0 0 0 0 0 0 0 0 0 0 0 0 0 0 0 0 0 0 0 0 1 0 0 0 1 0 0 0 0 6 0
33 42 39 49 69 53 17 15 19 24 25 15 6 0 4 9 4 0 0 1 0 0 0 0 3 4 0 3 0 0 0 0 0 0 0 0 0 0 0 0 0 0 1 0 0 0 0
37 39 39 46 63 40 14 2 12 24 11 3 1 0 1 0 0 0 0 0 0 0 0 0 7 0 3 0 0 0 0 0 0 0 0 3 0 0 0 1 0 0 0 1 0 0 0
42 44 31 48 43 26 18 0 9 29 10 1 3 4 0 0 1 0 0 1 0 0 0 0 1 1 2 1 0 0 0 0 0 0 0 2 0 0 0 1 0 1 1 0 1 0 1
50 51 42 36 49 14 11 10 7 25 16 0 1 0 11 2 2 0 0 0 0 0 1 1 0 1 1 1 0 0 0 0 0 1 0 0 0 0 0 0 0 0 2 3 3 0 0
37 49 54 40 33 17 10 16 7 23 31 16 7 3 15 1 1 0 0 0 0 1 0 1 0 3 7 3 6 2 0 0 0 0 0 1 0 0 0 0 0 0 1 0 0 0 0
29 36 46 21 18 19 3 18 10 20 20 6 2 3 1 1 0 3 10 0 0 5 2 1 0 1 16 5 2 0 0 0 0 0 0 0 2 0 0 0 0 0 1 1 2 0 0
26 33 36 21 26 15 7 21 14 20 13 4 1 0 1 2 0 0 2 4 0 0 2 0 0 0 3 4 3 0 0 0 0 0 0 0 0 0 0 0 0 0 0 0 0 0 0
15 22 25 21 17 17 17 15 5 23 16 3 1 1 3 6 0 2 0 0 1 0 0 0 0 3 16 3 0 0 0 0 0 0 1 1 0 0 0 0 0 0 0 0 0 0 0
21 17 19 22 14 16 18 16 3 21 18 7 0 0 1 0 0 0 0 0 0 0 0 0 0 1 1 2 1 0 0 0 0 0 0 0 0 0 0 0 0 0 0 0 0 0 0
22 23 28 28 20 14 11 15 4 19 24 8 1 0 2 0 0 0 0 0 0 0 0 0 0 3 1 10 2 4 4 0 0 0 0 0 0 0 0 0 0 0 0 0 0 0 0

GFSGBSN_con_mlcape_021.txt.gz
CAPE
11 13 11 8 6 2 5 3 3 2 4 8 9 8 64 36 44 29 3 0 0 1 1 0 0 0 0 6 0 0 0 0 0 18 13 1 0 0 0 0 0 0 0 0 0 0 0
9 9 7 6 12 12 7 11 4 3 3 5 11 9 9 39 15 35 11 1 5 13 0 6 0 3 0 0 0 0 0 0 0 21 20 9 0 0 0 0 0 0 0 0 0 0 0
14 5 5 7 10 17 16 14 4 6 8 2 3 8 13 9 18 30 17 5 7 23 2 0 0 0 0 0 0 0 0 0 0 18 11 4 1 4 0 0 0 0 0 0 0 0 0
11 11 6 10 8 10 15 11 8 31 28 20 12 12 10 6 28 36 26 15 0 17 33 3 16 0 0 0 0 0 0 0 0 0 0 11 12 11 0 0 1 2 0 0 0 0 0
7 20 15 10 14 21 16 23 15 38 24 33 39 8 10 7 5 32 15 24 10 11 29 43 0 0 0 0 0 0 0 0 0 0 0 4 0 0 0 0 0 0 0 0 0 0 0
18 32 21 47 30 10 8 10 9 32 30 40 33 9 9 4 2 32 31 6 25 10 30 28 1 0 0 0 0 0 0 0 0 0 0 0 0 0 1 1 0 0 0 0 0 0 0
52 57 47 47 40 31 33 18 18 27 31 41 41 35 25 6 17 17 14 18 4 10 6 0 0 0 0 0 0 0 0 0 0 0 0 0 2 0 1 0 0 0 0 0 0 0 0
47 48 41 34 40 35 34 29 16 28 42 43 62 19 6 3 25 2 3 0 0 0 0 0 0 0 0 0 0 0 0 0 0 0 0 0 0 0 0 1 0 2 2 0 0 0 0
33 31 36 37 39 22 24 33 35 61 72 26 36 25 6 7 13 6 3 0 0 0 0 0 0 2 0 0 0 0 0 0 0 0 0 0 0 0 0 0 1 1 1 0 0 0 0
36 24 30 32 24 30 35 38 29 48 19 24 2 26 32 30 24 0 3 0 0 0 0 0 0 0 6 10 0 0 0 0 0 0 0 0 0 0 0 0 0 0 0 0 0 0 1
34 35 32 28 22 31 35 40 32 17 9 24 19 64 32 57 20 28 1 0 0 0 0 0 0 2 11 0 0 0 0 3 1 0 0 0 0 0 1 0 0 0 0 0 0 0 0
14 25 29 25 24 29 36 36 21 13 25 32 92 83 80 37 7 1 0 0 0 0 0 0 2 3 6 12 11 1 11 24 3 3 2 0 0 0 0 0 0 0 0 0 3 2 1
23 37 32 20 29 31 36 26 13 11 49 52 34 82 55 15 0 29 0 2 0 0 0 0 1 10 6 1 5 2 8 10 1 1 0 1 1 0 0 0 0 0 0 0 0 0 0
11 13 31 31 41 41 39 29 18 14 37 36 2 35 39 0 0 13 12 1 0 0 0 0 0 1 1 0 1 4 2 4 5 3 0 0 0 1 1 1 0 1 0 0 0 0 0
19 19 24 39 45 47 32 30 6 8 27 51 12 33 5 0 3 16 3 0 0 0 0 0 1 3 1 0 0 1 2 1 1 4 0 0 0 0 0 0 1 0 1 0 0 0 0
14 18 32 48 42 59 29 28 8 18 31 47 5 3 1 0 10 8 0 0 0 0 0 0 0 0 0 0 0 1 0 0 0 0 2 0 0 0 0 0 0 6 0 1 0 0 0
22 25 35 42 49 54 29 19 11 16 29 27 16 3 1 44 16 1 0 0 0 0 0 0 0 0 0 0 0 0 0 0 0 0 0 1 0 0 0 0 0 0 1 0 0 0 0
20 25 34 40 46 35 40 9 7 7 27 1 4 0 0 40 0 0 0 0 0 0 0 0 0 0 0 0 0 0 0 0 0 0 0 1 2 0 0 0 0 0 0 1 2 0 0
20 22 36 39 45 37 30 12 1 8 42 18 1 3 43 0 0 0 0 0 0 0 0 0 0 0 0 0 0 0 0 0 0 0 0 0 1 0 0 0 0 0 0 0 0 0 0
14 26 37 44 48 39 29 12 0 9 13 20 3 0 0 3 1 0 0 0 0 0 0 0 0 0 0 1 0 0 0 0 0 0 0 0 0 0 0 0 0 0 1 0 0 0 0
23 26 35 42 31 27 14 16 3 13 15 2 3 0 1 0 0 0 0 0 0 0 0 0 0 0 0 0 3 1 0 0 0 0 0 0 1 0 0 0 0 1 0 0 1 0 0
22 20 27 42 12 17 15 9 5 0 34 2 1 2 0 0 0 0 0 0 0 0 0 0 0 0 0 2 0 0 0 0 0 0 0 1 0 2 0 1 1 0 1 3 1 1 0
23 16 22 36 12 15 15 4 10 7 29 3 1 0 1 5 1 0 0 0 0 0 0 1 0 0 1 1 8 2 2 0 0 2 0 2 0 0 0 0 0 0 0 0 2 3 0
9 12 25 22 9 22 25 7 16 4 27 11 4 5 1 1 0 0 0 0 0 0 0 5 2 2 7 2 3 2 0 1 0 0 0 3 0 0 0 0 0 0 1 0 0 1 0
18 20 21 20 7 12 12 7 11 4 32 5 2 3 1 1 5 0 0 0 0 0 6 1 4 2 4 19 3 2 0 0 0 0 0 0 1 3 0 0 0 0 0 0 0 0 0
16 17 20 20 7 11 6 2 8 0 13 4 0 1 1 6 0 0 1 0 0 0 3 4 0 0 3 3 5 1 0 0 0 0 0 0 1 0 0 0 0 0 0 0 0 0 0
9 19 16 27 15 14 13 2 3 0 8 10 1 2 2 3 1 0 0 1 3 1 1 3 1 4 1 3 1 2 0 0 0 0 0 0 1 0 0 0 0 0 0 0 0 0 0
4 13 17 16 9 11 14 7 0 0 7 13 0 1 2 3 1 8 0 0 0 0 1 0 1 0 4 3 1 0 0 0 0 0 0 0 0 0 0 0 0 0 0 0 0 0 0
1 4 13 18 28 4 25 9 0 3 6 21 2 0 0 2 0 0 0 0 0 0 0 0 1 0 2 2 1 3 0 0 0 0 0 0 0 0 0 0 0 0 0 0 0 0 0

GFSGBSN_con_mlcape_024.txt.gz
CAPE
8 8 9 7 14 13 14 8 3 6 2 3 4 2 4 8 8 52 53 5 0 0 0 0 0 0 4 14 6 0 0 0 1 39 15 1 0 0 0 0 0 0 0 0 0 0 0
7 5 6 5 9 16 18 21 13 6 9 14 11 14 4 9 7 38 42 7 4 0 0 1 0 0 0 0 0 0 0 0 6 24 30 1 1 0 0 0 0 0 0 0 0 0 0
2 3 13 13 13 21 29 26 17 13 10 34 21 14 17 2 6 9 39 33 20 3 0 0 0 1 1 0 0 0 0 0 1 39 24 14 0 0 3 7 2 0 0 0 0 0 0
10 13 13 19 13 10 9 5 3 10 7 30 34 30 25 2 14 7 31 57 46 15 6 0 0 0 0 0 0 0 0 0 0 0 41 26 5 1 2 0 1 0 0 0 0 0 0
20 36 43 37 34 22 8 13 4 7 15 21 38 27 31 23 10 4 12 63 22 7 33 19 0 0 0 0 0 0 0 0 0 0 2 25 9 0 0 0 0 0 0 0 0 0 0
27 16 43 42 36 47 35 34 35 27 22 26 38 44 40 20 10 4 1 47 11 16 44 1 0 0 0 0 0 0 0 0 0 0 1 2 0 1 0 1 0 0 0 0 0 0 0
17 28 34 33 39 49 35 31 33 49 36 34 62 60 63 16 6 1 5 14 8 19 32 1 0 0 0 0 0 0 0 0 0 6 7 5 5 0 0 0 0 0 0 0 0 0 0
31 35 33 34 38 33 34 37 36 33 58 60 58 42 49 19 4 6 15 27 0 0 0 0 4 0 0 0 0 0 0 0 4 7 9 1 2 0 0 0 0 2 1 0 0 0 0
42 45 31 44 33 30 33 41 52 24 25 26 27 43 9 5 14 13 26 26 0 0 0 0 0 0 0 0 0 0 0 0 0 3 1 0 0 0 0 2 3 1 1 1 0 1 0
25 25 32 42 31 42 51 50 42 33 24 21 40 5 7 23 17 3 31 7 0 0 0 0 0 0 3 3 0 0 0 0 0 0 4 3 1 0 0 1 1 0 0 0 2 0 0
9 44 44 25 42 53 54 48 43 24 16 10 37 91 15 38 10 29 2 14 0 0 0 0 3 6 10 0 0 1 0 0 5 0 0 0 0 1 1 0 1 0 0 0 1 1 0
36 47 39 28 41 63 50 46 35 25 15 9 46 31 8 29 44 4 9 0 0 0 0 2 5 6 12 14 3 7 9 15 6 6 3 0 0 0 1 0 0 0 3 5 5 8 2
21 27 37 28 51 47 41 49 26 8 12 0 16 14 11 74 13 56 2 0 0 0 0 1 2 14 4 4 16 7 8 9 3 2 1 5 3 0 0 1 1 8 3 2 0 0 0
23 31 31 35 49 37 42 41 6 8 8 9 51 0 44 66 51 44 14 0 0 0 1 0 8 10 12 3 6 4 8 5 13 7 1 0 0 2 0 0 5 4 2 1 0 0 0
23 33 39 38 34 42 55 41 15 6 10 5 12 2 55 30 26 1 1 0 0 0 0 2 6 3 3 1 0 2 4 2 0 2 0 1 0 0 0 0 1 3 2 0 6 3 7
19 33 32 34 33 42 36 31 13 10 11 21 0 7 25 14 17 7 0 0 0 0 0 0 0 0 2 2 1 0 0 0 0 3 2 0 0 0 0 1 4 6 0 0 2 1 1
18 26 30 28 38 47 37 33 8 10 14 8 1 2 9 17 34 3 0 0 2 0 0 0 0 2 1 2 2 1 0 0 0 0 9 1 0 0 0 1 0 1 4 2 0 4 1
17 24 31 34 45 45 39 8 13 3 9 2 4 0 0 0 0 0 1 0 5 0 0 0 0 0 0 0 0 0 0 0 0 0 1 0 1 0 0 0 0 0 0 0 0 0 0
19 24 27 33 43 30 29 5 15 9 14 7 2 2 20 17 0 0 1 4 0 0 0 0 0 0 0 0 0 0 0 0 0 0 0 1 2 0 0 0 0 2 0 0 2 0 0
22 27 23 22 29 27 28 4 8 14 11 5 0 0 0 2 1 0 3 2 0 0 0 0 0 0 0 0 0 0 0 0 0 0 0 0 1 0 0 0 0 0 0 0 1 0 0
22 28 27 14 20 10 32 1 3 7 3 0 2 1 1 0 5 0 0 0 0 0 0 0 0 0 0 0 0 0 0 0 0 0 0 0 0 0 0 0 0 0 1 3 0 0 0
27 7 23 18 19 10 17 5 4 0 1 0 1 2 1 2 0 0 0 0 0 0 0 0 0 0 0 0 0 1 1 0 0 0 1 5 0 2 0 0 0 0 1 2 2 2 1
28 32 24 22 16 8 11 8 1 0 3 1 1 2 1 0 3 0 0 0 0 0 0 0 0 0 0 0 0 4 0 0 1 0 0 5 0 0 0 0 0 1 1 2 2 2 1
22 20 21 24 21 3 10 10 4 0 11 4 2 2 1 2 2 2 0 0 0 0 0 2 0 2 9 0 4 3 2 9 4 2 8 3 1 1 0 0 0 0 2 1 2 0 2
18 16 21 18 26 3 3 5 9 2 18 1 1 2 2 3 4 1 0 0 0 0 1 1 4 3 2 8 8 1 2 2 0 1 6 6 11 2 0 0 0 0 0 2 1 0 0
7 11 10 10 14 8 8 7 8 4 12 1 0 2 3 2 0 0 0 0 0 0 0 0 0 0 1 15 7 0 1 0 0 0 0 1 1 1 1 0 0 0 0 0 0 0 0
3 6 5 3 12 13 2 14 0 1 12 4 0 1 1 1 1 0 2 1 1 0 0 1 3 5 4 3 6 0 1 0 0 0 0 0 1 0 0 0 0 0 0 0 0 0 0
3 5 8 2 3 15 13 3 0 0 7 7 0 0 1 2 0 0 0 0 0 2 0 0 1 1 3 6 7 1 0 0 0 0 0 0 1 0 1 1 0 0 0 0 0 0 0
3 3 5 3 0 2 2 0 0 2 6 8 0 0 0 2 1 0 0 0 0 0 0 0 0 3 6 1 1 4 1 2 0 1 0 0 0 0 0 0 0 0 0 0 0 0 0

GFSGBSN_con_mlcape_027.txt.gz
CAPE
2 2 5 9 8 10 10 11 15 12 4 4 6 14 16 11 2 9 8 44 54 12 4 0 0 0 0 10 6 0 0 0 12 35 15 5 10 2 0 0 0 0 0 0 0 0 0
5 8 10 10 10 14 13 8 6 3 8 10 7 17 22 21 6 1 12 29 76 21 4 0 0 0 6 2 2 0 0 0 2 28 31 13 12 18 14 6 0 2 0 0 0 0 0
13 18 35 16 21 12 10 14 2 1 2 8 7 18 22 25 18 7 7 3 85 30 7 12 0 0 5 0 0 0 0 0 24 16 43 10 2 1 19 9 6 0 0 0 0 0 0
23 37 25 25 26 23 34 33 36 23 4 5 15 20 23 23 27 21 6 2 19 35 25 19 0 2 4 0 0 0 0 1 5 35 37 33 1 3 1 0 0 0 0 0 0 0 0
21 21 33 31 40 27 31 32 32 61 56 28 9 20 36 44 37 15 3 4 5 58 29 26 1 4 1 0 0 0 0 19 0 6 45 4 6 0 0 1 3 2 0 0 0 0 0
17 18 33 31 51 40 33 33 38 43 39 51 33 36 35 52 51 23 2 6 0 55 37 30 12 0 0 0 0 0 0 8 3 3 10 12 0 0 0 1 1 0 0 0 0 0 0
29 39 45 33 53 30 37 52 53 63 57 51 55 88 62 69 68 47 17 0 51 11 35 3 0 0 0 0 0 0 0 6 7 13 2 4 5 0 0 8 1 0 0 0 0 0 0
26 20 23 24 41 31 40 58 62 70 71 60 27 32 67 40 27 15 21 6 8 4 9 16 0 0 2 0 0 0 3 4 4 4 0 2 1 0 0 0 0 0 0 0 0 0 0
15 31 46 53 32 25 42 57 56 64 66 50 16 33 29 19 0 33 18 5 0 2 6 7 2 2 0 0 2 1 0 3 5 0 5 6 0 0 0 0 0 0 0 0 0 0 0
29 30 29 20 25 36 47 53 49 56 51 27 10 24 26 38 16 3 5 2 7 25 2 3 8 5 0 2 3 1 0 2 2 0 1 6 0 0 0 0 0 0 0 0 0 0 0
27 29 21 26 30 43 51 37 51 55 36 10 10 27 54 81 19 33 23 27 1 23 0 1 4 5 4 0 0 4 4 9 2 5 0 0 0 1 1 0 0 0 0 0 1 0 0
25 23 27 34 34 39 43 51 49 41 22 11 22 12 36 9 64 45 43 1 8 0 0 2 3 3 7 8 6 11 9 11 2 0 1 2 0 0 0 0 1 0 1 0 2 0 0
15 25 21 33 33 37 42 50 55 51 23 18 13 10 11 18 34 84 64 0 0 0 0 2 4 8 5 3 5 8 9 9 0 1 0 0 0 0 0 2 1 5 1 0 1 0 0
23 24 26 33 32 35 41 41 34 24 16 15 11 3 39 52 104 57 0 0 0 0 0 1 11 16 12 5 13 6 7 8 4 2 0 0 1 0 0 2 1 4 5 0 0 0 0
20 21 29 38 30 33 32 26 20 8 9 6 10 1 49 89 83 0 1 0 0 1 1 10 20 8 12 3 4 14 5 8 3 3 0 0 0 0 0 3 1 3 1 0 2 0 0
24 23 32 35 30 25 27 24 12 11 11 13 4 8 41 74 41 4 1 0 1 0 0 6 1 1 1 6 5 2 8 0 0 2 2 1 0 0 2 3 0 1 0 0 0 0 0
17 24 31 37 27 14 27 12 7 11 21 9 2 0 41 37 7 0 2 0 5 1 3 4 0 1 0 5 1 1 0 0 0 0 2 0 0 0 0 0 0 1 1 1 1 4 0
18 20 29 29 21 9 16 8 10 18 14 3 2 0 28 23 0 0 2 1 3 2 2 0 1 1 1 3 3 2 0 0 0 0 1 0 0 0 0 0 0 0 0 1 1 0 0
30 29 24 21 15 6 19 5 6 7 17 1 1 1 2 2 0 0 3 9 10 4 0 0 0 0 0 0 0 0 0 0 0 0 2 0 2 0 0 0 0 0 0 0 1 0 0
25 26 35 25 19 7 5 13 9 0 6 0 1 0 2 0 16 2 0 5 5 4 2 0 0 0 0 0 0 0 0 0 0 0 0 1 3 0 0 0 0 0 0 0 1 0 0
19 26 32 18 22 6 10 12 9 0 0 0 1 2 1 0 2 8 1 0 0 0 0 0 0 0 0 0 0 1 1 0 0 0 0 2 0 0 0 0 0 1 1 0 1 0 0
17 23 18 18 22 2 11 10 8 0 0 0 0 1 0 1 2 4 0 2 4 0 0 0 0 0 1 5 4 1 2 3 2 0 0 2 1 2 0 0 0 1 0 1 1 0 1
12 12 23 12 18 4 15 9 8 1 1 2 0 1 1 5 2 1 0 2 5 0 0 2 2 2 3 4 0 2 0 0 0 1 1 7 2 0 0 0 0 1 0 1 3 3 1
5 6 11 13 8 6 10 13 7 2 13 8 1 2 0 3 3 1 0 0 0 0 5 0 1 3 11 0 3 0 0 1 2 0 7 8 4 1 0 0 1 0 1 0 1 0 0
4 3 4 5 3 4 3 20 3 1 7 0 1 1 2 3 0 5 0 0 0 0 2 4 5 1 0 5 0 3 4 4 1 4 12 3 10 0 0 2 0 0 1 0 2 0 0
5 1 2 8 2 9 10 17 4 0 3 3 0 0 2 0 0 3 0 1 2 3 2 3 2 5 1 2 4 0 0 0 4 1 0 0 8 1 1 0 0 0 0 0 0 0 0
11 3 1 2 1 0 1 1 2 0 4 5 1 0 1 2 4 8 3 5 4 4 8 4 4 3 4 4 1 1 2 2 2 1 1 1 1 0 0 0 0 0 0 0 0 0 0
11 6 1 2 2 2 3 2 1 1 3 2 8 0 1 2 0 1 7 17 15 17 7 1 0 0 2 3 7 2 1 8 0 1 1 0 1 1 1 0 0 0 0 0 0 0 0
10 9 5 3 3 3 5 8 7 9 2 1 4 0 0 2 0 1 8 2 1 5 17 1 2 3 11 6 2 2 7 5 3 3 0 0 0 2 1 2 0 0 0 0 0 0 0

GFSGBSN_con_mlcape_030.txt.gz
CAPE
8 10 9 7 8 9 8 18 8 7 13 18 17 17 12 23 32 20 5 0 14 63 28 3 0 0 0 5 1 12 8 13 42 44 31 7 0 0 0 0 0 0 0 0 0 0 0
19 16 29 19 17 22 26 24 24 16 11 17 14 14 10 29 40 32 20 9 7 24 80 3 0 0 0 1 13 0 0 0 0 39 37 26 5 0 3 0 1 0 0 0 0 0 0
29 18 27 32 31 37 45 14 30 27 36 51 36 28 28 22 22 33 29 19 6 6 67 22 0 0 0 0 0 0 0 0 4 21 36 50 16 16 18 9 5 4 0 0 0 0 0
38 7 26 29 49 50 36 31 27 34 41 61 69 73 39 17 35 56 42 18 3 6 2 27 21 0 8 0 0 0 0 0 2 15 26 55 3 1 18 2 5 0 0 0 0 0 0
16 27 19 30 24 37 29 34 34 49 59 76 67 83 69 30 45 62 55 19 5 0 1 27 28 14 0 0 0 0 0 0 0 38 67 14 2 0 0 2 2 3 0 0 0 0 0
42 8 11 26 54 56 32 27 43 54 70 77 86 90 70 55 104 39 49 20 0 0 16 32 32 32 0 0 0 0 0 7 0 46 36 10 0 0 0 1 0 0 1 0 0 0 0
13 18 25 24 28 27 29 39 51 59 60 65 76 102 16 65 103 76 33 4 10 44 82 4 14 2 0 0 0 0 0 3 3 17 1 7 1 0 0 0 0 1 0 0 0 0 0
15 30 28 24 26 26 34 45 52 47 55 60 80 51 15 33 28 47 38 9 0 0 5 9 9 12 0 0 0 0 3 6 8 6 16 0 1 0 0 0 1 0 0 0 0 0 0
18 31 27 28 27 33 35 44 42 41 60 59 41 16 18 59 99 14 2 0 0 0 4 8 17 11 0 0 0 0 6 0 0 2 1 1 0 0 0 0 0 0 0 0 0 0 0
25 38 26 23 21 26 35 41 53 62 59 33 17 20 26 60 17 10 25 18 4 0 0 3 9 11 1 1 4 0 2 1 1 2 0 0 0 0 0 0 0 0 0 0 0 0 0
25 25 24 24 25 30 30 44 48 49 56 48 20 25 24 42 10 4 26 8 4 3 0 2 1 5 0 0 0 3 1 2 0 0 0 0 0 0 0 0 0 0 0 0 0 0 0
15 16 21 26 28 29 26 26 32 43 24 22 16 11 11 13 16 20 31 0 0 0 0 1 1 8 8 22 7 0 3 2 1 1 1 1 0 0 0 0 0 0 0 0 0 0 0
22 19 21 26 24 22 23 26 25 19 18 18 14 6 4 20 13 47 8 0 0 0 0 0 1 8 1 13 12 2 5 0 0 0 0 0 0 0 0 0 0 0 0 0 0 0 0
28 18 25 28 23 21 23 18 26 10 12 23 24 7 1 54 25 0 0 0 0 8 0 0 6 6 7 6 10 9 8 2 7 0 0 0 0 0 0 0 1 3 0 0 0 0 0
15 22 23 21 19 21 18 28 10 5 10 12 22 0 3 76 79 0 9 0 1 1 0 6 10 2 9 7 1 11 4 4 1 3 0 0 0 0 0 0 0 1 0 0 0 0 0
7 35 27 22 20 18 19 28 8 10 17 45 7 0 27 49 17 0 1 1 0 0 1 7 0 6 0 4 1 4 7 1 0 3 0 0 0 0 4 1 0 0 0 0 1 0 0
30 28 25 20 15 8 18 16 4 13 13 21 0 2 11 17 6 3 0 0 0 11 4 1 0 1 1 1 4 4 0 0 1 0 1 0 0 0 0 0 0 0 0 0 0 0 0
28 25 28 14 19 5 13 14 3 9 8 3 0 0 6 4 0 0 0 0 1 3 0 3 0 0 0 1 3 0 0 0 0 1 0 0 0 0 0 0 0 0 0 0 0 0 0
28 25 38 5 23 1 11 12 2 7 17 1 1 0 4 0 0 2 0 3 3 5 1 0 0 0 0 0 0 3 1 0 0 0 1 0 0 0 0 0 0 0 0 1 0 0 0
29 24 25 17 24 3 11 4 0 0 6 0 1 0 0 0 0 0 1 3 1 4 3 0 0 0 0 0 2 0 0 0 0 0 0 0 1 0 0 0 0 0 0 0 0 0 0
22 15 17 24 21 9 9 7 0 0 3 0 0 0 0 9 0 1 3 0 5 1 0 0 0 1 1 0 2 0 0 0 0 0 0 1 0 0 0 0 0 0 0 0 1 0 0
16 11 10 14 17 8 5 7 0 0 0 0 1 1 0 0 6 2 0 0 7 1 1 0 0 0 0 0 0 0 0 0 0 0 0 0 0 0 0 0 0 0 0 0 1 2 3
13 7 6 5 8 14 2 9 0 0 0 2 0 0 1 0 0 5 7 0 3 0 0 0 0 1 2 1 0 0 0 0 0 0 0 6 0 0 0 0 0 0 0 0 0 2 1
12 7 8 8 12 18 14 12 0 0 2 1 1 1 0 1 0 0 0 0 0 5 1 0 0 2 0 0 0 0 0 0 2 1 0 1 0 1 0 0 0 0 0 0 0 0 1
11 10 9 8 2 3 4 3 3 0 0 0 1 1 2 0 1 0 0 0 0 6 0 1 0 0 0 0 1 2 0 3 0 0 0 0 11 0 0 0 0 0 0 0 0 0 0
21 9 8 12 4 2 3 0 0 1 0 0 1 0 1 0 0 4 2 0 1 0 0 5 0 0 0 0 0 0 0 1 0 0 0 10 0 0 0 0 0 0 0 0 0 0 0
28 6 11 10 12 5 4 7 2 0 1 0 0 0 1 1 1 1 3 2 1 1 3 6 3 4 2 0 0 0 0 1 0 2 0 1 5 0 0 0 0 0 0 0 0 0 0
32 9 3 10 13 13 7 7 8 5 2 0 0 0 1 2 0 1 13 15 2 9 8 1 0 0 0 2 0 5 0 0 0 0 0 0 0 0 0 1 0 0 0 0 0 0 0
35 9 7 5 14 11 12 9 11 6 8 2 1 0 2 2 0 0 0 0 0 0 14 1 0 2 2 4 2 0 0 0 1 0 0 1 1 0 0 0 0 0 0 0 0 0 0

GFSGBSN_con_mlcape_033.txt.gz
CAPE
18 26 15 27 22 15 39 39 29 27 35 42 33 28 37 23 13 32 37 41 23 24 26 72 31 11 3 2 0 2 34 26 50 31 0 0 0 0 1 0 0 0 0 0 0 0 0
28 42 19 22 36 50 24 16 22 37 35 37 51 58 42 46 25 7 16 29 37 40 5 11 43 25 0 0 0 0 2 41 47 25 9 37 0 0 0 0 0 0 0 0 0 0 0
15 6 47 19 30 14 29 22 26 30 40 57 54 73 88 59 39 16 22 49 38 26 1 1 55 15 0 0 0 0 0 0 0 27 19 22 26 3 0 1 0 0 0 0 0 0 0
8 36 14 17 33 32 30 36 45 42 57 67 67 79 113 88 74 49 43 38 33 12 0 0 57 15 0 0 0 0 0 0 0 2 31 43 9 4 3 1 0 0 0 0 0 0 0
43 14 27 24 20 31 26 33 39 48 58 68 69 87 97 96 72 78 38 60 18 3 0 0 30 12 0 0 0 0 0 0 0 24 54 18 4 4 0 1 0 1 0 0 0 0 0
14 22 22 19 32 31 35 39 41 44 50 52 76 102 120 102 76 100 79 54 0 1 0 0 12 14 1 0 0 0 0 0 5 67 17 2 0 0 2 3 0 0 0 0 0 0 0
19 32 27 27 34 35 45 55 35 35 55 56 71 107 72 29 55 38 12 0 0 0 6 23 2 0 0 0 0 0 0 0 14 17 4 6 1 1 1 0 0 2 0 0 0 0 0
30 33 30 30 31 39 47 39 27 33 54 53 43 30 18 27 83 101 48 2 0 0 1 4 0 0 0 0 0 0 0 1 7 0 1 0 0 0 0 0 3 0 0 0 0 0 0
24 23 15 32 33 39 30 25 22 27 31 50 44 15 23 34 67 5 2 0 22 0 0 5 3 4 0 0 0 0 1 0 1 0 0 0 0 0 0 0 0 0 0 0 0 0 0
23 21 16 29 38 33 20 24 22 22 27 31 25 23 22 34 18 7 0 12 8 0 0 2 4 3 0 4 0 0 8 0 3 1 1 0 0 0 0 0 0 0 0 0 0 0 0
9 12 21 33 41 33 20 25 18 24 18 29 20 6 4 31 10 6 8 0 0 0 0 1 5 3 7 0 0 9 9 0 0 0 0 0 0 0 0 0 0 0 0 0 0 0 0
13 10 21 38 35 20 23 14 23 12 9 8 12 24 28 2 16 15 0 0 0 0 0 2 2 11 20 12 2 2 1 0 0 1 0 0 0 0 0 0 0 0 0 0 0 0 0
13 23 25 32 32 26 17 26 33 13 6 13 40 53 22 23 10 3 0 0 0 0 0 0 3 7 4 15 0 1 0 0 0 0 0 0 0 0 0 0 0 0 0 0 0 0 0
14 22 32 27 26 34 15 25 24 12 18 8 28 20 6 31 12 0 0 0 0 0 0 2 1 9 5 6 5 4 0 0 0 0 0 0 0 0 0 0 0 0 0 0 0 0 0
16 24 41 33 24 21 9 23 19 10 9 27 0 1 13 9 2 2 4 0 0 0 1 3 4 0 8 6 4 4 2 0 0 0 0 0 0 0 0 0 0 0 0 0 0 0 0
4 23 28 29 29 10 10 24 9 9 10 1 0 2 6 25 5 0 0 0 0 2 0 0 0 1 1 7 1 2 5 0 0 0 0 0 0 0 0 0 0 0 0 0 0 0 0
11 13 23 24 25 12 8 14 7 8 1 0 0 2 2 15 17 1 0 0 2 3 0 0 0 1 1 5 3 4 0 0 0 0 0 0 0 0 0 0 0 0 0 0 0 0 0
13 12 11 30 15 11 6 11 6 11 3 0 0 0 0 0 0 1 0 0 4 0 0 1 0 0 0 2 1 0 0 0 0 0 0 0 0 0 0 0 0 0 0 0 0 0 0
15 5 13 25 16 9 3 5 4 8 9 0 0 0 0 0 0 0 1 0 6 6 6 5 1 0 0 0 0 0 0 0 0 0 3 0 0 0 0 0 0 0 0 0 0 0 0
11 4 8 13 9 4 0 4 0 0 0 0 0 0 0 0 0 0 0 0 5 5 0 0 0 0 0 8 0 0 0 0 0 0 1 0 0 0 0 0 0 0 0 0 0 0 0
9 4 6 8 18 16 1 3 0 0 0 0 0 0 0 0 0 0 0 0 1 0 0 0 3 0 0 0 0 0 0 0 0 0 0 0 0 0 0 0 0 0 0 0 0 0 0
12 7 5 9 11 15 20 2 0 0 0 0 0 1 0 0 0 0 0 0 1 0 0 0 0 1 0 0 1 0 0 0 0 0 0 0 0 0 0 0 0 0 0 0 0 0 1
15 7 8 10 6 3 3 5 1 0 0 0 0 0 1 0 0 1 0 1 0 0 0 0 1 0 1 0 0 0 0 0 0 0 0 0 0 0 0 0 0 0 0 0 0 0 1
9 11 9 17 11 4 3 2 1 0 0 0 2 1 2 0 0 0 0 0 0 0 0 0 0 0 0 0 0 0 0 0 0 0 0 0 0 0 0 0 0 0 0 0 0 0 0
6 7 12 18 20 6 3 6 3 1 0 0 0 0 2 0 0 2 0 0 6 0 0 0 0 0 0 0 0 1 0 1 0 0 1 1 1 0 0 0 0 0 0 0 0 0 0
5 19 5 8 16 15 5 7 8 4 0 0 1 0 1 0 1 0 5 0 0 1 0 0 0 0 0 0 0 0 1 1 0 1 4 0 0 0 0 0 0 0 0 0 0 0 0
6 27 2 10 7 15 6 8 4 5 2 0 0 0 1 0 0 0 2 0 2 1 2 6 3 1 0 0 0 0 0 0 0 0 1 1 1 0 1 0 0 0 0 0 0 0 0
1 21 5 4 11 14 16 12 4 10 5 0 0 0 0 1 0 0 0 4 2 2 4 0 0 0 0 0 0 0 0 0 0 0 0 0 0 0 1 2 0 0 0 0 0 0 0
0 19 4 0 5 17 3 9 6 4 4 9 0 0 4 0 0 0 0 0 1 1 1 3 0 0 3 1 3 0 0 0 0 0 0 0 0 0 0 0 0 0 0 0 0 0 0

GFSGBSN_con_mlcape_036.txt.gz
CAPE
18 19 17 26 14 18 31 11 27 29 29 46 60 58 57 62 40 51 24 17 19 25 11 19 12 37 1 0 0 0 0 2 30 30 0 0 0 0 0 0 0 0 0 0 0 0 0
14 16 30 16 20 14 30 26 27 43 49 53 60 72 98 82 76 67 39 16 27 36 19 8 1 50 0 0 0 0 18 100 11 30 0 0 0 0 0 0 0 0 0 0 0 0 0
20 17 21 22 7 26 26 34 35 36 42 41 53 84 113 125 88 89 93 61 48 60 15 0 0 11 2 0 0 0 109 105 73 30 0 0 18 0 0 0 0 0 0 0 0 0 0
23 19 21 18 34 24 37 39 37 47 38 30 46 73 97 120 112 75 68 64 49 52 32 2 0 6 0 0 0 0 0 0 15 38 27 30 38 4 0 0 0 0 0 0 0 0 0
14 28 19 10 19 25 38 38 35 31 25 30 44 68 86 107 124 86 89 115 114 77 32 14 0 4 0 0 0 0 0 0 0 18 36 33 11 6 0 0 0 0 0 0 0 0 0
23 8 23 28 28 34 29 40 34 32 23 39 63 78 74 78 57 54 65 81 19 44 16 18 0 1 0 0 0 0 0 0 8 78 30 13 4 6 0 1 0 0 0 0 0 0 0
19 28 22 30 22 28 37 24 39 23 21 43 42 28 36 17 67 70 51 0 0 8 15 0 3 0 0 0 0 0 0 0 53 46 11 3 4 3 8 0 0 0 0 0 0 0 0
21 11 5 30 24 27 23 27 34 28 23 23 28 19 18 26 71 89 46 3 0 4 0 0 0 0 0 0 0 0 0 1 14 22 8 2 5 0 5 0 1 8 0 0 0 0 0
12 7 8 37 23 25 23 31 30 29 24 14 14 25 26 30 19 13 0 0 3 3 0 0 0 0 0 0 0 0 0 5 0 1 1 1 0 0 0 0 1 0 0 0 0 0 0
5 10 8 30 28 24 21 19 14 30 11 13 3 7 15 24 5 6 0 15 6 1 0 0 3 8 6 0 0 0 3 3 6 4 0 0 0 0 0 0 0 0 0 0 0 0 0
16 14 32 28 18 25 34 24 28 28 21 16 4 8 47 61 8 15 2 4 3 0 0 0 5 7 1 0 0 1 0 0 0 2 0 0 0 0 0 0 0 0 0 0 0 0 0
8 15 22 13 23 28 19 19 24 20 19 37 56 61 68 17 4 14 2 1 0 0 0 0 1 1 8 0 0 13 8 0 2 0 0 0 0 0 0 0 0 0 0 0 0 0 0
10 14 22 25 21 39 5 23 17 18 27 33 20 14 18 27 20 12 0 0 0 0 0 0 1 12 1 7 7 1 0 1 1 0 0 0 0 0 0 0 0 0 0 0 0 0 0
4 11 22 13 19 34 9 10 9 11 16 5 0 5 38 21 3 0 0 0 0 0 0 0 4 8 5 8 17 4 2 0 0 0 0 0 0 0 0 0 0 0 0 0 0 0 0
3 9 14 20 18 28 12 19 6 6 9 0 0 0 0 7 0 1 0 0 0 0 0 8 6 4 1 6 1 3 0 0 0 0 0 0 0 0 0 0 0 0 0 0 0 0 0
7 9 7 18 16 15 11 15 4 10 2 0 0 0 4 10 0 1 0 0 0 1 0 0 0 0 0 3 0 0 0 0 0 0 0 0 0 0 0 0 0 0 0 0 0 0 0
12 5 5 10 9 3 5 13 1 6 2 0 0 0 0 0 1 1 0 0 1 2 0 0 0 0 0 0 0 0 0 0 0 0 0 0 0 0 0 0 0 0 0 0 0 0 0
12 3 3 3 1 5 7 5 0 6 3 0 0 0 0 0 0 0 0 0 1 0 0 0 0 0 0 2 0 0 0 0 0 0 0 0 0 0 0 0 0 0 0 0 0 0 0
14 3 2 2 5 6 15 8 0 1 7 0 0 0 0 0 0 0 0 0 8 0 0 0 0 0 0 0 0 0 0 0 0 0 0 0 0 0 0 0 0 0 0 0 0 0 0
20 4 2 0 0 1 4 4 0 0 0 0 0 0 0 0 0 0 0 0 6 1 0 0 0 0 0 0 0 0 0 0 0 0 0 0 0 0 0 0 0 0 0 0 0 0 0
21 10 2 1 0 0 0 0 0 0 0 0 0 1 0 0 0 0 0 0 0 0 0 0 0 0 1 6 0 0 0 0 0 0 0 0 0 0 0 0 0 0 0 0 0 0 0
3 23 5 2 1 0 0 0 0 0 0 0 0 0 0 0 0 0 0 0 0 0 1 0 0 0 0 1 0 0 0 0 0 0 0 0 0 0 0 0 0 0 0 0 0 0 0
0 23 4 4 2 0 0 1 0 0 0 0 0 0 1 0 0 0 0 0 0 0 0 0 1 0 0 0 0 0 0 0 0 0 0 0 0 0 0 0 0 0 0 0 0 0 0
0 16 5 11 2 0 1 0 3 0 0 0 0 1 0 0 0 0 0 0 0 0 0 0 0 0 1 0 0 0 0 0 0 0 0 0 0 0 0 0 0 0 0 0 0 0 0
0 3 4 8 10 1 0 3 1 1 1 0 0 0 0 0 0 0 0 0 0 0 0 0 0 0 0 0 0 0 1 1 1 0 0 1 0 0 0 0 0 0 0 0 0 0 0
0 0 17 1 11 10 4 4 3 2 0 0 0 0 0 1 0 0 0 0 0 0 0 0 0 0 0 0 0 0 0 0 0 5 2 0 5 2 0 0 0 0 0 0 0 0 0
0 0 14 0 5 8 10 7 4 1 2 0 0 0 1 4 0 0 2 0 0 0 0 1 2 0 0 0 0 0 0 0 0 0 1 3 2 0 0 0 0 0 0 0 0 0 0
0 0 12 2 0 4 9 5 17 14 6 0 0 0 0 1 0 0 0 11 3 1 1 0 0 0 0 0 0 0 0 0 0 1 0 0 0 0 0 2 0 0 0 0 0 0 0
0 3 6 13 2 4 7 10 9 18 5 9 0 0 3 2 0 0 0 0 0 0 5 0 0 0 2 0 0 0 0 0 0 0 0 0 0 0 0 0 0 0 0 0 0 0 0

GFSGBSN_con_mlcape_039.txt.gz
CAPE
8 24 18 15 5 9 30 28 39 32 32 29 31 29 41 57 77 79 113 81 43 8 11 16 22 29 11 1 0 0 0 34 47 51 16 0 0 0 0 0 0 0 0 0 0 0 0
12 15 15 17 6 29 32 33 34 34 30 31 35 25 39 61 97 113 133 88 61 16 27 33 26 10 7 1 0 0 0 75 43 43 12 8 0 0 0 0 0 0 0 0 0 0 0
36 17 26 12 13 27 23 26 38 26 30 31 27 27 24 67 131 121 122 105 84 84 51 39 16 7 8 0 0 0 0 166 184 80 0 1 0 0 0 0 0 0 0 0 0 0 0
26 25 18 16 14 27 31 33 27 28 29 29 32 40 48 76 122 137 124 113 70 50 71 50 29 14 7 0 0 0 70 110 118 99 62 38 40 12 0 0 0 0 0 0 0 0 0
19 15 15 12 32 33 36 31 24 29 32 26 36 50 55 85 86 124 76 88 144 134 105 66 23 9 1 0 0 0 0 42 49 69 76 34 26 19 0 1 0 0 0 0 0 0 0
23 19 17 17 31 31 30 30 29 30 36 36 35 37 20 11 58 42 73 136 110 61 52 48 22 8 2 0 0 0 0 0 45 96 72 41 27 8 6 7 0 0 0 0 0 0 0
21 22 15 14 39 34 23 18 23 19 40 39 20 21 15 19 70 139 102 0 0 8 13 0 0 0 0 0 0 0 0 0 63 76 85 27 18 1 0 0 0 0 0 0 0 0 0
13 13 10 30 47 43 22 32 7 16 34 19 18 15 22 45 77 72 41 1 0 5 1 0 3 1 0 1 2 0 0 3 32 27 9 11 14 1 5 3 1 4 1 0 0 0 0
14 10 24 19 49 47 36 30 12 17 25 29 30 18 21 47 73 6 2 0 7 2 2 0 0 0 0 5 3 1 0 16 17 37 9 6 0 8 0 5 5 4 1 0 0 0 0
17 9 15 25 34 37 31 8 20 23 33 56 111 112 75 76 18 2 0 8 10 1 0 0 0 1 2 4 3 0 0 22 14 8 6 1 0 1 8 5 1 0 0 0 0 0 0
7 12 13 33 20 32 18 14 22 20 29 21 12 65 75 70 11 3 15 13 0 1 0 0 1 2 9 3 0 6 4 1 3 0 0 0 0 0 0 0 0 0 0 0 0 0 0
9 10 21 13 15 29 19 18 13 14 19 8 7 31 14 0 6 7 5 10 0 0 0 0 5 1 13 2 12 25 6 0 0 0 0 0 0 0 0 0 0 0 0 0 0 0 0
7 7 9 17 21 28 15 11 12 11 18 7 0 16 1 0 0 0 0 0 0 0 0 0 0 3 2 12 21 9 0 10 15 0 0 0 0 0 0 0 0 0 0 0 0 0 0
10 2 6 14 15 12 6 6 7 9 3 3 0 0 3 0 0 0 0 0 0 0 0 0 5 7 3 21 11 1 3 0 0 0 0 0 0 0 0 0 0 0 0 0 0 0 0
8 4 7 9 10 3 4 10 6 11 1 0 0 0 1 0 0 0 0 0 0 0 0 8 3 1 1 1 9 2 0 0 0 0 0 0 0 0 0 0 0 0 0 0 0 0 0
5 3 4 5 13 7 8 6 6 11 1 0 0 0 0 1 0 0 0 0 0 0 2 0 0 0 0 0 0 0 0 0 0 0 0 0 0 0 0 0 0 0 0 0 0 0 0
8 2 3 2 13 5 5 3 2 6 2 0 0 0 0 0 0 0 0 0 1 0 0 0 0 0 0 0 0 0 0 0 0 0 0 0 0 0 0 0 0 0 0 0 0 0 0
3 4 1 0 3 2 0 0 0 4 3 0 0 0 0 0 0 0 0 0 0 0 0 0 0 0 0 0 0 0 0 0 0 0 0 0 0 0 0 0 0 0 0 0 0 0 0
4 3 0 1 1 3 0 0 0 0 3 0 0 0 0 0 0 0 0 0 0 0 0 0 0 0 0 0 0 0 0 0 0 0 0 0 0 0 0 0 0 0 0 0 0 0 0
3 6 0 2 0 2 1 0 0 0 0 0 0 0 0 0 0 0 0 0 2 0 0 0 0 0 0 0 0 0 0 0 0 0 0 0 0 0 0 0 0 0 0 0 0 0 0
1 8 0 1 2 0 2 0 0 0 0 0 0 0 1 0 0 0 0 0 0 0 0 0 0 0 0 0 0 0 0 0 0 1 0 0 0 0 0 0 0 0 0 0 0 0 0
0 5 1 0 2 2 2 1 0 0 0 0 0 0 1 0 0 0 0 0 0 0 0 0 0 0 0 2 0 0 0 0 0 0 0 0 0 0 0 0 0 0 0 0 0 0 0
0 0 5 0 0 2 2 1 0 0 0 0 0 0 0 0 0 0 0 0 0 0 0 3 1 0 2 0 0 0 0 0 0 0 0 0 0 0 0 0 0 0 0 0 0 0 0
0 0 10 0 0 2 2 3 2 0 0 0 1 1 0 0 0 0 0 0 0 0 0 0 0 0 1 0 0 0 0 0 0 0 0 0 0 0 0 0 0 0 0 0 0 0 0
0 0 14 0 0 2 1 2 1 2 0 0 0 0 0 0 0 0 0 0 0 0 0 0 0 0 0 0 0 0 0 1 0 0 0 0 0 0 0 0 0 0 0 0 0 0 0
2 2 4 1 1 12 5 2 3 3 1 0 0 0 0 0 0 0 0 0 0 0 0 0 0 0 0 0 0 0 0 0 0 0 0 0 0 1 0 0 0 0 0 0 0 0 0
4 2 3 8 0 1 11 10 3 7 3 0 0 0 0 1 0 0 0 0 0 0 0 0 0 0 0 0 0 0 0 0 0 0 0 0 2 0 0 0 0 0 0 0 0 0 0
1 3 3 2 3 0 4 13 12 12 4 0 0 2 0 0 0 0 0 0 1 1 4 0 0 0 0 0 0 0 0 0 0 0 0 0 0 0 0 0 0 0 0 0 0 0 0
5 4 3 1 30 3 3 8 14 19 19 3 0 0 0 2 0 0 0 0 0 0 5 3 0 0 0 0 0 0 0 0 0 0 0 0 0 0 0 0 0 0 0 0 0 0 0

GFSGBSN_con_mlcape_042.txt.gz
CAPE
13 26 17 31 22 30 31 37 37 45 51 45 48 34 41 19 29 37 68 108 93 102 66 14 17 15 35 2 0 0 26 89 0 0 17 23 5 1 0 0 0 0 0 0 0 0 0
31 11 21 26 23 24 25 47 48 48 54 34 47 36 34 30 34 63 133 187 131 135 83 32 37 28 3 0 0 0 0 30 0 126 49 32 9 0 0 0 0 0 0 0 0 0 0
13 18 23 31 28 31 31 40 43 51 47 40 39 49 49 56 82 106 153 152 130 102 95 96 38 28 7 0 0 0 0 38 56 253 87 25 8 0 0 0 0 0 0 0 0 0 0
14 20 20 18 19 26 33 36 33 37 42 56 47 47 48 54 88 128 149 116 83 93 82 59 40 26 1 0 0 0 0 120 100 172 91 32 12 8 0 0 0 0 0 0 0 0 0
8 11 12 19 25 32 21 25 28 24 9 19 47 46 18 22 12 89 62 47 114 134 72 133 8 2 8 0 0 1 0 175 127 99 89 36 49 32 5 0 0 0 0 0 0 0 0
12 14 6 27 25 35 24 28 36 12 12 27 38 5 3 21 34 71 113 134 99 28 47 73 4 2 5 0 0 0 0 98 79 99 44 19 27 7 8 4 0 0 0 0 0 0 0
12 12 10 30 31 26 26 36 0 4 28 28 24 25 7 12 74 130 88 0 0 0 18 0 0 7 19 0 0 0 0 44 77 65 25 7 22 0 2 7 0 0 0 0 0 0 0
9 10 15 16 41 26 38 7 6 24 22 31 69 116 71 25 48 113 13 0 0 0 0 4 0 0 0 2 0 1 0 25 33 10 9 6 7 1 0 0 1 0 0 0 0 0 0
6 9 15 21 17 10 37 16 22 29 26 72 60 75 120 112 73 8 5 1 3 1 2 0 0 3 0 3 1 3 0 37 19 40 21 2 4 15 2 3 4 9 0 0 0 0 0
6 6 8 11 19 16 29 8 13 23 24 43 71 112 40 48 4 3 1 5 9 0 0 0 1 5 0 7 1 0 0 31 30 26 21 2 11 1 4 3 10 0 0 0 0 0 0
4 7 12 11 20 19 22 7 21 16 18 20 47 93 24 4 4 1 6 0 0 0 0 0 1 4 16 0 0 5 0 1 17 8 0 0 18 5 3 1 0 0 0 0 0 0 0
5 10 12 12 10 12 8 11 12 18 15 12 1 16 3 0 0 3 9 0 0 0 0 0 3 2 3 9 25 10 12 0 0 0 0 0 0 1 0 0 0 0 0 0 0 0 0
2 5 9 7 8 7 11 7 3 22 7 12 0 2 0 0 0 0 0 0 0 0 0 0 0 3 1 11 2 8 1 3 1 0 0 1 0 0 0 0 0 0 0 0 0 0 0
2 10 8 4 10 4 9 8 6 14 1 0 0 0 0 0 0 0 0 0 0 1 0 1 1 5 13 12 13 1 3 1 0 0 0 0 0 0 0 0 0 0 0 0 0 0 0
1 7 8 4 6 2 2 3 4 9 6 0 0 0 0 0 1 1 0 0 0 0 0 1 1 2 2 7 1 2 0 0 0 0 0 0 0 0 0 0 0 0 0 0 0 0 0
1 5 7 3 5 1 0 1 3 5 3 0 0 0 0 0 0 0 0 0 2 0 0 0 0 0 1 0 0 0 0 0 0 0 0 0 0 0 0 0 0 0 0 0 0 0 0
3 4 3 7 4 3 0 0 0 0 0 0 0 0 0 0 0 0 0 0 0 0 0 0 0 0 0 0 0 0 0 0 0 0 0 0 0 0 0 0 0 0 0 0 0 0 0
2 6 4 4 3 3 0 0 0 2 2 0 0 0 0 0 0 0 0 0 0 0 0 0 0 0 0 0 0 0 0 0 0 0 0 0 0 0 0 0 0 0 0 0 0 0 0
1 8 4 2 4 2 0 0 0 0 3 0 0 0 0 0 0 0 0 0 0 0 0 0 0 0 0 0 0 0 0 0 0 0 0 0 0 0 0 0 0 0 0 0 0 0 0
0 6 7 3 3 2 0 0 0 0 0 0 0 0 0 0 0 0 0 0 0 0 0 0 0 0 0 0 0 0 0 0 0 0 0 0 0 0 0 0 0 0 0 0 0 0 0
1 2 12 4 4 3 0 0 0 0 0 0 0 0 1 0 0 0 0 0 0 0 0 0 0 0 0 0 0 0 0 0 0 0 0 0 0 0 0 0 0 0 0 0 0 0 0
1 0 9 6 5 3 2 0 0 0 0 0 0 0 1 0 0 0 0 0 0 0 0 0 0 0 0 0 0 0 0 0 0 0 0 0 0 0 0 0 0 0 0 0 0 0 0
2 1 2 6 5 3 2 0 0 0 0 0 0 0 1 0 0 0 0 0 0 0 0 0 0 1 6 1 0 0 0 0 0 0 0 0 0 0 0 0 0 0 0 0 0 0 0
2 2 1 15 2 1 1 2 0 4 0 0 0 1 2 0 0 0 0 0 0 0 0 0 3 2 1 0 0 0 0 0 0 0 0 0 0 0 0 0 0 0 0 0 0 0 0
4 3 5 16 1 1 0 3 0 5 1 0 0 0 0 0 0 0 0 0 0 0 0 0 0 0 0 0 0 0 2 1 0 0 0 0 0 0 0 0 0 0 0 0 0 0 0
5 5 4 4 21 1 0 0 4 4 4 0 0 0 1 1 0 1 0 0 0 0 0 0 0 0 0 0 0 0 0 0 0 1 0 0 0 0 0 0 0 0 0 0 0 0 0
2 1 4 4 6 4 0 0 4 1 7 0 0 0 0 3 1 1 0 0 0 0 0 0 0 0 0 0 0 0 0 0 0 0 0 1 1 0 1 0 0 0 0 0 0 0 0
5 2 10 4 7 33 5 1 0 9 17 0 0 0 0 0 0 0 0 1 0 0 0 0 0 0 0 0 0 0 0 0 0 0 0 0 0 0 1 0 0 0 0 0 0 0 0
1 12 19 20 0 10 19 1 5 4 17 5 0 0 0 0 0 0 0 0 0 0 1 0 0 0 0 0 0 0 0 0 0 1 0 0 0 0 0 0 0 0 0 0 0 0 0

GFSGBSN_con_mlcape_045.txt.gz
CAPE
8 7 14 25 20 15 18 35 26 26 34 40 39 35 47 50 46 36 49 98 107 103 82 81 31 12 15 9 1 0 0 0 37 0 11 19 15 19 4 0 0 0 0 0 0 0 0
15 13 13 17 28 14 22 25 22 25 30 37 28 54 74 65 72 77 108 107 144 156 132 102 66 64 8 9 0 0 0 0 4 8 33 13 5 9 10 0 0 0 0 0 0 0 0
5 14 5 11 17 16 43 28 26 29 26 24 29 49 90 54 45 67 112 148 160 128 120 134 133 28 15 17 0 0 0 8 0 40 93 38 0 1 0 0 0 0 0 0 0 0 0
13 7 13 20 22 26 30 43 17 25 11 14 19 48 69 16 35 20 87 70 89 91 30 73 94 21 5 14 4 0 0 8 3 192 234 138 1 1 0 0 0 0 0 0 0 0 0
8 11 7 18 17 35 33 46 20 2 19 32 64 88 34 1 16 36 71 83 112 178 64 48 16 14 5 47 23 1 0 9 25 124 170 105 59 31 3 0 0 0 0 0 0 0 0
10 2 9 25 32 29 21 48 19 17 27 24 85 140 126 75 3 72 143 171 140 16 69 73 9 3 6 7 5 0 0 1 104 125 80 71 42 13 7 0 0 0 0 0 0 0 0
11 11 5 24 24 16 23 40 18 18 23 32 68 101 104 111 22 62 55 0 0 0 2 0 0 0 18 18 0 0 0 92 22 68 35 36 0 0 1 0 0 0 0 0 0 0 0
8 10 4 6 17 14 23 26 7 29 11 38 60 93 97 73 41 37 4 0 0 0 0 3 0 0 0 0 8 1 0 54 86 16 32 18 1 0 0 5 0 0 0 0 0 0 0
4 6 12 12 15 7 23 10 14 21 23 23 59 69 40 4 30 4 0 1 4 0 0 0 0 2 0 4 1 3 0 17 14 0 0 13 2 3 0 16 3 1 0 0 0 0 0
6 7 8 8 11 9 12 5 17 18 25 17 18 52 30 11 0 0 0 17 6 0 0 0 2 2 0 5 5 0 0 3 6 2 0 2 10 9 4 0 5 1 0 0 0 0 0
6 7 6 7 4 8 8 14 7 18 17 6 1 5 0 0 11 6 8 0 0 0 0 0 3 0 21 4 1 8 8 10 2 0 4 0 5 5 2 0 5 0 0 0 0 0 0
6 6 5 7 5 3 10 3 5 17 6 0 0 0 0 0 0 0 0 0 0 0 0 0 3 6 7 2 14 10 12 0 0 3 0 0 0 2 0 0 0 0 0 0 0 0 0
4 3 7 5 5 3 4 8 3 11 1 4 0 0 0 0 0 0 0 0 0 0 0 0 0 2 1 2 4 5 3 6 3 3 0 0 0 0 0 0 0 0 0 0 0 0 0
2 1 5 5 4 4 2 8 7 6 6 2 0 0 0 0 0 1 0 0 0 0 0 1 4 9 6 3 5 2 3 0 0 0 0 0 0 0 0 0 0 0 0 0 0 0 0
1 5 5 4 5 2 3 3 5 1 2 1 0 0 0 0 0 0 1 0 0 0 0 2 0 0 1 1 3 1 0 0 0 0 0 0 0 0 0 0 0 0 0 0 0 0 0
1 4 5 4 4 2 1 1 2 3 2 0 0 0 0 0 0 0 0 1 4 0 0 0 0 0 0 1 0 0 0 0 0 0 0 0 0 0 0 0 0 0 0 0 0 0 0
0 3 6 4 2 3 1 0 0 3 1 0 0 0 0 0 0 0 0 0 0 0 0 0 0 0 0 1 0 0 0 0 0 0 0 0 0 0 0 0 0 0 0 0 0 0 0
1 3 1 5 2 4 2 0 0 0 0 0 0 0 0 0 0 0 0 0 0 0 0 0 0 0 0 0 0 0 0 0 0 0 0 0 0 0 0 0 0 0 0 0 0 0 0
1 2 4 4 3 4 3 0 0 0 2 0 0 0 0 0 0 0 0 0 0 0 0 0 0 0 0 0 0 0 0 0 0 0 0 0 0 0 0 0 0 0 0 0 0 0 0
1 3 4 4 2 5 4 1 0 0 0 0 0 0 0 0 0 0 0 0 0 0 0 0 0 0 0 0 0 0 0 0 0 0 0 0 0 0 0 0 0 0 0 0 0 0 0
1 3 0 14 4 4 4 2 0 0 0 0 0 0 0 0 0 0 0 0 0 0 0 0 0 0 0 0 0 0 0 0 0 0 0 0 0 0 0 0 0 0 0 0 0 0 0
1 3 1 13 1 4 3 3 0 0 0 0 0 0 0 0 0 0 0 0 0 0 0 0 0 0 0 0 0 0 0 0 0 0 0 0 0 0 0 0 0 0 0 0 0 0 0
1 2 3 2 3 2 0 3 1 0 0 0 0 0 0 0 0 0 0 0 0 0 0 0 0 0 0 0 0 0 0 0 0 0 0 0 0 0 0 0 0 0 0 0 0 0 0
1 2 2 2 15 1 0 1 1 4 0 0 0 1 2 0 0 0 0 0 0 0 0 0 1 3 0 0 0 0 0 0 0 0 0 0 0 0 0 0 0 0 0 0 0 0 0
1 2 2 2 17 12 1 0 2 4 0 0 0 0 1 0 0 0 0 0 0 0 0 0 0 0 0 0 0 0 0 0 0 0 0 0 0 0 0 0 0 0 0 0 0 0 0
3 2 1 2 2 26 1 0 0 3 3 0 0 0 1 1 0 0 0 0 0 0 0 0 0 0 0 0 0 0 0 0 0 0 0 0 0 0 0 0 0 0 0 0 0 0 0
1 2 3 4 5 8 25 4 0 0 6 0 0 0 0 0 0 0 1 0 0 0 0 0 0 0 0 0 1 1 0 0 0 0 1 1 0 0 0 0 0 0 0 0 0 0 0
6 8 13 19 14 6 20 27 3 0 1 0 0 0 0 0 0 0 0 0 0 0 0 0 0 1 0 0 0 0 0 0 0 0 1 0 0 1 0 0 0 0 0 0 0 0 0
21 6 8 13 25 15 13 31 16 4 6 1 0 0 0 0 0 0 0 0 0 0 1 1 0 0 0 0 0 0 0 0 0 0 0 0 0 0 0 0 0 0 0 0 0 0 0

GFSGBSN_con_mlcape_048.txt.gz
CAPE
7 15 17 16 16 24 27 18 15 11 20 31 32 23 27 41 69 77 83 90 120 181 185 170 108 56 27 4 0 1 0 0 274 50 22 12 21 50 13 6 0 0 0 0 0 0 0
9 15 5 10 22 26 21 10 17 25 22 13 21 18 30 73 65 57 67 115 177 193 146 201 132 58 17 1 10 37 0 0 72 66 35 30 9 25 26 18 0 0 0 0 0 0 0
8 8 14 9 17 17 27 5 26 9 3 12 52 71 88 55 8 10 43 66 126 143 130 121 147 63 17 0 56 32 6 0 60 11 54 104 18 29 15 9 0 0 0 0 0 0 0
9 10 10 4 17 12 18 3 30 15 21 36 74 97 115 53 0 1 31 77 66 75 109 97 61 49 7 0 7 9 3 0 149 16 132 171 122 37 20 2 0 0 0 0 0 0 0
7 10 7 13 11 7 12 16 32 31 28 31 75 103 91 83 39 2 55 142 191 192 211 53 14 47 7 70 1 2 18 3 85 32 167 118 117 24 6 1 1 0 0 0 0 0 0
6 4 8 10 12 12 6 31 21 26 29 26 61 82 105 125 63 1 74 142 93 51 149 12 10 19 6 41 63 7 5 22 67 31 140 66 86 13 20 5 0 0 0 0 0 0 0
6 7 8 12 13 12 9 11 17 36 20 33 38 48 47 61 31 6 58 0 0 4 21 0 2 0 36 12 45 0 9 33 63 69 11 17 27 3 6 1 0 0 0 0 0 0 0
3 7 9 8 13 16 10 18 25 20 32 27 8 16 12 9 3 56 6 0 0 0 1 18 0 0 0 0 26 4 1 30 24 4 21 19 5 12 19 10 0 0 0 0 0 0 0
5 4 7 9 9 7 6 20 12 19 23 24 7 6 10 17 20 15 7 9 0 0 6 0 0 0 6 2 10 6 18 17 17 12 16 5 7 6 14 13 2 0 0 0 0 0 0
5 5 6 7 7 8 5 5 8 13 18 15 8 2 0 0 0 1 10 18 0 0 0 0 0 18 1 16 12 4 13 16 0 1 1 3 16 1 0 11 8 1 0 0 0 0 0
2 3 2 5 7 7 3 6 4 10 14 4 0 1 0 0 0 0 0 0 0 0 0 0 1 0 16 6 2 15 18 16 2 1 1 1 8 28 7 1 9 1 0 0 0 0 0
3 3 4 4 5 6 4 4 3 6 12 6 2 0 0 0 0 0 0 0 0 0 0 0 0 21 1 2 19 14 14 10 3 4 3 3 7 0 0 0 7 0 0 0 0 0 0
4 2 3 3 6 6 4 3 1 2 6 2 4 0 0 0 0 0 0 0 0 0 0 0 2 4 3 4 6 7 2 7 15 2 0 2 3 0 0 0 0 0 0 0 0 0 0
3 4 4 3 4 4 4 2 1 1 3 2 2 0 0 0 0 0 0 0 0 0 0 0 12 7 1 3 4 0 2 0 0 0 0 0 0 1 0 0 0 2 1 0 0 0 0
3 3 4 4 3 4 4 2 2 0 4 1 0 0 0 0 0 6 2 0 0 0 0 1 1 5 2 1 2 1 0 0 0 0 0 0 0 0 0 0 0 1 0 0 0 0 0
2 3 2 4 3 2 3 1 1 0 2 0 0 0 0 0 0 0 0 0 2 0 0 0 0 0 0 0 0 0 0 0 0 0 0 0 0 0 0 0 0 0 0 0 0 0 0
3 2 1 5 3 2 1 1 0 0 0 0 0 0 0 0 0 0 0 0 0 0 0 0 0 0 0 0 0 0 0 0 0 0 0 0 0 0 0 0 0 0 0 0 0 0 0
1 0 3 3 2 4 1 1 0 0 0 0 0 0 0 0 0 0 0 0 0 0 0 0 0 0 0 0 0 0 0 0 0 0 0 0 0 0 0 0 0 0 0 0 0 0 0
0 1 1 9 2 3 2 0 0 0 1 0 0 0 0 0 0 0 0 0 0 0 0 0 0 0 0 0 0 0 0 0 0 0 0 0 0 0 1 0 0 0 0 0 0 0 0
0 2 0 1 0 2 2 0 0 0 0 0 0 0 0 0 0 0 0 0 0 0 0 0 0 0 0 0 0 0 0 0 0 0 0 0 0 0 0 0 0 0 0 0 0 0 0
0 1 0 0 8 3 1 1 0 0 0 0 0 0 0 0 0 0 0 0 0 0 0 0 0 0 0 0 0 0 0 0 0 0 0 0 0 0 0 0 0 0 0 0 0 0 0
0 2 2 0 10 2 0 1 0 0 0 0 0 0 0 1 0 0 0 0 0 0 0 0 0 0 0 0 0 0 0 0 0 0 0 0 0 0 0 0 0 0 0 0 0 0 0
0 3 3 1 12 0 0 0 1 0 0 0 0 0 1 0 0 0 0 0 0 0 0 0 0 0 0 0 0 0 0 0 0 0 0 0 0 0 0 0 0 0 0 0 0 0 0
0 1 1 2 1 17 1 0 2 0 0 0 1 1 1 0 0 0 0 0 0 0 0 0 0 1 0 0 0 0 0 0 0 0 0 0 0 0 0 0 0 0 0 0 0 0 0
1 2 1 0 1 6 15 0 0 3 0 0 0 0 0 0 0 0 0 0 0 0 0 0 0 0 0 0 0 1 3 2 0 0 0 0 0 0 0 0 0 0 0 0 0 0 0
0 0 0 0 2 4 15 15 1 0 1 0 0 0 0 0 0 0 2 0 0 0 0 0 0 0 0 8 8 1 1 0 0 1 0 0 1 0 0 0 0 0 0 0 0 2 0
1 1 2 4 13 4 7 29 21 3 1 0 0 0 0 0 0 0 1 1 0 0 0 0 0 0 0 12 2 3 1 0 0 0 0 3 5 2 1 0 0 0 0 0 0 0 0
0 12 13 21 24 15 21 13 36 11 6 0 0 0 0 0 0 0 0 0 0 2 0 0 0 1 0 13 3 0 1 0 0 0 0 0 0 1 2 1 0 0 0 0 0 0 0
0 17 21 12 3 9 19 15 19 11 12 5 4 0 0 0 0 0 0 0 0 0 0 0 1 0 0 1 0 0 0 0 3 2 0 0 0 0 0 0 0 0 1 2 0 0 0

GFSGBSN_con_mlcape_051.txt.gz
CAPE
5 9 15 12 21 27 23 17 17 27 12 4 8 34 84 68 81 73 61 77 78 130 169 230 199 41 21 15 0 74 191 367 344 131 25 16 13 17 11 0 0 0 0 0 0 0 0
5 8 10 9 20 19 24 19 12 25 6 13 32 52 121 139 96 71 35 58 57 124 140 170 197 18 30 9 1 0 9 89 281 137 7 36 5 20 20 17 0 0 1 0 0 0 0
4 9 12 6 14 17 28 17 33 18 5 28 43 63 98 103 19 33 20 15 58 102 126 117 124 46 44 2 54 113 52 22 81 150 6 18 17 62 44 21 11 0 1 0 0 0 0
6 7 8 9 13 11 14 17 15 18 18 39 39 50 72 93 90 32 7 34 91 53 12 100 124 47 25 1 0 21 70 16 72 235 9 54 82 78 41 22 16 4 3 0 0 0 0
3 4 7 8 13 16 14 7 14 31 22 38 34 28 37 51 106 61 9 79 169 168 192 27 7 48 18 9 16 1 83 3 241 198 18 179 220 84 30 23 22 20 0 0 0 0 0
3 6 7 10 10 8 5 20 26 30 22 31 29 27 20 45 56 50 12 34 51 78 131 10 7 25 1 25 65 78 124 7 255 112 155 138 55 28 21 24 1 0 0 0 0 0 0
2 2 6 11 7 8 5 9 19 19 22 27 32 28 2 38 19 5 54 50 101 48 49 13 13 7 6 24 71 18 6 22 140 13 6 66 15 1 0 0 0 0 0 0 0 0 0
1 2 5 6 7 6 4 6 9 18 13 21 35 30 22 37 40 0 40 9 5 11 13 10 2 0 1 0 16 25 25 97 12 11 14 27 8 13 12 12 4 0 0 0 0 0 0
1 2 5 8 7 4 3 6 4 14 7 19 11 12 3 2 0 9 4 4 0 0 26 22 6 7 0 0 14 15 5 12 6 13 14 4 0 15 27 4 15 1 0 0 0 0 0
1 3 4 7 8 6 3 5 4 7 9 13 6 13 0 0 3 15 3 5 1 0 7 7 5 0 4 7 10 7 7 6 6 24 26 11 13 11 19 10 11 7 0 1 0 0 0
2 2 3 6 4 6 2 3 10 2 4 13 4 7 0 0 0 0 0 1 0 2 1 0 2 1 11 9 4 1 0 0 0 0 0 0 4 9 13 16 13 23 0 0 0 0 0
2 1 3 4 8 5 2 1 4 12 5 5 6 1 0 3 0 0 0 0 0 0 0 0 2 14 2 9 13 9 17 12 4 0 0 2 1 0 17 0 15 0 0 0 0 0 0
2 2 2 3 5 5 2 0 0 4 7 3 2 0 0 0 1 0 2 4 0 0 0 1 11 10 2 5 7 5 2 0 0 0 0 0 1 2 0 0 0 0 11 7 2 0 0
1 1 0 4 3 4 4 2 0 0 5 3 0 0 0 0 0 5 5 1 0 1 1 0 3 4 4 4 3 0 10 9 11 14 1 0 0 0 1 0 0 3 19 25 1 0 0
0 1 1 1 1 4 5 1 0 0 4 2 0 0 0 1 2 7 1 0 0 0 0 3 4 1 4 2 0 0 0 6 1 6 2 0 0 2 0 1 0 0 0 0 0 0 0
0 0 1 2 1 2 3 1 0 0 0 2 0 0 0 0 2 1 0 2 2 0 1 1 1 0 1 4 5 3 1 0 0 0 0 0 0 0 0 0 0 1 0 0 0 0 0
1 0 0 3 3 1 1 1 0 0 0 0 0 0 0 0 0 1 0 0 4 1 0 0 1 2 1 2 3 1 0 0 0 0 0 0 0 1 0 0 1 0 0 0 0 0 0
1 0 0 2 1 0 0 1 0 0 0 0 0 0 0 0 4 2 0 2 0 0 0 0 0 0 9 4 2 2 2 1 0 0 0 0 0 0 0 0 0 0 0 0 0 0 0
0 0 0 0 4 0 0 0 0 0 0 2 0 0 0 0 4 0 0 0 0 0 0 0 0 0 0 0 0 0 0 0 0 0 0 0 0 0 0 0 0 0 0 0 0 0 0
0 0 0 0 4 0 0 0 0 0 0 0 0 0 0 0 0 0 0 0 0 0 0 0 0 0 0 0 0 0 0 0 0 0 0 0 0 0 0 0 0 0 0 0 0 0 0
0 0 0 0 1 0 0 0 0 0 0 0 0 0 0 1 1 0 0 0 0 0 0 0 0 0 0 0 0 0 0 0 0 0 0 0 0 0 0 0 0 0 0 0 0 0 0
0 1 1 1 3 0 0 0 0 0 0 0 0 1 0 0 0 0 0 0 0 0 0 0 0 0 0 0 0 0 0 0 0 0 0 0 0 0 0 0 0 0 0 0 0 0 0
0 1 2 1 0 7 0 0 0 0 0 0 0 10 5 0 0 0 1 0 0 0 0 0 0 0 0 0 0 0 0 0 0 0 0 0 0 0 0 0 0 0 0 0 0 0 0
0 0 1 0 0 0 2 0 0 0 0 0 2 2 3 0 0 0 0 0 0 0 0 0 0 2 0 0 0 0 0 0 0 0 0 1 0 0 0 0 0 0 0 0 0 0 0
0 0 0 0 0 0 0 8 0 0 0 0 0 2 2 0 0 0 0 0 0 0 0 0 0 0 0 0 6 4 8 4 4 0 0 1 4 2 1 0 0 0 0 0 0 0 0
0 0 0 0 1 9 5 4 19 7 0 1 0 0 2 0 0 0 1 1 1 2 4 0 0 0 0 12 7 1 0 2 0 4 0 0 2 2 0 0 0 0 0 0 0 0 0
0 0 0 2 6 16 24 7 8 10 1 0 2 0 1 0 0 0 0 2 1 2 0 12 5 1 0 12 9 8 4 2 3 2 1 5 6 2 0 0 0 0 0 0 1 0 0
0 0 2 3 9 11 6 12 6 13 1 4 5 0 0 0 0 0 0 0 0 0 3 0 6 7 14 12 8 6 1 4 5 4 1 0 1 1 3 1 0 0 0 1 2 0 0
0 0 9 3 2 4 0 3 3 8 2 5 6 0 2 6 0 0 0 0 0 0 0 0 2 1 27 21 10 8 4 8 2 2 0 0 0 0 0 0 0 0 2 11 1 0 0

GFSGBSN_con_mlcape_054.txt.gz
CAPE
7 4 12 10 10 6 8 21 10 30 0 12 23 32 57 86 143 130 53 29 46 17 83 131 183 155 24 16 0 0 78 6 211 215 18 30 0 4 3 0 0 0 0 0 0 0 0
5 7 10 8 15 11 21 17 26 5 5 16 15 25 45 65 125 76 46 4 33 29 87 89 96 68 46 8 1 1 11 131 202 107 31 24 0 0 13 12 0 0 0 0 1 0 0
5 8 6 3 7 11 9 13 24 8 20 11 22 36 29 50 115 67 10 19 26 42 70 133 121 49 35 0 17 216 5 34 144 200 75 4 0 70 57 63 5 2 6 1 0 0 0
7 6 5 9 5 7 9 11 28 15 12 18 20 28 20 59 82 52 17 40 63 121 117 112 143 36 4 3 0 20 41 0 24 177 109 21 9 26 78 60 28 11 6 0 0 0 0
4 7 4 5 7 6 12 10 14 13 14 10 22 24 8 33 46 31 13 42 140 179 210 75 32 71 14 37 0 0 6 28 75 121 159 42 93 28 45 16 26 15 0 0 0 0 0
5 9 4 6 8 9 15 6 12 15 16 11 15 25 20 21 10 52 0 39 67 71 137 36 20 8 0 26 4 0 6 47 123 70 53 48 29 15 12 23 0 0 0 0 0 0 0
3 5 4 6 5 9 11 12 11 13 15 14 11 26 19 20 12 0 69 83 52 30 45 0 5 4 3 0 28 0 0 34 203 95 21 32 0 0 0 0 0 0 0 0 0 0 0
3 3 5 4 5 8 9 8 7 10 7 16 16 8 30 1 1 20 14 0 0 0 9 5 11 0 0 0 30 31 54 37 128 23 1 3 1 0 7 11 8 0 0 0 1 0 0
2 1 3 4 3 6 6 11 12 5 2 10 13 1 16 0 0 7 1 3 1 1 4 1 2 11 0 0 3 6 43 30 4 1 1 3 3 0 7 9 6 1 0 0 0 0 0
0 1 2 3 5 3 3 8 12 4 5 4 9 2 0 0 0 0 0 0 1 0 0 0 2 3 9 1 1 9 11 7 11 0 21 15 0 0 10 12 11 3 0 0 1 0 0
0 1 2 3 4 4 4 8 7 7 2 5 6 1 0 0 1 0 0 0 0 0 0 0 0 4 6 6 6 1 0 8 7 13 4 0 0 1 9 6 11 18 0 0 2 0 0
1 0 1 2 3 4 3 5 7 6 1 2 3 3 0 0 2 0 0 0 0 0 0 0 1 4 1 13 3 0 0 2 7 0 0 0 0 1 4 1 6 13 0 0 0 0 0
1 0 1 1 4 4 4 1 3 2 1 0 3 1 0 0 5 0 1 0 0 0 0 0 1 0 2 1 1 1 4 17 3 1 0 0 0 0 0 0 2 6 0 0 0 0 0
0 0 0 1 3 5 3 0 2 1 0 0 0 0 0 0 1 2 0 1 0 2 1 0 1 3 1 0 3 3 2 3 0 0 0 0 0 0 0 0 0 0 0 0 0 0 0
0 1 0 0 2 2 1 0 1 0 0 0 0 0 0 0 0 0 2 0 0 0 0 5 1 1 0 0 0 0 5 0 0 0 0 0 0 3 1 0 0 0 0 0 0 0 0
0 0 0 0 1 2 1 0 0 0 0 0 0 0 0 0 0 0 0 0 1 0 3 0 1 0 0 0 0 0 4 0 0 0 0 0 0 1 0 0 0 0 0 0 0 0 0
0 0 0 0 1 0 0 0 0 0 0 0 0 0 0 0 0 1 0 0 0 0 0 0 0 2 0 0 3 3 3 0 0 0 0 0 0 1 1 0 0 0 0 0 0 0 0
0 0 0 0 1 0 0 0 0 0 0 0 0 0 0 0 1 2 0 0 0 0 0 0 0 0 2 0 0 0 5 0 0 0 0 0 0 0 0 0 0 0 0 0 0 0 0
0 0 1 0 0 0 0 0 0 0 0 0 0 0 0 0 4 0 0 0 0 0 0 0 0 0 0 0 0 0 0 0 0 0 0 0 0 0 0 0 0 0 0 0 0 0 0
0 0 0 0 0 2 0 0 0 0 0 0 0 0 0 0 0 0 1 0 0 0 0 0 0 0 0 0 0 0 0 0 0 0 0 0 0 0 0 0 0 0 0 0 0 0 0
0 0 0 0 0 2 0 0 0 0 0 0 0 0 0 0 0 0 0 0 0 0 0 0 0 0 0 0 0 0 0 0 0 0 0 0 0 0 0 0 0 0 0 0 0 0 0
0 0 0 0 0 0 2 0 0 0 0 0 0 0 0 0 0 0 0 7 0 0 0 0 0 0 0 0 0 0 0 0 0 0 0 0 0 0 0 0 0 0 0 0 0 0 0
0 0 0 0 0 0 1 1 0 0 0 0 0 1 4 0 0 0 0 0 6 0 0 0 0 0 0 0 0 0 0 0 0 0 0 0 0 0 0 0 0 0 0 0 0 0 0
0 0 0 0 0 0 0 1 2 0 0 0 0 1 1 0 0 0 0 0 0 1 0 0 0 0 0 0 0 0 0 0 0 0 0 0 0 0 0 0 0 0 0 0 0 0 0
0 0 0 0 0 1 1 0 3 1 0 0 0 0 1 0 0 0 0 0 0 0 0 1 0 0 0 0 1 0 2 1 2 0 0 0 0 0 0 0 0 0 0 0 0 0 0
0 0 0 0 0 2 3 0 0 8 0 0 0 0 0 0 0 0 0 0 0 0 8 6 0 0 0 6 3 1 0 1 0 1 0 0 0 0 1 0 0 0 0 0 0 0 0
0 0 0 0 1 0 0 0 1 5 0 0 0 0 0 0 0 0 0 0 0 1 0 1 5 0 1 0 2 0 1 1 0 1 0 3 3 1 0 0 0 0 0 0 0 0 0
0 0 0 10 1 0 0 0 1 2 6 0 2 1 0 0 0 0 0 0 0 0 0 0 5 4 8 0 1 4 0 1 0 2 0 0 0 0 1 1 0 0 0 0 0 0 0
0 0 0 8 4 0 0 0 12 9 10 5 2 4 1 1 0 0 0 0 0 0 0 0 1 2 8 11 2 7 1 2 0 4 0 0 0 0 0 0 0 0 0 1 0 0 0

GFSGBSN_con_mlcape_057.txt.gz
CAPE
5 5 8 7 6 7 9 19 23 21 25 19 28 33 36 40 47 90 82 38 49 94 14 59 120 84 7 1 0 0 0 2 4 110 20 24 0 19 0 35 25 1 0 4 2 0 0
4 6 7 8 12 14 13 10 15 32 24 18 34 22 12 12 44 101 34 26 29 77 96 62 78 65 3 0 2 2 0 11 35 37 42 28 0 0 27 28 3 0 0 1 7 1 0
5 4 6 6 11 10 10 8 14 18 23 30 22 24 1 18 37 90 46 15 72 123 47 75 119 49 4 0 19 0 42 3 55 38 82 10 0 1 36 19 0 0 23 10 0 0 0
3 4 5 2 2 11 11 4 2 18 22 28 16 19 1 20 6 23 20 46 104 171 201 154 129 58 0 0 1 0 16 5 12 15 49 59 7 7 50 7 6 15 14 14 0 0 0
3 3 4 5 8 10 6 4 5 16 21 22 21 14 0 15 0 19 0 16 141 171 189 185 20 27 2 72 0 0 0 0 11 30 72 91 30 13 28 18 17 36 0 0 0 0 0
3 1 3 4 6 8 7 3 5 3 15 15 23 7 3 2 0 0 13 45 18 73 70 66 37 4 1 15 5 0 0 0 23 105 49 86 37 23 10 2 0 0 0 0 0 0 0
2 2 3 4 4 6 4 3 2 8 7 9 13 4 5 0 2 0 0 0 0 0 8 0 2 4 0 4 62 9 0 8 38 62 5 22 3 0 0 0 0 0 0 0 0 0 0
1 2 3 3 4 5 6 5 3 6 9 3 8 3 7 0 0 0 0 0 2 1 0 4 7 0 0 13 5 0 0 12 21 4 6 15 3 0 0 0 0 0 0 0 0 0 0
1 1 2 5 4 4 6 1 6 5 7 6 1 2 3 1 0 0 0 0 1 0 0 0 0 0 0 0 2 3 11 4 1 4 4 3 0 0 0 3 0 0 0 0 0 0 0
0 1 2 3 4 5 5 9 4 3 4 5 3 2 1 0 0 0 0 0 0 0 0 0 2 1 2 0 4 11 23 2 20 4 9 13 0 0 0 0 0 0 0 0 0 0 0
0 1 1 2 4 2 1 3 5 3 2 3 5 1 0 2 0 0 0 0 0 0 0 0 0 4 0 0 5 0 11 11 5 0 0 5 3 0 0 0 1 0 0 0 0 1 2
0 0 0 2 2 3 1 2 5 4 1 2 5 0 0 0 0 0 0 0 0 0 0 0 2 0 0 0 15 0 1 2 0 0 0 0 0 5 0 6 18 1 6 18 2 0 0
0 0 0 1 3 3 1 0 2 2 0 0 1 2 0 0 0 0 0 0 0 0 0 0 1 6 1 2 2 7 10 0 0 0 0 0 0 0 0 1 3 1 4 2 2 0 0
0 0 0 0 3 3 1 0 0 2 0 0 0 0 0 0 0 0 0 0 0 0 0 0 1 0 0 2 1 1 3 0 0 0 0 0 0 1 0 2 1 1 0 0 0 0 0
0 0 0 0 1 1 1 1 0 1 0 0 0 0 0 0 0 0 0 0 0 0 0 0 0 5 0 0 0 5 4 1 0 0 0 0 0 1 0 1 0 0 0 0 0 0 0
0 0 0 0 0 1 1 1 0 0 0 0 0 0 0 0 0 0 0 0 0 0 0 0 0 1 0 1 0 7 4 0 0 0 0 0 0 1 1 0 0 0 0 0 1 0 0
0 0 0 0 0 1 0 0 0 0 0 0 0 0 0 0 0 0 0 0 0 0 0 0 0 1 0 1 1 4 2 0 0 0 0 0 0 2 0 1 0 0 0 0 0 0 0
0 0 0 0 0 1 0 0 0 0 0 0 0 0 0 0 0 1 0 0 0 0 0 0 0 1 0 1 0 0 0 0 0 0 1 0 0 0 0 0 0 0 0 0 0 0 0
0 0 0 0 1 1 1 0 0 0 0 0 0 0 0 0 0 0 0 0 0 0 0 0 0 0 0 0 0 0 0 0 0 0 0 0 0 0 0 0 0 0 0 0 0 0 0
0 0 0 0 0 1 0 0 0 0 0 0 0 0 0 0 0 0 0 0 0 0 0 0 0 0 0 0 0 0 0 0 0 0 0 0 0 0 0 0 0 0 0 0 0 0 0
0 0 0 0 0 0 0 0 0 0 0 0 0 0 0 0 0 0 0 1 0 2 0 0 0 0 0 0 0 0 0 0 0 0 0 0 0 0 0 0 0 0 0 0 0 0 0
0 0 0 0 0 0 0 1 0 0 0 0 0 0 0 0 0 0 0 0 2 2 0 0 0 0 0 0 0 0 0 0 0 0 0 0 0 0 0 0 0 0 0 0 0 0 0
0 0 0 0 0 1 0 0 0 0 0 0 0 0 0 0 0 0 0 0 0 0 1 0 0 0 0 0 0 0 0 0 0 0 0 0 0 0 0 0 0 0 0 0 0 0 0
0 0 0 0 0 0 2 0 0 0 0 0 0 0 0 0 0 0 0 0 0 0 0 0 0 1 0 0 0 0 0 0 0 0 0 0 0 0 0 0 0 0 0 0 0 0 0
0 0 0 0 0 0 0 0 1 0 0 0 0 0 0 0 0 0 0 0 0 0 0 0 0 0 0 0 0 0 0 0 0 0 0 0 0 0 0 0 0 0 0 0 0 0 0
0 0 0 0 0 0 0 0 0 1 0 0 0 0 0 0 0 0 0 0 0 0 4 8 2 0 0 2 5 0 0 0 0 1 0 0 1 0 0 0 0 0 0 0 0 0 0
0 0 0 0 0 0 0 0 2 0 0 0 0 0 0 0 0 0 0 0 0 0 0 0 1 0 0 0 0 0 0 0 0 0 0 2 1 0 0 0 0 0 0 0 0 0 0
0 0 1 0 0 1 0 0 6 5 0 0 0 2 0 0 0 0 0 0 0 0 0 0 0 2 3 0 0 0 0 0 0 0 0 0 0 0 1 0 0 0 0 0 0 0 0
0 0 0 0 0 0 0 0 4 18 0 5 0 1 0 0 0 0 0 0 0 0 0 0 0 0 1 2 0 0 0 0 0 0 0 0 0 0 0 0 0 0 0 0 0 0 0

GFSGBSN_con_mlcape_060.txt.gz
CAPE
2 7 8 4 9 10 13 11 13 16 18 29 32 30 11 29 30 98 100 74 46 80 20 29 61 104 0 0 0 0 2 0 39 5 71 0 0 0 4 44 84 2 0 0 4 0 2
3 5 7 3 2 8 10 14 11 22 17 29 40 25 8 13 9 70 26 39 85 139 104 49 52 62 0 0 0 0 0 0 35 3 46 43 0 36 29 25 78 13 0 18 3 6 39
3 2 7 7 8 7 12 11 2 11 19 23 41 19 4 8 4 13 2 51 106 147 67 48 126 12 0 0 0 0 7 6 2 9 57 35 0 30 1 59 36 0 19 11 0 0 0
1 1 3 4 5 4 9 7 7 10 10 12 36 15 8 1 5 0 0 12 84 163 193 225 145 48 0 0 0 0 0 8 37 67 65 75 6 29 30 0 28 5 25 4 0 0 0
1 1 1 5 4 2 8 7 7 8 4 12 19 15 10 0 1 0 0 2 63 62 113 182 13 11 0 20 19 1 0 2 24 11 0 114 29 23 25 7 1 13 0 0 0 0 0
1 0 1 4 3 5 6 6 6 9 8 2 9 11 2 7 0 0 22 0 0 6 31 61 36 2 11 12 0 10 15 0 0 9 2 119 41 12 9 11 0 0 0 0 0 0 0
1 0 0 3 4 5 7 3 2 8 7 7 4 5 4 6 0 0 0 0 0 0 0 0 2 0 0 3 35 21 0 1 1 30 6 19 7 0 0 0 0 0 0 0 0 0 0
1 1 0 1 5 4 7 1 3 9 13 9 6 3 3 3 0 0 0 0 0 0 0 0 1 9 8 0 9 0 0 0 15 8 9 15 10 0 0 0 0 0 0 0 0 0 0
1 1 0 2 3 2 2 6 6 4 9 6 5 0 3 2 0 0 0 0 0 0 0 1 3 0 0 0 2 0 0 0 7 2 2 1 1 1 8 0 0 0 0 0 0 0 0
0 0 0 1 2 3 2 4 5 7 11 6 6 4 0 3 0 0 0 0 0 0 0 0 1 10 2 0 7 0 13 15 0 5 2 5 0 0 7 2 3 0 0 0 0 0 0
0 0 0 2 3 3 1 3 4 6 8 3 5 1 2 4 0 0 0 0 0 0 0 0 0 0 0 0 3 13 8 20 4 2 0 2 1 0 0 3 0 0 0 0 0 0 0
0 0 0 1 3 2 1 0 5 2 3 0 1 0 0 0 0 0 0 0 0 0 0 0 0 0 0 0 0 0 1 16 0 0 0 0 0 3 4 7 14 0 0 0 0 0 0
0 0 0 1 4 3 0 0 1 2 2 0 0 0 0 0 0 0 0 0 0 0 0 0 6 0 0 0 0 0 2 1 0 0 0 0 0 0 0 13 11 7 8 7 9 6 0
0 0 0 1 2 2 0 0 1 2 0 0 0 0 0 0 0 0 0 0 0 0 0 0 1 2 1 0 1 2 2 0 0 0 0 0 4 0 0 0 0 8 0 0 0 0 0
0 0 0 0 1 1 0 0 1 0 0 0 0 0 0 0 0 0 0 0 0 0 0 0 0 1 1 2 0 3 0 0 0 0 0 0 0 0 0 0 0 0 5 0 0 0 0
0 0 0 0 0 1 0 0 0 0 0 0 0 0 0 0 0 0 0 0 0 0 0 0 0 0 0 0 0 0 0 0 0 0 0 0 0 1 1 0 0 0 0 0 0 0 0
0 0 0 0 0 1 0 0 0 0 0 0 0 0 0 0 0 0 0 0 0 0 0 0 0 0 0 1 1 4 0 1 1 0 0 0 0 2 3 1 1 0 1 0 0 0 0
0 0 0 0 0 0 0 0 0 0 0 0 0 0 0 0 0 0 0 0 0 0 0 0 0 0 0 0 0 0 0 0 0 0 0 0 0 2 0 0 0 0 0 0 0 0 0
0 0 0 0 0 0 0 0 0 0 0 0 0 0 0 0 0 0 0 0 0 0 0 0 0 0 0 0 0 0 0 0 0 0 0 0 0 0 0 0 0 0 0 0 0 0 0
0 0 0 0 0 0 0 0 0 0 0 0 0 0 0 0 0 0 0 0 0 0 0 0 0 0 0 0 0 0 0 0 0 0 0 0 0 0 0 0 0 0 0 0 0 0 0
0 0 0 0 0 0 0 0 0 0 0 0 0 0 0 0 0 0 0 0 0 0 0 0 0 0 0 0 0 0 0 0 0 0 0 0 0 0 0 0 0 0 0 0 0 0 0
0 0 0 0 0 0 0 0 0 0 0 0 0 0 0 0 0 0 0 0 4 1 0 0 0 0 0 0 0 0 0 0 0 0 0 0 0 0 0 0 0 0 0 0 0 0 0
0 0 0 0 0 0 0 0 0 0 0 0 0 0 0 0 0 0 0 0 0 0 3 0 0 0 0 0 0 0 0 0 0 0 0 0 0 0 0 0 0 0 0 0 0 0 0
0 0 0 0 0 0 0 0 0 0 0 0 0 0 0 0 0 0 0 0 0 0 0 0 0 0 0 0 0 0 0 0 0 0 0 0 0 0 0 0 0 0 0 0 0 0 0
0 0 0 0 0 0 0 0 2 0 0 0 0 0 0 0 0 0 0 0 0 0 0 0 5 0 0 0 0 0 0 0 0 0 0 0 0 0 0 0 0 0 0 0 0 0 0
0 0 0 0 0 0 0 0 2 0 0 0 0 0 0 0 0 0 0 0 0 0 0 10 0 0 0 1 7 0 0 0 0 0 0 0 0 0 0 0 0 0 0 0 0 0 0
0 0 0 0 0 0 0 0 5 0 0 0 0 0 0 0 0 0 0 0 0 0 0 0 0 0 0 2 6 0 0 0 0 0 0 0 1 0 1 0 0 0 0 0 0 0 0
0 0 0 0 1 0 0 0 5 5 0 0 0 0 0 0 0 0 0 0 0 0 0 0 0 1 2 1 1 0 0 0 0 0 0 0 0 0 2 0 0 0 0 0 0 0 0
0 0 0 1 3 0 0 0 0 12 0 0 0 2 1 1 0 0 0 0 0 0 0 0 0 1 1 0 0 0 0 0 0 0 0 0 0 0 0 0 0 0 0 0 0 0 0

GFSGBSN_con_mlcape_063.txt.gz
CAPE
5 3 5 4 7 6 11 8 4 14 24 24 42 27 7 13 14 1 0 4 84 98 10 24 23 88 4 0 0 0 0 1 9 0 0 13 5 0 0 6 102 26 5 20 14 0 1
3 4 3 2 3 6 8 9 8 6 16 23 27 17 8 3 9 3 0 22 94 104 116 87 59 101 0 0 0 0 0 0 0 15 0 12 0 0 9 58 92 30 8 51 22 0 2
3 4 3 3 4 7 2 5 6 8 6 18 13 25 12 9 5 1 0 3 23 78 37 54 133 6 0 0 0 0 0 0 10 52 0 26 0 10 14 75 76 57 12 1 6 0 0
1 3 2 3 3 5 4 14 12 7 14 3 17 23 16 11 1 0 1 8 33 128 130 158 129 2 0 0 0 0 0 0 35 30 0 5 7 33 17 3 58 29 17 10 0 0 0
0 2 3 3 4 4 6 4 5 19 15 10 4 16 17 5 4 0 9 89 36 35 80 110 8 0 0 10 33 4 8 0 14 22 0 20 48 28 17 1 4 19 0 0 0 0 0
0 1 2 2 3 5 6 4 9 9 9 8 6 6 10 4 11 2 0 3 12 0 0 18 5 0 0 3 19 3 29 7 3 48 25 55 29 12 12 2 0 0 0 0 0 0 0
0 1 2 2 2 4 6 8 5 5 12 3 9 1 2 2 4 8 0 0 0 0 0 0 0 0 0 0 32 30 1 0 0 33 4 24 0 0 0 0 0 0 0 0 0 0 0
0 0 1 1 2 3 3 7 6 2 6 5 7 3 0 4 0 2 0 0 0 0 0 5 2 0 0 0 18 2 0 0 0 2 0 4 2 0 3 4 0 0 0 0 0 0 0
0 0 1 1 1 3 2 4 7 6 2 11 7 3 2 2 0 0 0 0 0 0 0 0 5 0 0 0 8 0 0 0 3 0 1 0 1 10 15 6 2 0 0 0 0 0 0
0 0 0 1 2 3 1 3 5 6 8 10 6 0 1 1 0 0 0 0 0 0 0 0 2 2 1 0 6 0 0 3 4 1 4 5 8 5 19 11 0 0 0 0 0 0 0
0 0 0 0 2 4 1 3 3 5 7 3 4 1 0 1 0 0 0 0 0 0 0 0 0 0 0 0 0 0 0 17 3 5 0 1 0 0 0 0 0 0 0 0 0 0 0
0 0 0 1 1 1 2 1 2 1 3 1 4 3 1 0 0 0 0 0 0 0 0 0 0 0 0 0 1 1 2 17 11 1 0 0 0 4 2 1 0 0 0 0 0 0 0
0 0 0 1 1 1 1 0 0 1 1 0 0 0 0 0 0 0 0 0 0 0 0 0 5 1 1 0 2 1 3 6 1 0 0 0 0 0 3 12 4 0 0 0 1 0 0
0 0 0 0 1 1 0 0 0 2 0 0 0 0 0 0 0 0 0 0 0 0 0 0 2 0 2 0 2 3 2 1 0 0 0 0 5 0 0 0 0 3 0 0 0 0 0
0 0 0 0 0 0 1 0 0 1 0 0 0 0 0 0 0 0 0 0 0 0 0 0 0 1 0 0 0 0 0 0 0 0 0 0 0 0 0 0 0 4 10 0 0 0 0
0 0 0 0 0 0 0 0 0 0 0 0 0 0 0 0 0 0 0 0 0 0 0 0 0 0 0 1 0 0 0 0 0 0 0 0 0 0 0 0 0 0 0 2 0 0 0
0 0 0 0 0 0 0 0 0 0 0 0 0 0 0 0 0 0 0 0 0 0 0 0 0 0 0 0 0 0 0 0 0 0 0 0 0 0 3 2 0 1 0 0 0 0 0
0 0 0 0 0 0 0 0 0 0 0 0 0 0 0 0 0 0 0 0 0 0 0 0 0 0 0 0 0 0 0 0 0 0 0 0 0 0 0 0 0 3 8 0 0 0 0
0 0 0 0 0 0 0 0 0 0 0 0 0 0 0 0 0 0 0 0 0 0 0 0 0 0 0 0 0 0 0 0 0 0 0 0 0 0 0 0 0 1 0 0 0 0 0
0 0 0 0 0 0 0 0 0 0 0 0 0 0 0 0 0 0 0 0 0 0 0 0 0 0 0 0 0 0 0 0 0 0 0 0 0 0 0 0 0 0 1 0 0 0 0
0 0 0 0 0 0 0 0 0 0 0 0 0 0 0 0 0 0 0 0 0 0 0 0 0 0 0 0 0 0 0 0 0 0 0 0 0 0 0 0 0 0 0 0 0 0 0
0 0 0 0 0 0 0 0 0 0 0 0 0 0 0 0 0 0 0 0 0 0 0 0 0 0 0 0 0 0 0 0 0 0 0 0 0 0 0 0 0 0 0 0 0 0 0
0 0 0 0 0 0 0 0 0 0 0 0 0 0 0 0 0 0 0 0 0 0 1 0 0 0 0 0 0 0 0 0 0 0 0 0 0 0 0 0 0 0 0 0 0 0 0
0 0 0 0 0 0 0 0 0 0 0 0 0 0 0 0 0 0 0 0 0 0 0 1 0 0 0 0 0 0 0 0 0 0 0 0 0 0 0 0 0 0 0 0 0 0 0
0 0 0 0 0 0 0 0 0 0 0 0 0 0 0 0 0 0 0 0 0 0 0 0 0 0 0 0 0 0 0 0 0 0 0 0 0 0 0 0 0 0 0 0 0 0 0
0 0 0 0 0 0 0 0 0 0 0 0 0 0 0 0 0 0 0 0 0 0 0 0 0 0 0 2 0 0 0 0 0 0 0 0 0 0 0 0 0 0 0 0 0 0 0
0 0 0 0 0 0 0 0 0 0 0 0 0 0 0 0 0 0 0 0 0 0 0 0 0 0 0 1 5 0 0 0 0 0 0 0 1 0 0 0 0 0 0 0 0 0 0
0 0 0 0 0 0 0 0 0 0 0 0 0 0 0 0 0 0 0 0 0 0 0 0 0 0 0 7 5 2 0 0 0 0 0 0 0 1 2 3 0 0 0 0 0 0 0
0 1 0 0 0 0 0 0 0 0 0 0 0 0 0 3 0 0 0 0 0 0 0 0 0 0 1 0 0 0 0 0 0 0 0 0 0 0 0 0 0 0 0 0 0 0 0

GFSGBSN_con_mlcape_066.txt.gz
CAPE
1 2 5 5 5 2 6 1 3 7 6 14 18 27 9 16 10 1 2 4 23 40 54 37 20 74 1 0 0 0 0 26 44 79 30 26 21 2 7 14 29 7 5 20 20 4 0
1 1 3 5 8 1 8 2 9 10 5 8 17 32 13 18 5 3 0 3 4 7 5 48 34 87 0 0 0 0 0 0 0 1 1 0 21 4 7 11 22 9 15 11 18 12 0
1 0 3 3 5 4 2 7 10 19 25 7 8 19 34 10 7 5 3 4 3 32 0 6 85 0 0 0 0 0 0 0 0 0 19 0 5 2 16 18 32 17 38 78 47 12 2
1 0 1 2 7 8 2 6 10 16 17 16 9 15 17 14 11 2 1 32 61 12 46 83 87 0 0 0 0 0 0 0 1 6 18 1 15 11 24 18 32 35 21 30 10 14 2
1 0 0 1 4 5 3 5 5 3 18 16 6 3 8 17 9 9 0 2 56 14 7 41 3 0 0 1 54 0 0 0 15 71 53 20 26 3 11 22 0 28 0 0 0 6 0
0 0 0 0 2 6 9 7 9 3 11 16 5 9 3 10 7 14 0 0 0 0 0 0 11 0 0 0 41 7 34 2 29 55 15 2 13 6 6 3 0 0 0 0 0 0 0
0 0 0 0 1 3 9 7 7 6 13 14 1 9 1 1 2 9 0 0 0 0 0 0 0 0 0 5 5 4 3 0 0 6 0 1 2 0 0 0 0 0 0 0 0 0 0
0 0 0 1 1 2 5 8 3 5 5 9 6 7 2 1 2 4 0 0 0 0 0 0 5 0 0 0 5 1 0 0 7 2 0 0 1 0 11 4 0 0 0 0 0 0 0
0 0 0 0 1 1 3 5 4 4 7 2 8 2 3 1 2 0 0 0 0 0 0 1 5 1 3 1 10 0 1 0 2 0 1 0 0 10 26 17 4 0 0 0 0 0 0
0 0 0 0 1 1 2 4 3 5 6 8 6 1 4 0 0 0 0 0 0 0 0 0 2 1 3 0 0 0 2 0 0 2 3 0 2 2 35 16 3 0 0 0 0 0 0
0 0 0 0 0 1 1 2 4 4 2 6 5 2 3 5 0 0 0 0 0 0 0 0 0 0 0 1 1 3 0 0 0 5 0 0 2 0 17 7 6 0 0 0 0 0 0
0 0 0 0 0 0 1 1 2 3 1 2 2 4 1 0 0 0 0 0 0 0 0 0 9 0 1 2 1 0 4 4 3 5 1 1 1 3 10 2 2 0 0 0 0 0 0
0 0 0 0 0 0 1 1 0 2 1 1 0 0 0 0 0 0 0 0 0 0 0 0 0 0 2 1 3 1 5 0 0 2 0 5 3 2 2 15 12 0 0 0 0 0 0
0 0 0 0 0 0 1 3 1 2 0 0 0 0 0 0 0 0 0 0 0 0 1 0 5 1 0 1 4 1 3 0 0 0 0 0 7 7 0 0 2 4 0 0 0 0 0
0 0 0 0 0 0 1 2 3 1 0 0 0 0 0 0 0 0 0 0 0 0 0 0 1 1 1 0 1 0 4 0 0 0 0 0 0 0 0 0 0 2 0 0 0 0 0
0 0 0 0 0 0 0 2 2 1 0 0 0 0 0 0 0 0 0 0 0 0 0 0 0 0 0 0 0 0 0 0 0 0 0 0 0 0 0 0 0 0 0 0 0 0 0
0 0 0 0 0 0 0 0 1 0 0 0 0 0 0 0 0 0 0 0 0 0 0 0 0 0 0 0 0 0 0 0 0 0 0 0 0 1 1 0 0 0 0 0 0 0 0
0 0 0 0 0 0 0 0 0 0 0 0 0 0 0 0 0 0 0 0 0 0 0 0 0 0 0 0 0 0 0 0 0 0 0 0 0 0 0 0 0 0 0 0 0 0 0
0 0 0 0 0 0 0 0 0 0 0 0 0 0 0 0 0 0 0 0 0 0 0 0 0 0 0 0 0 0 0 0 0 0 0 0 0 0 1 0 0 0 1 3 0 0 0
0 0 0 0 0 0 0 0 0 0 0 0 0 0 0 0 0 0 0 0 0 0 0 0 0 0 0 0 0 0 0 0 0 0 0 0 0 0 0 0 0 0 1 3 0 2 1
0 0 0 0 0 0 0 0 0 0 0 0 0 0 0 0 0 0 0 0 0 0 0 0 0 0 0 0 0 0 0 0 0 0 0 0 0 0 0 0 0 0 0 1 0 0 0
0 0 0 0 0 0 0 0 0 0 0 0 0 0 0 0 0 0 0 0 0 0 0 0 0 0 0 0 0 0 0 0 0 0 0 0 0 0 0 0 0 0 0 0 0 0 0
0 0 0 0 0 0 0 0 0 0 0 0 0 0 0 0 0 0 0 0 0 0 0 0 0 0 0 0 0 0 0 0 0 0 0 0 0 0 0 0 0 0 0 0 0 0 0
0 0 0 0 0 0 0 0 0 0 0 0 0 0 0 0 0 0 0 0 0 0 0 0 0 0 0 0 0 0 0 0 0 0 0 0 0 0 0 0 0 0 0 0 0 0 0
0 0 0 0 0 0 0 0 0 0 0 0 0 0 0 0 0 0 0 0 0 0 0 0 0 0 0 0 0 1 0 0 0 0 0 0 0 0 0 0 0 0 0 0 0 0 0
0 0 0 0 0 0 0 0 0 0 0 0 0 0 0 0 0 0 0 0 0 0 0 0 0 0 0 0 3 0 0 0 0 0 0 0 0 0 0 0 0 0 0 0 0 0 0
0 0 0 0 0 0 0 0 0 0 0 0 0 0 0 0 0 0 0 0 0 0 0 0 0 0 0 9 10 2 0 0 0 0 0 0 0 0 1 0 0 0 0 0 0 0 0
0 0 0 0 0 0 0 0 0 0 0 0 0 0 0 0 0 0 0 0 0 0 0 0 0 1 1 1 10 0 0 0 0 0 0 0 0 0 2 2 0 0 0 0 0 0 0
1 1 1 0 0 0 0 0 0 0 0 0 0 0 0 0 0 0 0 0 0 0 0 0 0 1 0 0 0 0 0 0 0 0 0 0 0 0 0 0 0 0 0 0 0 0 0

GFSGBSN_con_mlcape_069.txt.gz
CAPE
2 4 6 3 5 3 7 6 11 11 21 5 8 10 22 5 3 3 2 5 6 6 1 1 3 46 5 0 0 0 0 0 41 41 26 115 56 5 0 6 30 9 47 28 75 3 0
2 3 5 3 5 2 8 6 10 16 20 24 7 8 14 18 9 3 6 6 6 10 0 1 47 14 0 0 0 0 0 0 66 14 32 56 62 2 6 13 8 14 31 62 63 39 9
0 1 3 3 5 6 4 7 2 11 11 19 6 4 12 29 9 18 3 6 54 26 32 24 62 0 0 0 0 0 0 0 0 0 0 5 8 21 5 9 28 26 7 30 65 36 13
0 0 1 4 3 5 2 5 6 2 12 14 6 4 7 13 16 11 7 3 27 37 0 87 76 0 0 0 0 0 0 0 4 9 0 1 0 33 10 10 27 25 27 1 33 50 1
0 0 0 2 2 5 3 6 6 4 10 13 10 2 7 7 12 9 17 2 3 15 2 33 0 0 0 0 23 1 4 3 11 59 5 44 2 26 10 5 12 25 0 0 1 18 0
0 0 0 1 2 4 3 4 3 6 5 11 7 5 5 6 9 3 11 0 0 0 0 0 0 0 0 0 16 36 16 9 15 33 52 30 3 8 0 2 0 0 0 0 0 7 7
0 0 0 0 1 3 4 5 3 8 1 6 7 1 2 4 6 4 0 0 0 0 0 0 0 0 0 7 9 28 2 0 42 53 1 1 0 0 0 0 0 0 0 0 0 0 0
0 0 0 0 0 1 4 5 4 4 5 9 3 1 1 3 3 5 0 0 0 0 0 0 0 0 1 5 1 7 1 31 5 5 0 1 0 0 5 3 0 0 0 0 0 0 0
0 0 0 0 0 0 2 4 4 4 3 3 2 1 1 4 0 0 0 0 0 0 0 1 5 1 7 1 17 2 2 0 0 2 0 0 1 0 4 20 7 0 0 0 0 0 0
0 0 0 0 0 0 1 5 4 3 2 1 3 3 7 1 0 0 0 0 0 0 0 1 2 0 9 1 25 1 1 0 5 4 2 0 0 0 2 16 19 0 0 0 0 0 0
0 0 0 0 0 0 1 3 2 2 5 7 4 2 2 0 0 0 0 0 0 0 0 0 0 0 9 7 7 3 3 14 1 2 0 1 0 3 5 16 15 0 0 0 0 0 0
0 0 0 0 0 0 1 3 1 1 2 6 4 2 0 0 0 0 0 0 0 0 0 0 0 0 2 12 8 2 40 4 14 0 1 5 4 12 15 2 7 0 0 0 0 0 0
0 0 0 0 0 0 0 3 1 1 1 3 2 0 0 0 0 0 0 0 0 0 0 0 3 0 3 6 2 2 3 0 1 0 0 11 22 0 1 16 0 0 0 0 0 0 0
0 0 0 0 0 0 1 1 1 0 1 1 0 0 0 0 0 0 0 0 0 0 0 0 7 2 1 5 2 5 2 1 0 1 0 0 3 8 0 5 5 0 0 0 0 0 0
0 0 0 0 0 0 0 0 0 0 0 0 0 0 0 0 0 0 0 0 0 0 0 0 2 0 0 0 1 3 0 0 0 0 0 0 0 0 1 0 0 1 0 0 0 0 0
0 0 0 0 0 0 0 0 0 0 0 0 0 0 0 0 0 0 0 0 0 0 0 0 0 0 0 1 0 1 0 0 0 0 0 0 0 0 1 0 0 1 0 0 0 0 0
0 0 0 0 0 0 0 0 0 0 0 0 0 0 0 0 0 0 0 0 0 0 0 0 0 0 0 0 0 0 0 0 0 0 0 0 0 1 0 1 7 0 0 0 0 0 0
0 0 0 0 0 0 0 0 0 0 0 0 0 0 0 0 0 0 0 0 0 0 0 0 0 0 0 0 0 0 0 0 0 0 0 0 0 0 0 0 0 0 0 0 0 0 0
0 0 0 0 0 0 0 0 0 0 0 0 0 0 0 0 0 0 0 0 0 0 0 0 0 0 0 0 0 0 0 0 0 0 0 0 0 1 0 0 0 0 0 0 0 0 0
0 0 0 0 0 0 0 0 0 0 0 0 0 0 0 0 0 0 0 0 0 0 0 0 0 0 0 0 0 0 0 0 0 0 0 0 0 0 0 0 0 0 0 0 0 1 0
0 0 0 0 0 0 0 0 0 0 0 0 0 0 0 0 0 0 0 0 0 0 0 0 0 0 0 0 0 0 0 0 0 0 0 0 0 0 0 0 0 0 0 0 0 0 0
0 0 0 0 0 0 0 0 0 0 0 0 0 0 0 0 0 0 0 0 0 0 0 0 0 0 0 0 0 0 0 0 0 0 0 0 0 0 0 0 0 0 0 0 0 1 1
0 0 0 0 0 0 0 0 0 0 0 0 0 0 0 0 0 0 0 0 0 0 0 0 0 0 0 0 0 0 0 0 0 0 0 0 0 0 0 0 0 0 0 0 0 0 0
0 0 0 0 0 0 0 0 0 0 0 0 0 0 0 0 0 0 0 0 0 0 0 0 0 0 0 0 0 0 0 0 0 0 0 0 0 0 0 0 0 0 0 0 0 0 0
0 0 0 0 0 0 0 0 0 0 0 0 0 0 0 0 0 0 0 0 0 0 0 0 2 0 0 0 0 0 0 0 0 0 0 0 0 0 0 0 0 0 0 0 0 0 0
0 0 0 0 0 0 0 0 0 0 0 0 0 0 0 0 0 0 0 0 0 0 0 0 0 0 0 2 0 0 0 0 0 0 0 0 0 0 0 0 0 0 0 0 0 0 0
0 0 0 0 0 0 0 0 0 0 0 0 0 0 0 0 0 0 0 0 0 0 0 0 0 0 0 3 6 0 1 0 0 0 0 0 0 0 0 0 0 0 0 0 0 0 0
0 1 0 0 0 0 0 0 0 0 0 0 0 0 0 0 0 0 0 0 0 0 0 0 0 0 0 3 5 0 0 0 0 0 0 0 0 0 0 1 0 0 0 0 0 0 0
0 1 0 0 0 0 0 0 0 0 0 0 0 0 0 0 0 0 0 0 0 0 0 0 0 1 0 0 0 0 0 0 0 0 0 0 0 0 0 0 0 0 0 0 0 0 0

GFSGBSN_con_mlcape_072.txt.gz
CAPE
4 3 4 4 1 1 3 7 9 14 15 21 19 5 9 22 9 9 2 4 6 5 0 0 9 25 0 0 0 0 0 10 59 3 20 59 78 89 33 22 35 31 47 73 74 78 57
4 3 3 1 1 1 3 3 4 5 13 15 29 12 5 14 21 4 10 2 19 23 0 0 17 0 0 0 0 0 0 2 90 9 73 57 78 29 14 17 46 14 45 82 77 97 60
3 2 3 1 1 1 1 1 6 6 4 21 21 13 7 1 17 10 12 1 5 20 0 0 1 0 0 0 0 0 0 0 84 70 130 41 104 43 0 0 60 53 61 97 55 98 64
3 2 3 0 1 0 2 1 5 6 5 13 20 15 9 5 8 8 6 1 2 14 0 2 4 0 0 0 0 0 0 0 16 15 0 0 15 59 59 37 47 65 41 41 78 79 51
2 1 2 0 0 0 1 1 4 7 6 12 16 14 11 4 7 7 0 10 0 0 0 0 0 0 0 0 9 0 9 0 5 21 0 42 18 22 49 20 14 51 0 6 30 100 37
3 1 1 0 0 0 0 2 4 5 5 10 13 12 0 4 7 2 5 0 0 0 0 0 0 0 3 8 18 24 4 20 22 20 0 30 0 3 13 35 1 0 6 6 11 32 21
2 2 0 0 0 0 0 1 4 4 5 10 11 7 3 3 7 1 0 0 0 0 0 0 0 0 0 0 53 70 27 33 17 3 2 1 0 0 3 7 1 2 15 11 18 30 27
2 2 0 0 0 0 0 1 3 2 5 6 8 6 3 6 5 3 0 0 0 0 0 0 1 6 0 0 6 43 28 20 4 0 2 1 0 1 6 13 0 19 12 23 34 74 70
2 3 1 0 0 0 0 0 1 1 2 3 7 4 3 5 2 0 0 0 0 0 0 0 1 8 12 5 18 1 17 22 0 0 1 1 0 0 14 10 8 12 8 11 0 60 19
4 2 1 0 0 0 0 0 0 1 3 3 2 2 4 1 0 0 0 0 0 0 0 1 3 2 17 9 12 2 4 0 0 1 7 2 3 0 22 3 20 5 8 0 3 3 0
4 1 0 0 0 0 0 0 0 1 2 3 2 2 1 1 0 0 0 0 0 0 0 0 1 0 21 5 6 15 32 0 1 2 0 0 1 16 22 9 17 3 0 2 0 0 0
3 2 0 0 0 0 0 0 0 0 1 4 2 1 0 0 0 0 0 0 0 0 0 0 0 1 3 17 5 0 37 8 14 6 7 2 3 24 20 8 6 0 0 1 2 10 0
3 2 0 0 0 0 0 0 0 0 0 2 1 2 0 0 0 0 0 0 0 0 0 0 1 1 12 0 2 13 6 5 4 6 1 3 4 5 11 4 1 4 2 2 2 2 0
3 2 0 0 0 0 0 0 0 0 0 1 0 2 0 0 0 0 0 0 0 0 0 0 8 0 5 9 1 6 3 0 0 0 2 1 1 14 2 11 1 27 13 2 0 0 0
3 1 0 0 0 0 0 0 0 0 0 0 0 0 0 0 0 0 0 0 0 0 0 0 9 5 1 1 0 4 4 1 1 1 0 0 0 2 0 6 5 4 4 0 0 0 0
3 0 0 0 0 0 0 0 0 0 0 0 0 0 1 0 0 0 0 0 0 0 0 0 0 0 0 1 3 4 1 0 0 0 0 0 1 1 0 3 2 8 0 0 0 0 0
3 0 0 0 0 0 0 0 0 0 0 0 0 1 0 0 0 0 0 0 0 0 0 0 0 0 0 1 0 0 0 0 0 0 0 0 0 1 3 4 8 1 0 0 0 0 0
2 0 0 0 0 0 0 0 0 0 0 0 0 0 0 0 0 0 0 0 0 0 0 0 0 0 0 0 0 0 0 0 0 0 0 0 0 1 2 0 1 3 12 3 6 0 0
2 0 0 0 0 0 0 0 0 0 0 0 0 0 0 0 0 0 0 0 0 0 0 0 0 0 0 0 0 0 0 0 0 0 0 0 0 0 0 0 0 1 1 0 0 0 0
1 0 0 0 0 0 0 0 0 0 0 0 0 0 0 0 0 0 0 0 0 0 0 0 0 0 0 0 0 0 0 0 0 0 0 0 0 0 0 0 0 0 0 0 0 0 0
1 0 0 0 0 0 0 0 0 0 0 0 0 0 0 0 0 0 0 0 0 0 0 0 0 0 0 1 0 0 0 0 0 0 0 0 0 0 0 0 0 0 0 0 0 0 0
1 0 0 0 0 0 0 0 0 0 0 0 0 0 0 0 0 0 0 0 0 0 0 0 0 0 0 0 0 0 0 0 0 0 0 0 0 0 0 0 0 0 0 0 0 0 0
3 0 0 0 0 0 0 0 0 0 0 0 0 0 0 0 0 0 0 0 0 0 0 0 0 0 0 0 0 0 0 0 0 0 0 2 0 0 0 0 0 0 0 0 0 0 0
2 0 0 0 0 0 0 0 0 0 0 0 0 0 0 0 0 0 0 0 0 0 0 0 0 0 0 0 0 0 0 0 0 0 0 0 0 0 0 0 0 0 0 0 0 0 0
2 0 0 0 0 0 0 0 0 0 0 0 0 0 0 0 0 0 0 0 0 0 0 0 1 0 0 0 0 0 0 0 0 0 0 0 0 0 0 0 0 0 0 0 0 0 0
2 0 0 0 0 0 0 0 0 0 0 0 0 0 0 0 0 0 0 0 0 0 0 0 0 0 0 5 4 2 2 0 0 0 0 0 0 0 0 0 0 0 0 0 0 0 0
3 0 0 0 0 0 0 0 0 0 0 0 0 0 0 0 0 0 0 0 0 0 0 0 0 0 0 0 2 0 1 0 0 0 0 0 0 1 1 3 0 0 0 0 0 0 0
1 0 0 0 0 0 0 0 0 0 0 0 0 0 0 0 0 0 0 0 0 0 0 0 0 0 0 0 4 1 0 0 0 0 0 0 1 0 7 5 0 0 0 0 0 0 0
0 0 0 0 0 0 0 0 0 0 0 0 0 0 0 0 0 0 0 0 0 0 0 0 0 1 1 0 0 0 0 0 0 1 0 0 0 0 0 0 0 0 0 0 0 0 0

GFSGBSN_con_mlcape_075.txt.gz
CAPE
3 2 3 1 0 0 1 2 3 1 4 7 17 30 10 6 21 20 18 3 2 35 5 0 1 0 2 7 0 0 4 2 25 32 7 44 72 43 28 2 40 60 80 49 21 5 11
3 3 1 1 0 1 1 2 2 1 1 6 14 28 15 7 4 25 13 24 1 20 1 0 0 0 2 0 0 2 0 1 40 31 15 41 26 43 28 23 8 6 19 25 81 3 53
3 4 1 2 0 1 0 1 2 4 1 5 15 21 13 10 9 13 16 21 2 6 4 0 0 0 2 2 0 0 0 3 123 58 42 80 72 58 38 28 11 68 54 85 64 0 47
6 3 2 1 0 0 0 0 1 5 2 4 13 13 16 9 4 9 12 12 12 1 0 0 0 4 11 0 0 0 0 0 92 124 20 14 25 35 47 62 65 79 92 48 23 24 86
28 4 2 1 0 0 0 0 1 3 2 3 13 10 13 6 8 8 4 9 5 0 0 0 3 7 14 3 20 10 4 8 51 47 3 3 9 25 30 23 36 56 3 17 53 104 58
35 5 2 2 0 0 0 0 0 1 2 4 10 7 7 7 6 10 1 1 0 0 0 0 0 16 4 8 38 11 10 3 50 67 24 12 1 43 2 52 8 6 13 2 20 34 26
18 2 3 1 1 0 0 0 1 0 2 3 8 7 9 8 6 8 0 0 0 0 0 0 3 4 0 0 43 65 8 1 57 12 2 6 1 1 0 6 3 0 0 26 20 48 38
10 1 3 2 1 0 0 0 0 0 2 3 5 5 8 6 8 2 1 0 0 0 2 0 9 11 0 0 38 118 45 17 26 21 0 0 1 0 5 10 1 25 18 39 43 27 21
20 3 4 3 1 0 0 0 1 0 1 2 5 3 3 6 3 1 0 0 0 0 1 6 4 9 3 0 44 64 94 51 1 0 0 2 2 2 2 4 0 7 24 46 31 24 35
19 19 3 4 1 0 0 0 0 0 0 2 4 5 4 2 0 0 0 0 0 0 0 2 5 1 17 16 1 4 52 18 0 0 0 2 5 1 3 7 5 18 18 38 29 28 0
9 16 3 4 1 0 0 0 0 0 0 1 3 3 2 0 1 0 0 0 0 0 1 2 2 1 33 10 3 0 20 8 0 0 9 4 0 1 30 3 14 1 26 42 23 46 34
14 19 3 3 0 0 0 0 0 0 0 0 0 2 0 0 0 0 0 0 0 0 0 0 6 7 4 19 19 24 7 2 17 18 15 1 3 10 7 24 23 18 40 26 39 17 1
11 12 2 3 0 0 0 0 0 0 0 0 0 1 0 0 1 0 0 1 0 0 0 0 5 1 4 0 0 16 3 2 5 5 2 5 8 12 13 20 20 22 19 8 6 1 1
12 9 2 2 0 0 0 0 0 0 0 0 0 0 0 1 0 0 0 0 0 0 0 0 9 5 8 0 0 11 1 8 21 4 0 0 1 15 5 1 0 10 24 1 0 0 0
26 0 2 3 0 0 0 0 0 0 0 0 0 4 1 0 0 0 0 0 1 0 0 3 11 15 11 1 2 7 5 4 0 2 13 6 1 3 15 6 33 20 10 0 0 0 1
39 0 3 4 0 0 0 0 0 0 0 0 0 3 5 3 0 0 0 0 0 0 0 0 4 9 1 2 3 10 0 0 2 1 0 5 1 1 9 15 5 16 9 0 0 0 0
33 1 4 3 0 0 0 0 0 0 0 0 3 2 5 0 0 1 0 0 0 0 0 4 5 1 0 7 5 13 5 0 5 0 0 7 5 6 15 11 12 1 0 6 5 0 1
17 3 7 3 0 0 0 0 0 0 0 0 4 2 1 0 3 2 0 0 0 0 0 0 0 8 5 9 7 8 11 9 0 0 0 0 4 0 4 2 0 3 15 15 7 0 0
4 4 7 3 0 0 0 0 0 0 0 0 0 0 0 1 0 0 0 0 0 0 0 0 0 0 0 7 10 4 0 0 2 0 0 0 0 0 1 0 0 0 0 5 20 7 1
1 5 5 2 0 0 0 0 0 0 0 0 0 0 1 1 1 0 0 0 0 0 0 0 0 0 0 0 0 0 0 0 0 0 0 0 0 0 3 0 0 0 0 5 10 5 0
2 6 7 2 0 0 0 0 0 0 0 0 0 0 0 0 0 0 0 0 3 0 0 0 0 0 2 3 4 5 0 0 0 0 0 0 0 0 0 0 0 0 0 1 2 0 5
4 5 6 2 0 0 0 0 0 0 0 0 0 0 0 0 0 0 0 0 8 0 0 0 0 0 0 10 0 8 0 1 3 0 0 0 0 0 0 0 0 0 0 0 1 1 5
5 7 6 0 0 0 0 0 0 0 0 0 0 0 0 0 0 0 0 3 3 0 0 0 0 0 2 0 0 0 0 0 0 3 3 18 0 0 4 0 0 0 0 0 0 0 0
6 5 5 0 0 0 0 0 0 0 0 0 0 0 0 0 0 0 0 0 0 0 1 0 0 2 0 0 0 0 0 0 0 0 0 21 11 6 0 0 0 0 0 0 0 0 0
5 5 4 1 0 0 0 0 0 0 0 0 0 0 0 0 0 0 0 0 0 0 0 1 0 0 0 0 0 2 1 1 0 0 0 0 11 0 1 2 0 0 0 0 0 0 0
4 5 4 1 0 0 0 0 0 0 0 0 0 0 0 0 0 0 0 0 0 0 0 0 0 0 0 9 11 5 7 3 0 0 0 0 0 1 0 1 0 0 0 0 0 0 0
6 5 3 0 0 0 0 0 0 0 0 0 0 0 0 0 0 0 0 0 0 0 0 0 0 1 0 4 1 4 8 0 0 2 0 1 5 2 6 0 1 0 0 0 0 0 0
4 3 2 0 0 0 0 0 0 0 0 0 0 0 0 0 0 0 0 0 0 0 0 0 0 0 2 0 2 1 0 1 0 2 4 4 3 6 4 8 1 0 0 0 0 0 0
4 4 0 0 0 0 0 0 0 0 0 0 0 0 0 0 0 0 0 0 0 0 0 0 0 0 1 1 0 0 0 0 1 3 0 0 15 2 4 5 0 0 0 0 0 0 0

GFSGBSN_con_mlcape_078.txt.gz
CAPE
4 2 3 0 2 0 0 0 0 1 0 7 6 10 16 22 6 2 30 11 19 2 19 0 0 0 0 6 0 6 21 3 1 29 40 10 42 48 20 0 54 1 40 8 23 10 18
27 10 4 1 1 0 0 0 2 1 2 3 4 9 17 22 11 7 10 16 18 1 15 0 0 0 1 1 0 4 19 0 23 30 41 31 17 60 6 4 39 61 23 55 8 0 0
0 5 15 3 1 1 0 0 0 2 4 3 4 10 10 18 8 4 7 15 5 4 2 0 0 0 4 0 0 4 10 0 29 65 69 54 52 69 48 44 5 55 71 18 31 34 0
2 0 5 4 3 1 0 0 0 2 5 3 5 7 15 14 4 7 12 6 1 10 0 0 0 0 11 0 0 1 4 0 33 175 81 64 73 24 26 32 20 57 34 3 1 33 22
6 0 1 7 4 2 0 0 0 1 3 3 4 6 11 6 1 5 10 0 1 0 0 0 0 16 8 0 1 3 0 25 55 65 93 49 32 31 12 18 30 25 13 5 21 7 0
0 0 1 6 1 2 0 0 0 0 3 3 3 5 8 8 7 3 1 0 0 0 0 0 1 6 5 2 6 1 0 0 22 43 32 9 1 1 0 20 5 1 0 19 5 17 0
0 0 0 3 3 3 0 0 0 0 2 2 3 2 7 7 5 6 0 0 0 0 0 0 0 7 14 0 19 18 0 0 39 0 18 0 1 9 1 0 10 0 0 0 0 76 55
28 0 0 3 3 3 0 0 0 0 0 2 3 2 4 7 5 3 0 0 0 0 1 0 1 7 2 0 19 28 0 7 9 5 0 0 1 0 4 0 4 0 0 0 26 61 24
5 9 0 5 2 3 0 0 0 0 0 2 2 2 4 5 2 0 0 0 0 0 0 5 0 4 2 0 39 24 32 9 6 0 0 0 0 0 1 28 0 0 0 0 0 17 13
5 30 4 10 3 3 1 0 0 0 0 0 1 2 3 2 0 0 0 0 0 0 0 1 3 0 0 0 1 23 67 19 0 4 0 0 8 0 0 0 2 0 1 13 1 16 2
1 3 28 0 3 4 2 0 0 0 0 0 1 1 2 0 0 0 0 0 0 0 0 0 0 0 7 5 0 0 15 1 1 0 0 1 0 0 5 0 13 12 0 11 47 17 15
0 5 9 16 9 3 3 0 0 0 0 0 0 0 1 0 0 0 0 0 0 0 0 1 4 3 3 14 4 1 6 0 6 0 0 8 3 4 22 7 0 1 24 6 22 17 0
5 0 0 46 9 2 3 0 0 0 0 0 0 0 0 1 3 0 0 0 0 0 0 0 2 1 1 0 2 3 2 1 5 0 2 23 13 1 2 6 4 15 2 0 0 0 0
21 5 1 44 12 4 3 0 0 0 0 0 0 0 0 0 0 0 0 0 0 0 0 0 1 0 5 0 4 7 0 0 4 16 0 0 0 5 1 4 1 10 0 0 0 0 0
4 10 3 24 1 6 4 0 0 0 0 0 0 1 1 0 0 0 1 0 0 0 0 4 1 11 0 0 0 7 4 12 29 4 8 0 0 0 2 4 5 15 9 0 0 0 0
22 15 18 8 2 6 3 0 0 0 0 0 0 2 0 4 0 2 0 0 1 0 0 6 7 15 6 0 2 5 3 0 6 2 0 0 0 0 0 4 2 3 2 0 0 0 0
5 4 12 11 3 6 2 0 0 0 0 0 0 3 3 0 0 3 0 0 1 0 0 2 8 8 1 2 0 5 1 0 0 0 0 0 0 1 1 2 0 0 3 2 2 0 10
24 42 24 9 4 5 3 1 0 0 0 0 0 0 0 0 2 1 0 0 0 0 0 0 0 9 1 9 8 5 0 0 5 0 0 0 0 0 1 0 0 3 9 3 1 0 0
20 0 16 6 5 5 3 3 0 0 0 0 2 0 0 0 0 0 0 0 0 0 0 0 0 0 2 12 7 6 1 0 0 0 0 0 0 0 0 0 0 0 5 23 0 0 0
23 6 3 3 5 5 3 0 0 0 0 0 0 0 1 5 0 0 0 0 0 0 0 0 0 0 0 3 1 7 0 0 0 0 0 0 0 0 0 0 0 0 0 0 2 0 0
5 1 2 3 6 6 4 0 0 0 0 0 0 0 0 0 0 0 0 0 0 0 0 0 0 0 2 7 5 8 0 0 0 0 0 0 0 0 0 0 0 0 0 0 0 0 0
10 5 13 2 6 5 2 0 0 0 0 0 0 0 0 0 0 0 0 0 1 0 0 0 0 0 0 0 0 6 0 1 1 0 0 0 0 0 0 0 0 0 0 0 0 0 0
3 2 6 5 6 6 1 0 0 0 0 0 0 0 0 0 0 0 0 0 0 1 0 0 0 0 0 0 0 0 0 0 0 2 0 1 0 0 0 0 0 0 0 0 0 0 0
4 7 2 4 6 4 0 0 0 0 0 0 0 0 0 0 0 0 0 0 0 0 1 0 0 0 0 0 0 0 0 0 0 0 3 10 0 0 1 0 0 0 0 0 0 0 0
6 6 3 5 7 3 0 0 0 0 0 0 0 0 0 0 0 0 0 0 0 0 0 0 0 0 0 0 0 0 0 0 0 0 0 10 2 0 0 0 0 0 0 0 0 0 0
10 13 5 6 6 0 0 0 0 0 0 0 0 0 0 0 0 0 0 0 0 0 0 0 0 0 0 3 2 1 0 0 0 0 0 0 0 2 0 0 0 0 0 0 0 0 0
1 22 6 6 4 0 0 0 0 0 0 0 0 0 0 0 0 0 0 0 0 0 0 0 0 0 0 2 0 1 3 0 0 0 0 0 0 0 0 1 0 0 0 0 0 0 0
0 5 4 5 0 0 0 0 0 0 0 0 0 0 0 0 0 0 0 0 0 0 0 0 0 0 0 0 0 0 0 0 0 0 0 0 0 0 0 0 0 0 0 0 0 0 0
5 4 5 4 3 0 0 0 0 0 0 0 0 0 0 0 0 0 0 0 0 0 0 0 0 0 0 0 0 0 0 0 0 0 0 0 2 3 0 0 0 0 0 0 0 0 0

GFSGBSN_con_mlcape_081.txt.gz
CAPE
16 29 35 6 3 3 0 0 0 0 2 4 5 5 12 12 18 3 6 7 13 23 1 11 0 0 0 0 1 0 35 0 0 2 0 45 22 56 14 0 58 12 54 41 8 19 15
7 1 6 14 15 4 3 0 0 0 0 4 8 4 14 12 15 4 3 3 16 16 1 8 0 0 0 0 0 0 7 8 0 3 0 22 30 30 28 9 9 13 10 16 9 12 0
40 22 6 1 10 5 3 0 0 0 0 1 6 7 11 12 10 5 5 8 11 1 7 2 0 0 2 1 0 0 16 0 0 3 1 38 37 39 40 18 0 52 50 0 1 0 5
3 84 30 20 8 21 3 0 0 0 0 1 4 6 9 14 7 4 5 12 1 1 4 0 0 0 13 0 0 0 4 11 35 65 56 78 62 19 36 5 24 44 40 3 0 33 1
4 1 76 38 24 22 3 1 0 0 0 1 2 4 8 9 6 2 1 6 0 1 0 0 0 6 2 0 0 0 0 0 56 33 39 3 48 4 18 32 43 26 0 3 2 6 9
2 5 2 54 20 16 4 2 0 0 0 0 2 3 4 8 5 6 1 0 0 0 0 0 1 6 1 0 0 0 0 0 9 14 0 0 1 0 6 35 13 11 5 7 4 0 3
3 2 2 2 81 23 6 3 0 0 0 1 1 2 2 5 5 3 0 0 0 0 0 0 1 1 2 0 1 0 0 0 3 0 0 0 0 0 0 15 0 7 11 19 23 6 0
2 2 0 0 4 51 16 4 2 0 0 0 1 1 1 2 4 4 0 0 0 0 0 0 0 1 0 0 0 0 0 0 0 0 0 0 0 1 0 0 3 0 14 6 26 28 2
0 3 0 2 3 28 31 3 3 0 0 0 0 0 0 0 1 0 0 0 0 0 0 2 0 0 0 0 0 0 0 0 2 0 0 0 1 2 0 0 0 0 0 0 0 22 5
10 0 0 2 1 1 52 4 4 0 0 0 0 0 0 3 0 0 0 0 0 0 0 0 0 0 0 0 0 0 2 7 0 0 0 0 0 5 13 0 0 0 0 0 8 5 0
7 4 2 0 3 0 19 2 5 1 0 0 0 0 0 0 0 0 0 0 0 0 0 0 0 0 9 0 0 0 16 0 0 0 0 0 34 7 1 5 0 0 0 0 0 1 0
3 17 5 4 0 0 7 1 4 1 0 0 0 0 0 0 0 0 0 0 0 0 0 1 0 0 0 0 3 1 17 0 0 0 0 0 5 1 7 7 0 0 2 24 14 2 1
10 2 5 3 0 1 5 1 4 2 0 0 0 0 0 1 0 0 0 0 0 0 0 0 0 0 2 1 2 0 1 0 1 0 0 29 6 31 27 2 0 3 0 0 0 0 0
12 33 23 14 3 0 5 3 3 3 4 0 0 0 0 1 0 0 0 0 0 0 0 0 0 0 1 0 2 0 1 0 0 0 4 0 1 1 9 5 0 0 0 0 0 0 0
23 56 28 55 12 0 5 5 4 3 2 0 0 0 0 0 0 0 3 0 0 0 0 0 0 2 4 3 1 9 3 0 17 0 3 0 0 0 0 0 0 2 0 0 0 0 0
88 76 69 49 5 2 11 6 5 3 0 0 0 1 1 0 0 1 0 0 0 0 0 0 0 7 4 0 0 1 1 4 2 3 0 0 0 0 0 0 0 0 0 0 0 0 0
47 15 12 0 1 7 16 6 6 2 0 0 0 0 1 1 1 1 0 0 0 0 0 1 9 13 2 0 2 2 0 0 0 0 0 0 0 0 0 0 0 0 1 0 0 0 2
28 20 32 52 32 3 13 6 5 0 0 0 0 0 1 1 0 1 0 0 0 0 0 0 2 6 2 0 4 6 0 0 0 0 0 0 0 0 0 0 0 0 0 4 0 0 0
32 30 15 81 37 3 7 7 3 2 0 0 0 1 0 4 0 0 0 0 0 0 0 0 0 0 8 9 8 4 0 0 0 0 0 0 0 0 1 0 0 0 0 0 0 0 0
59 26 33 26 5 8 4 6 1 0 0 0 0 0 1 6 0 0 0 0 0 0 0 0 0 0 0 13 2 0 0 0 0 0 0 0 0 0 0 0 0 0 0 0 0 0 0
24 33 20 17 35 3 4 4 4 0 0 0 0 0 0 0 0 1 0 0 0 0 0 0 0 0 0 2 11 0 0 0 0 0 0 0 0 0 0 0 0 0 0 0 0 0 0
20 16 11 6 39 3 4 4 0 0 0 0 0 0 0 0 0 0 0 0 0 0 0 0 0 0 0 0 0 2 0 0 0 0 0 0 0 0 0 0 0 0 0 0 0 0 0
25 10 11 6 2 4 5 4 0 0 0 0 0 0 0 0 0 0 0 0 0 0 0 0 0 0 0 0 0 0 0 0 0 0 0 0 0 0 0 0 0 0 0 0 0 0 0
23 0 2 2 22 3 5 4 3 0 0 0 0 0 0 0 0 0 0 0 0 0 0 0 0 0 0 0 0 0 0 0 0 0 0 3 0 0 0 0 0 0 0 0 0 0 0
3 14 3 6 0 3 4 3 0 0 0 0 0 0 0 0 0 0 0 0 0 0 0 0 0 0 0 0 0 0 0 0 0 0 0 14 0 0 0 0 0 0 0 0 0 0 0
0 20 6 19 3 4 4 2 0 0 0 0 0 0 0 0 0 0 0 0 0 0 0 0 0 0 0 0 0 0 0 0 0 0 0 0 1 0 0 0 0 0 0 0 0 0 0
6 17 2 6 3 5 4 2 0 0 0 0 0 0 0 0 0 0 0 0 0 0 0 0 0 0 0 0 0 0 0 0 0 0 0 0 0 0 0 0 0 0 0 0 0 0 0
7 4 5 6 4 4 3 2 0 0 0 0 0 0 0 0 0 0 0 0 0 0 0 0 0 0 0 0 1 0 0 0 0 0 0 0 0 0 0 1 0 0 0 0 0 0 0
5 0 11 4 4 4 8 0 0 0 0 0 0 0 0 0 0 0 0 0 0 0 0 0 0 0 0 0 0 0 0 0 0 0 0 0 0 0 0 0 0 0 0 0 0 0 0

GFSGBSN_con_mlcape_084.txt.gz
CAPE
7 10 25 27 12 24 25 5 2 1 0 1 3 4 3 5 10 15 4 6 6 20 22 0 17 2 0 0 0 0 23 15 2 6 14 18 40 58 2 4 30 12 95 38 38 22 24
10 5 2 3 51 16 23 15 3 2 0 0 2 3 4 3 8 6 4 3 4 13 8 2 21 0 0 0 0 0 10 2 0 0 0 8 14 44 29 36 0 2 32 2 9 9 0
4 6 7 4 0 51 17 35 4 3 0 0 2 2 3 4 4 6 3 5 12 4 0 8 24 2 0 0 0 0 4 9 2 0 0 0 15 24 57 20 0 29 11 21 0 8 1
4 4 4 5 5 1 20 33 3 3 1 1 1 0 4 4 1 3 3 5 8 0 1 2 20 1 0 0 0 0 0 28 23 11 1 24 39 72 47 6 1 10 50 3 17 52 3
2 5 6 7 4 5 2 36 3 3 2 2 2 1 3 3 1 1 4 3 1 0 1 0 2 3 0 0 0 0 0 0 20 35 46 32 55 19 38 27 14 12 2 1 5 1 4
7 3 1 3 5 1 5 1 26 4 3 4 1 0 1 0 0 0 0 0 0 0 0 0 0 0 0 0 0 0 0 0 20 16 0 0 0 1 4 26 1 0 9 3 0 0 0
10 3 0 1 5 5 4 4 10 5 2 4 3 1 0 0 0 1 0 0 0 0 0 0 0 0 0 0 0 0 0 0 4 0 0 0 10 0 6 15 24 5 0 0 0 0 2
5 13 16 1 0 6 11 4 1 25 3 2 6 4 0 0 0 0 0 0 0 0 0 0 0 0 0 0 0 0 0 0 0 0 0 0 0 1 2 13 9 15 0 0 2 2 1
0 0 5 12 9 0 8 5 7 10 4 3 9 4 0 0 0 0 0 0 0 0 0 0 0 0 0 0 0 0 3 0 0 0 0 0 0 0 5 2 9 5 0 0 0 4 7
1 0 0 0 2 1 5 2 1 9 3 2 7 0 0 0 0 0 0 0 0 0 0 0 0 0 0 0 0 0 6 0 0 0 0 0 2 3 0 0 3 4 0 0 7 6 2
0 0 0 0 0 14 0 9 0 6 3 0 6 0 0 0 0 0 0 0 0 0 0 0 0 0 0 0 0 0 0 0 0 0 0 0 1 9 0 0 0 11 2 1 25 6 0
11 9 8 6 0 2 20 8 0 0 4 1 4 0 0 0 0 0 0 0 0 0 0 0 0 0 0 3 6 0 0 0 0 0 0 8 18 5 8 1 0 0 10 10 1 0 0
29 30 23 8 2 0 19 5 9 0 5 3 4 0 0 0 0 0 0 0 0 0 0 0 0 0 0 3 0 0 1 0 0 0 0 13 16 28 25 3 3 1 1 1 0 0 0
30 20 31 35 21 15 28 10 32 5 6 4 1 0 0 0 0 0 0 0 0 0 0 0 0 0 0 0 1 2 4 0 0 0 0 1 2 16 18 2 0 14 0 0 0 0 0
61 39 83 71 85 38 12 26 12 10 13 4 0 1 0 0 0 0 0 0 0 0 0 2 0 0 5 0 3 1 0 0 0 0 0 0 1 2 10 1 0 1 0 0 0 0 0
146 84 86 112 54 52 10 5 4 16 8 7 0 0 0 0 0 1 0 0 0 0 0 0 0 0 0 0 0 0 0 0 2 0 0 0 0 0 2 0 0 0 0 0 0 0 0
168 59 59 103 46 12 8 3 26 18 10 9 0 0 2 0 1 4 0 0 0 0 0 1 0 3 7 0 1 0 0 0 0 0 0 0 0 0 0 0 0 0 0 0 0 0 0
87 48 34 45 18 30 13 34 14 9 6 2 0 0 4 3 0 1 0 0 0 0 0 0 0 6 1 0 0 10 0 0 0 0 0 0 0 0 0 0 0 0 0 0 0 0 0
45 38 22 26 14 53 37 35 25 2 4 0 0 0 0 3 0 1 0 0 0 0 0 0 0 0 3 0 4 5 0 0 0 0 0 0 0 0 0 0 0 0 0 0 0 0 0
22 34 31 14 39 8 1 31 5 5 1 0 0 0 1 8 0 1 0 0 1 0 0 0 0 0 2 8 0 0 0 0 0 0 0 0 0 0 0 0 0 0 0 0 0 0 0
26 24 21 24 32 1 5 47 5 9 0 0 0 0 0 0 2 0 0 0 0 0 0 0 0 0 0 7 0 0 0 0 0 0 0 0 0 0 0 0 0 0 0 0 0 0 0
24 24 17 16 13 4 6 28 7 8 2 0 0 0 0 0 0 0 2 0 0 0 0 0 0 0 0 0 0 0 0 0 0 0 0 0 0 0 0 0 0 0 0 0 0 0 0
28 13 3 16 12 5 8 6 9 0 1 0 0 0 0 0 0 0 0 0 0 0 0 0 0 0 0 0 0 0 0 0 0 0 0 0 0 0 0 0 0 0 0 0 0 0 0
22 8 11 14 8 11 20 1 4 2 0 0 0 0 0 0 0 0 0 0 0 0 0 0 0 0 0 0 0 0 0 0 0 0 0 0 0 0 0 0 0 0 0 0 0 0 0
17 3 8 9 14 8 6 3 1 13 0 0 0 0 0 0 0 0 0 0 0 0 0 0 0 0 0 0 0 0 0 0 0 0 0 0 0 0 0 0 0 0 0 0 0 0 0
7 4 0 0 3 32 8 3 10 19 0 0 0 0 0 0 0 0 0 0 0 0 0 0 0 0 0 0 0 0 0 0 0 0 0 0 0 0 3 0 0 0 0 0 0 0 0
5 1 0 4 0 23 3 4 6 21 0 0 0 0 0 0 0 0 0 0 0 0 0 0 0 0 0 0 0 0 0 0 0 0 0 0 0 0 0 0 0 0 0 0 0 0 0
1 0 1 0 4 11 6 5 2 20 0 0 0 0 0 0 0 0 0 0 0 0 0 0 0 0 0 0 0 0 0 0 0 0 0 0 0 0 0 0 0 0 0 0 0 0 0
0 1 0 3 3 4 4 1 4 7 0 0 0 0 0 0 0 0 0 0 0 0 0 0 0 0 0 0 0 0 0 0 0 0 0 0 0 0 0 0 0 0 0 0 0 0 0

GFSGBSN_con_mlcape_087.txt.gz
CAPE
2 3 7 8 6 7 2 41 42 25 4 4 4 6 5 6 7 11 4 4 2 3 30 26 2 25 0 0 0 0 0 36 0 0 1 20 15 15 1 2 16 2 0 1 187 99 44
2 2 4 3 9 8 6 4 10 62 11 5 5 5 7 4 6 9 1 5 5 9 19 17 12 10 0 0 0 0 0 2 1 1 0 7 7 38 34 23 1 16 35 5 158 77 7
2 3 3 3 2 3 5 5 7 3 47 6 3 4 6 6 8 6 5 1 4 20 5 15 18 4 1 0 0 0 0 5 0 16 0 0 10 14 55 4 14 13 22 11 131 17 0
1 1 5 7 5 2 4 2 0 5 49 12 4 5 12 5 4 10 3 1 0 4 2 10 5 0 0 0 0 0 0 4 30 1 0 11 23 6 38 38 44 11 35 0 58 9 0
13 14 5 9 11 6 3 6 3 1 2 8 3 3 8 2 6 10 0 3 0 0 3 3 0 0 0 0 0 0 0 0 19 6 4 54 24 9 60 16 7 22 0 0 14 1 1
16 14 17 9 1 4 5 5 5 4 2 13 1 2 7 0 2 1 0 0 0 0 0 0 0 0 0 0 0 0 0 0 13 0 0 2 16 0 11 10 0 0 0 1 0 8 6
11 12 12 12 8 2 0 1 6 2 1 7 3 1 6 0 1 0 2 0 0 0 0 0 0 0 0 0 0 0 0 0 6 4 0 0 0 0 24 4 0 0 6 0 5 10 6
2 0 1 4 11 11 4 2 1 4 1 0 5 0 5 0 0 3 0 0 0 0 0 0 0 0 0 0 0 0 0 0 0 0 0 0 0 1 3 15 10 19 9 26 22 10 0
3 2 1 1 1 6 14 8 1 1 0 0 9 2 5 0 0 0 0 0 0 0 0 0 0 0 0 0 0 0 0 0 0 0 0 0 0 0 3 12 6 13 3 8 4 14 7
0 0 0 0 0 0 1 19 7 4 0 2 4 6 4 0 0 0 0 0 0 0 0 0 0 0 0 0 0 0 0 0 0 0 0 0 0 2 2 1 11 12 4 11 41 8 7
25 14 2 0 0 0 0 1 12 1 3 0 4 6 11 7 0 0 0 0 0 0 0 0 0 0 1 0 0 0 0 0 0 0 0 0 0 14 3 0 0 7 0 3 5 0 1
22 21 15 20 19 3 0 0 1 13 2 1 10 6 14 19 0 0 0 0 0 0 0 0 0 0 0 0 5 0 0 0 0 0 7 14 0 0 9 3 0 0 4 7 5 0 0
23 15 24 18 23 9 5 1 3 21 2 17 8 7 19 0 0 0 0 0 0 0 0 0 0 0 0 1 1 0 0 0 0 0 1 4 1 0 22 5 0 0 0 0 0 0 0
30 32 39 19 115 22 13 20 24 34 3 19 1 9 12 0 0 0 0 0 0 0 0 0 0 0 0 0 1 6 0 0 0 0 0 0 0 2 0 1 0 9 0 0 0 0 0
40 95 153 13 114 69 26 24 68 25 1 25 35 9 12 4 0 0 0 0 0 0 0 0 0 0 0 1 10 0 0 0 0 0 0 2 0 4 4 6 1 0 0 0 0 0 0
84 195 157 175 132 51 66 86 19 26 7 74 7 7 8 4 0 0 0 0 0 0 0 0 0 0 0 0 1 1 0 0 0 0 0 0 2 8 1 0 0 0 0 0 0 0 0
124 104 117 100 49 45 66 37 16 8 1 47 3 10 9 0 0 2 0 0 0 0 0 0 0 0 0 0 4 0 0 0 0 0 0 0 0 0 0 0 0 0 0 0 0 0 0
140 100 48 35 27 27 27 26 13 33 11 48 14 0 4 0 2 1 0 0 0 0 0 0 0 0 0 0 3 13 0 0 0 0 0 0 0 0 0 0 0 0 0 0 0 0 0
86 50 43 16 16 23 10 46 15 18 11 14 4 3 1 6 0 0 0 0 0 0 0 0 0 0 0 0 5 7 0 0 0 0 0 0 0 0 0 0 0 0 0 0 0 0 0
122 31 34 27 17 23 30 45 20 29 21 1 1 0 1 14 1 0 0 0 1 0 0 0 0 0 0 0 1 0 0 0 0 0 0 0 0 0 0 0 0 0 0 0 0 0 0
50 55 22 29 27 30 40 16 3 0 18 0 0 1 0 2 3 0 0 0 0 0 0 0 0 0 0 3 0 0 0 0 0 0 0 0 0 0 0 0 0 0 0 0 0 0 0
57 30 18 11 26 42 0 0 11 2 21 0 0 0 0 0 0 0 0 0 0 0 0 0 0 0 0 0 0 0 0 0 0 0 0 0 0 0 0 0 0 0 0 0 0 0 0
29 24 15 13 25 3 1 0 13 33 17 0 0 0 0 1 0 0 0 0 0 0 0 0 0 0 0 0 0 0 0 0 0 0 0 0 0 0 0 0 0 0 0 0 0 0 0
28 21 12 25 34 1 3 3 1 33 0 0 0 0 0 0 0 0 0 0 0 0 0 0 0 0 0 0 0 0 0 0 0 0 0 0 0 0 0 0 0 0 0 0 0 0 0
10 7 16 20 1 3 5 5 2 8 0 0 0 0 0 0 0 0 0 0 0 0 0 0 0 0 0 0 0 0 0 0 0 0 0 0 0 0 0 0 0 0 0 0 0 0 0
1 6 8 0 1 6 15 10 5 15 0 0 0 0 0 0 0 0 0 0 0 0 0 0 0 0 0 0 0 0 0 0 0 0 0 0 0 0 0 0 0 0 0 0 0 0 0
2 2 1 0 3 1 15 2 1 0 0 0 0 0 0 0 0 0 0 0 0 0 0 0 0 0 0 0 0 0 0 0 0 0 0 2 1 0 0 0 0 0 0 0 0 0 0
0 0 0 2 1 1 9 2 9 0 0 0 0 0 0 0 0 0 0 0 0 0 0 0 0 0 0 0 0 0 0 0 0 0 0 0 0 0 0 1 0 0 0 0 0 0 0
0 0 2 1 0 5 2 2 7 0 0 0 0 0 0 0 0 0 0 0 0 0 0 0 0 0 0 0 0 0 0 0 0 0 0 0 0 0 0 0 0 0 0 0 0 0 0

GFSGBSN_con_mlcape_090.txt.gz
CAPE
7 6 3 3 3 2 4 9 3 0 15 19 46 3 2 5 11 8 4 12 11 4 3 18 22 18 0 0 0 0 0 0 13 6 2 1 19 13 0 23 26 24 0 2 1 12 5
12 9 8 6 9 7 5 2 6 2 5 6 52 2 1 2 8 8 9 8 6 5 28 3 18 7 0 0 0 0 0 0 4 5 1 2 11 12 16 4 4 14 0 0 7 0 3
17 10 6 4 5 9 5 5 3 1 2 5 4 6 0 1 6 10 11 11 4 14 24 0 18 3 0 0 0 0 0 0 1 17 22 1 3 23 0 16 2 0 15 5 1 2 65
25 21 19 19 10 8 7 10 7 2 0 11 0 8 2 2 0 9 10 10 0 17 17 2 14 0 0 0 0 0 0 5 20 0 0 0 7 0 4 2 28 2 6 10 1 0 7
14 9 12 13 14 13 10 7 4 2 2 0 0 8 3 0 1 8 7 5 2 15 21 25 2 0 0 0 0 0 0 1 8 0 1 22 17 0 0 4 22 4 2 7 0 0 15
7 5 3 5 10 7 17 18 9 4 1 0 0 1 4 2 1 5 0 9 3 8 3 2 1 0 0 0 0 0 0 0 8 0 0 2 1 0 1 3 0 0 0 0 0 0 2
22 19 10 6 14 20 19 19 17 3 0 0 0 3 6 2 0 1 0 0 0 0 0 0 0 0 0 0 0 0 0 0 3 1 0 0 0 0 0 0 0 0 0 0 1 2 3
22 14 14 24 18 23 22 20 19 17 2 0 4 1 9 2 5 4 0 0 0 0 0 0 0 0 0 0 0 0 0 0 0 0 0 0 0 0 25 2 16 8 5 10 8 7 2
19 21 13 15 15 17 16 17 15 31 11 0 0 4 7 1 7 4 0 0 0 0 0 0 0 0 0 0 0 0 0 0 0 0 0 0 0 1 1 19 10 25 0 1 0 1 4
4 3 0 0 2 7 11 14 16 18 23 0 0 5 12 1 0 0 0 0 0 0 0 0 0 0 0 0 0 0 0 0 0 0 0 0 1 4 1 5 24 8 8 7 3 0 0
24 28 27 27 32 9 4 4 13 7 24 23 0 14 25 0 0 1 0 0 0 0 0 0 0 0 1 0 0 0 0 0 0 0 0 0 11 5 0 0 15 8 5 11 4 0 1
36 31 36 31 38 31 28 3 13 0 20 23 8 11 9 6 0 3 0 0 0 0 0 0 0 0 3 2 5 0 0 0 0 0 9 1 0 1 12 2 7 6 0 11 0 0 1
30 22 14 19 50 22 60 7 35 17 4 0 15 7 8 1 0 8 0 0 0 0 0 0 0 0 0 1 0 0 0 0 0 4 3 1 1 0 15 4 0 25 0 0 0 1 0
33 34 32 38 131 163 7 20 51 34 11 1 6 5 0 0 0 2 0 0 0 0 0 0 0 0 0 0 0 0 0 0 0 0 0 0 0 0 0 2 0 5 0 0 0 0 0
20 34 52 95 80 87 110 151 119 62 50 40 33 0 2 0 5 0 1 0 0 0 0 0 0 0 2 0 0 0 0 0 0 0 0 0 0 5 4 6 0 1 0 0 0 0 0
28 38 69 103 79 81 80 110 107 98 71 76 10 5 1 0 0 2 1 0 0 0 0 0 0 0 0 0 0 0 0 0 0 0 0 0 0 1 9 1 0 0 0 0 0 0 0
24 48 41 93 38 34 14 27 64 53 82 36 4 10 3 5 2 4 1 0 0 0 0 0 0 0 0 0 0 0 0 0 0 0 0 0 0 0 0 0 0 0 0 0 0 0 0
32 45 25 124 32 24 23 20 21 20 15 10 13 5 2 7 1 1 3 0 0 0 0 0 0 0 0 0 0 0 0 0 0 0 0 0 0 0 0 0 0 0 0 0 0 0 0
42 91 53 104 31 15 28 14 29 18 30 20 32 16 1 12 0 1 0 0 0 0 0 0 0 1 0 0 0 0 0 0 0 0 0 0 0 0 0 0 0 0 0 0 0 0 0
84 140 112 34 18 23 29 27 9 34 11 16 14 0 3 3 0 0 0 0 0 0 0 0 0 0 0 0 0 0 0 0 0 0 0 0 0 0 0 0 0 0 0 0 0 0 0
41 34 35 20 30 26 13 18 38 13 7 2 7 0 0 0 1 0 0 0 0 0 0 0 0 0 2 0 0 0 0 0 0 0 0 0 0 0 0 0 0 0 0 0 0 0 0
89 58 27 27 23 4 18 10 3 1 0 0 0 0 0 1 2 0 0 0 1 0 0 0 0 0 3 0 0 0 0 0 0 0 0 0 0 0 0 0 0 0 0 0 0 0 0
43 19 36 18 29 15 34 3 3 0 0 0 0 0 0 1 0 1 0 0 1 0 0 0 0 0 0 1 0 0 0 0 0 0 0 0 0 0 0 0 0 0 0 0 0 0 0
14 20 10 3 15 20 6 3 15 2 0 0 0 0 0 0 0 0 0 0 0 0 0 0 0 0 0 0 0 0 0 0 0 0 0 0 0 0 0 0 0 0 0 0 0 0 0
14 10 4 8 5 6 2 5 10 0 0 0 0 0 0 0 0 0 0 0 0 0 0 0 0 0 0 0 0 0 0 0 0 0 0 0 0 0 0 0 0 0 0 0 0 0 0
18 15 9 0 0 3 1 14 1 0 0 0 0 0 0 0 0 0 0 0 0 0 0 0 0 0 0 0 0 0 0 0 0 0 0 0 0 0 0 0 0 0 0 0 0 0 0
7 3 0 0 1 2 17 1 0 0 0 0 0 0 0 0 0 0 0 0 0 0 0 0 0 0 0 0 0 0 0 0 0 0 0 1 1 0 0 0 0 0 0 0 0 0 0
2 1 0 1 0 0 26 0 0 0 0 0 0 0 0 0 0 0 0 0 0 0 0 0 0 0 0 0 0 0 0 0 0 0 0 0 0 0 0 0 0 0 0 0 0 0 0
0 0 0 0 0 0 4 0 0 0 0 0 0 0 0 0 0 0 0 0 0 0 0 0 0 0 0 0 0 0 0 0 0 0 0 0 0 0 0 0 0 0 0 0 0 0 0

GFSGBSN_con_mlcape_093.txt.gz
CAPE
12 10 9 9 8 7 6 5 4 2 6 3 4 2 12 2 1 0 5 0 7 3 9 0 10 27 0 0 0 0 0 0 0 0 0 0 1 6 1 0 0 1 0 4 0 4 56
22 15 22 22 17 13 10 6 9 8 13 7 1 0 1 9 4 0 0 0 7 4 8 20 5 10 0 0 0 0 0 0 0 0 0 2 0 9 6 0 4 10 9 0 47 2 7
35 32 13 22 28 31 13 12 10 9 6 5 3 0 0 5 3 2 0 14 8 0 11 17 2 16 1 0 0 0 0 0 0 6 17 6 2 10 13 0 24 0 0 7 5 6 13
13 29 36 38 38 29 27 26 17 11 5 3 1 0 0 26 4 1 0 11 0 4 4 4 21 1 0 0 0 0 0 0 7 0 0 0 2 8 16 0 0 0 2 2 4 7 0
8 28 53 50 50 50 37 31 24 12 10 4 0 2 3 4 3 1 1 0 1 7 9 17 11 1 0 0 0 0 0 0 8 0 1 13 11 4 0 0 1 4 1 4 40 0 8
5 31 46 56 44 54 49 41 21 18 26 8 0 3 2 4 2 0 0 5 3 0 0 4 2 4 0 0 0 0 0 0 4 1 0 17 1 1 0 0 0 0 0 35 21 9 0
14 41 44 41 48 39 43 38 43 35 22 12 0 0 0 6 2 1 0 0 0 0 0 0 0 0 0 0 0 0 0 0 5 2 0 1 0 0 0 0 0 1 0 27 74 22 4
22 24 35 35 42 37 31 36 31 32 21 34 0 1 0 11 3 0 0 0 3 0 0 0 0 0 0 0 0 0 0 0 0 0 0 0 0 0 0 0 1 4 0 35 10 1 0
36 31 30 27 24 34 38 37 42 37 32 20 0 0 8 57 1 0 0 1 4 0 0 0 0 0 0 0 0 0 0 0 0 0 0 0 0 1 28 6 3 8 0 15 0 2 0
13 17 29 31 41 47 33 59 66 50 41 10 19 0 14 6 0 0 0 0 2 0 0 0 1 0 0 0 0 0 0 0 0 0 0 0 4 0 3 2 1 3 41 13 0 0 0
19 34 35 42 42 22 18 43 99 100 48 16 23 6 14 14 0 0 0 0 0 4 0 0 0 0 0 0 0 0 0 0 0 0 0 1 10 7 0 0 7 3 35 19 0 0 0
24 32 38 39 37 34 38 93 16 124 8 21 20 27 9 38 2 1 0 0 1 0 0 0 0 0 1 0 4 0 0 0 0 0 1 2 4 1 0 1 5 10 14 17 0 0 0
11 35 40 42 46 52 66 41 0 14 36 23 30 28 19 20 7 3 0 0 0 0 0 0 0 0 0 0 0 0 0 0 0 3 0 0 4 0 14 0 1 0 0 1 0 0 0
22 34 30 33 42 67 110 29 40 32 80 25 17 18 5 0 31 2 0 0 0 0 0 0 0 0 0 0 0 0 0 0 0 0 0 0 0 0 0 7 1 0 0 0 0 0 0
19 24 20 71 90 135 2 72 55 83 80 34 17 2 4 2 20 0 0 0 0 0 0 0 0 0 1 9 0 0 0 0 0 0 0 0 0 4 1 4 0 0 0 0 0 0 0
14 10 29 77 92 106 0 35 43 56 15 25 13 2 0 21 2 0 1 0 0 0 0 0 0 0 0 0 0 0 0 0 0 0 0 0 0 0 2 1 0 0 0 0 0 0 0
25 30 41 50 140 85 64 27 37 42 4 3 1 0 13 6 5 1 0 0 0 0 0 0 0 0 0 0 0 0 0 0 0 0 0 0 0 1 0 0 0 0 0 0 0 0 0
24 50 44 97 75 58 11 24 26 22 19 0 1 1 30 22 0 0 0 0 0 0 0 0 0 0 0 0 0 0 0 0 0 0 0 0 0 1 0 0 0 0 0 0 0 0 0
131 108 91 24 50 9 9 27 48 29 9 0 1 0 20 14 1 1 0 0 0 0 0 0 0 0 0 0 0 0 0 0 0 0 0 0 0 0 0 0 0 0 0 0 0 0 0
67 104 92 78 18 10 18 30 44 47 30 2 3 0 2 6 1 0 0 0 0 0 0 0 0 0 0 0 0 0 0 0 0 0 0 0 0 0 0 0 0 0 0 0 0 0 0
22 40 14 19 29 16 5 29 35 36 5 13 1 0 0 0 0 0 0 0 0 3 3 0 1 0 0 0 0 0 0 0 0 0 0 0 0 0 0 0 0 0 0 0 0 0 0
18 29 18 17 9 4 21 3 6 4 21 12 3 0 0 1 0 0 0 0 1 0 0 0 0 0 0 0 0 0 0 0 0 0 0 0 0 0 0 0 0 0 0 0 0 0 0
11 11 17 27 17 0 0 1 19 1 0 0 0 0 0 1 0 0 0 0 1 1 0 0 0 0 0 0 0 0 0 0 0 0 0 0 0 0 0 0 0 0 0 0 0 0 0
5 4 12 13 11 2 3 9 23 2 0 0 0 0 0 0 1 0 0 0 0 0 0 0 0 0 0 0 0 0 0 0 0 0 0 0 0 0 0 0 0 0 0 0 0 0 0
2 2 1 3 7 6 4 11 1 0 0 0 0 0 0 0 0 0 0 1 0 0 0 0 0 0 0 0 0 0 0 0 0 0 0 0 0 0 0 0 0 0 0 0 0 0 0
1 1 2 5 6 1 12 1 0 0 0 0 0 0 0 0 0 0 0 0 0 0 0 0 0 0 0 0 0 0 0 0 0 0 0 0 0 0 0 0 0 0 0 0 0 0 0
2 2 3 3 23 1 7 0 0 0 0 0 0 0 0 0 0 0 0 0 0 0 0 0 0 0 0 0 0 0 0 0 0 0 0 0 0 0 0 0 0 0 0 0 0 0 0
2 0 2 9 1 2 0 0 0 0 0 0 0 0 0 0 0 0 0 0 0 0 0 0 0 0 0 0 0 0 0 0 0 0 0 0 0 0 0 0 0 0 0 0 0 0 0
0 0 1 9 2 0 0 0 0 0 0 0 0 0 0 0 0 0 0 0 0 0 0 0 0 0 0 0 0 0 0 0 0 0 0 0 0 0 0 0 0 0 0 0 0 0 0

GFSGBSN_con_mlcape_096.txt.gz
CAPE
25 10 24 29 32 27 15 17 14 11 14 12 6 3 4 4 9 10 4 2 2 2 1 0 0 4 0 0 0 0 0 0 0 0 0 2 16 7 11 12 11 0 0 0 0 0 5
13 7 27 34 37 46 34 18 15 15 12 13 10 8 5 2 3 23 1 2 9 0 0 0 2 0 1 0 0 0 0 0 0 0 0 6 6 2 12 15 9 3 5 0 0 0 13
12 18 27 42 51 41 42 41 37 25 13 17 8 6 4 0 2 32 5 0 20 0 0 6 11 9 0 0 0 0 0 0 0 0 5 12 14 2 4 4 14 9 4 1 4 0 25
19 29 29 33 29 40 51 43 36 45 37 16 10 3 3 0 0 59 2 6 0 0 3 8 12 1 0 0 0 0 0 0 18 3 0 8 0 3 5 8 6 0 1 3 0 2 19
20 32 42 46 40 35 44 49 37 31 30 23 3 1 1 0 1 9 0 0 0 2 13 22 1 0 0 0 0 0 0 0 15 9 3 3 9 9 17 6 0 0 0 0 17 12 54
23 43 38 39 33 50 50 50 58 38 23 34 0 0 0 0 1 6 0 8 0 11 11 16 1 0 0 0 0 0 0 0 4 5 11 10 13 14 5 2 0 0 9 36 28 39 38
28 27 26 34 44 46 55 59 60 67 53 45 6 0 0 1 11 1 0 0 0 0 0 0 0 0 0 0 0 0 0 0 10 26 4 4 1 0 5 1 0 0 4 19 33 41 32
21 25 38 34 37 40 54 54 52 50 49 49 12 0 0 0 80 1 0 0 0 0 0 0 0 0 0 0 0 0 0 0 0 7 4 2 0 7 1 2 2 3 9 29 70 29 1
16 20 26 29 36 51 56 59 48 43 51 55 21 2 0 46 11 5 0 1 0 0 0 0 0 0 0 0 0 0 0 0 0 0 4 3 0 0 11 2 3 18 4 34 3 4 2
8 15 16 24 40 52 62 60 51 58 69 114 24 9 1 49 0 0 0 1 0 0 0 0 0 1 0 0 0 0 0 0 0 0 0 0 0 4 3 3 16 6 0 27 4 4 13
2 3 22 26 60 58 40 66 78 80 20 26 49 18 23 10 30 3 0 0 1 0 0 0 0 0 1 0 0 0 0 0 0 0 2 1 5 4 1 5 3 18 21 21 6 0 16
1 15 32 43 62 56 60 90 56 0 4 15 21 24 25 25 36 15 0 0 0 0 0 1 0 0 1 0 8 0 0 0 0 0 0 1 0 3 8 2 5 17 29 38 32 0 1
13 22 24 66 52 54 99 147 53 8 0 18 25 14 26 26 13 1 0 0 1 0 0 0 0 0 1 7 5 0 0 0 2 3 0 0 0 0 8 2 5 0 25 1 4 0 0
7 26 35 62 72 59 83 32 1 61 18 10 17 21 44 15 39 5 0 0 0 0 0 0 0 2 0 4 0 0 0 0 0 0 0 0 0 0 0 5 0 0 0 4 0 0 0
15 11 92 20 65 91 105 32 40 25 17 6 9 19 18 14 16 13 1 2 0 0 0 2 6 2 3 1 5 1 0 0 0 1 3 1 1 1 2 5 1 0 0 0 0 2 0
2 50 122 104 28 82 1 0 24 21 6 12 0 3 0 18 24 8 6 2 0 0 0 0 0 4 2 2 1 0 0 0 1 0 0 1 0 1 4 2 0 0 0 0 0 0 1
14 32 88 133 25 30 9 20 40 33 5 0 0 0 1 49 24 2 0 2 0 0 0 0 0 0 0 0 0 0 0 0 0 1 0 0 0 0 0 0 0 0 0 0 0 0 0
13 28 26 32 18 15 12 19 36 22 0 0 3 0 3 23 0 0 1 0 1 0 0 3 0 0 0 0 0 0 0 0 0 0 0 0 0 0 0 0 0 0 0 0 0 0 0
22 40 24 25 34 15 24 17 27 22 1 0 0 1 8 10 0 1 0 0 0 0 4 15 9 0 0 0 0 1 0 0 0 0 0 0 0 0 0 0 0 0 0 0 0 0 0
15 16 38 38 24 15 8 0 0 14 1 0 2 0 4 4 1 0 0 0 0 0 1 6 0 0 0 0 0 0 0 0 0 0 0 0 0 0 0 0 0 0 0 0 0 0 0
16 14 19 6 31 19 22 21 22 0 1 0 0 0 0 0 0 0 0 0 0 4 1 3 3 0 0 0 0 0 0 0 0 0 0 0 0 0 0 0 0 0 0 0 0 0 0
12 9 7 9 16 16 9 3 13 20 3 2 0 1 1 6 1 0 0 0 0 2 13 1 7 0 0 0 0 0 0 0 0 0 0 0 0 0 0 0 0 0 0 0 0 0 0
9 7 8 8 4 5 3 22 3 2 2 2 0 0 0 1 0 0 0 0 0 1 0 0 0 1 0 0 0 0 0 0 0 0 0 0 0 0 0 0 0 0 0 0 0 0 0
5 0 2 3 4 2 1 20 16 1 0 0 0 0 0 0 0 1 0 0 0 0 1 0 0 3 0 0 0 0 0 0 0 0 0 0 0 0 0 0 0 0 0 0 0 0 0
1 1 1 1 2 4 2 4 0 0 0 0 0 0 0 0 1 1 0 0 0 0 0 0 0 0 0 0 0 0 0 0 0 0 0 0 0 0 0 0 0 0 0 0 0 0 0
1 0 0 0 2 0 0 0 0 0 0 0 0 0 0 0 0 0 1 0 0 0 0 0 0 0 0 0 0 0 0 0 0 0 0 0 0 0 0 0 0 0 0 0 0 0 0
1 0 0 1 1 0 0 0 0 0 0 0 0 0 0 0 0 0 2 0 0 0 0 0 0 0 0 0 0 0 0 0 0 0 1 0 0 0 0 0 0 0 0 0 0 0 0
0 0 0 3 0 0 0 0 0 0 0 0 0 0 0 0 0 0 0 0 0 0 0 0 0 0 0 2 0 0 0 0 0 0 0 0 0 0 0 0 0 0 0 0 0 0 0
0 0 1 2 0 0 0 0 0 0 0 0 0 0 0 0 0 0 0 0 0 0 0 0 0 0 0 0 0 0 0 0 0 0 0 0 0 0 0 0 0 0 0 0 0 0 0

GFSGBSN_con_mlcape_099.txt.gz
CAPE
17 17 20 24 30 37 37 24 7 1 0 12 23 16 13 13 1 3 10 17 2 2 0 0 0 3 0 0 0 0 0 0 0 0 1 5 6 16 16 9 2 5 0 0 0 0 0
17 26 32 33 34 22 32 34 35 28 17 5 0 11 7 5 3 0 1 36 3 14 0 0 11 3 4 0 0 0 0 0 0 0 6 1 3 2 15 20 11 8 9 7 1 0 0
10 10 23 26 20 21 30 33 42 44 36 17 3 0 2 3 2 0 2 6 1 3 0 7 17 5 0 0 0 0 0 0 0 0 11 6 9 5 15 3 0 9 11 7 0 1 2
20 20 19 21 29 22 29 37 58 41 38 38 12 0 0 0 0 0 53 3 11 0 0 21 7 14 0 0 0 0 0 0 0 0 1 4 13 18 7 4 8 7 4 0 0 2 2
14 20 22 10 22 35 45 59 55 58 61 32 25 20 0 0 0 2 20 1 0 0 14 25 14 8 3 0 0 0 0 0 11 10 8 2 14 5 8 3 11 7 0 0 0 5 19
17 13 14 15 6 35 43 64 84 77 46 29 47 56 6 0 0 12 2 8 35 10 16 26 14 1 0 0 0 0 0 0 3 29 13 5 9 7 18 5 0 1 4 4 15 3 4
14 11 5 17 22 24 49 59 75 104 106 107 65 49 15 0 0 25 6 0 5 0 6 0 0 1 0 0 0 0 0 0 5 12 5 16 8 1 3 5 0 6 1 0 5 0 9
21 10 18 15 19 20 26 51 84 101 126 106 103 68 4 1 181 141 0 0 0 0 1 0 2 15 1 0 0 0 0 1 6 3 19 0 0 0 1 5 5 9 2 0 48 30 4
29 22 32 24 38 38 73 109 133 140 177 118 85 46 18 17 72 3 7 0 0 0 0 1 4 6 3 0 0 0 0 0 0 4 6 4 3 8 5 1 4 3 2 9 18 6 31
57 38 2 1 35 42 107 116 95 136 162 125 43 49 15 26 17 9 2 0 0 0 0 2 4 5 0 0 0 0 0 0 0 1 4 9 7 11 15 5 6 2 15 5 0 0 4
35 18 0 14 27 75 112 66 103 48 22 23 0 20 15 2 73 50 16 8 11 1 0 1 5 1 6 2 0 0 0 2 0 4 2 9 11 2 5 5 1 14 12 4 0 0 0
25 4 6 14 56 67 57 132 30 21 31 0 25 17 13 2 4 55 0 2 0 0 0 3 2 1 7 3 0 1 0 0 2 4 3 1 9 3 17 4 2 0 12 14 12 5 1
15 2 7 48 53 31 5 142 20 0 22 8 6 18 3 7 15 48 10 0 0 0 0 2 4 7 5 3 4 1 0 5 2 3 0 12 8 2 7 0 1 9 0 0 2 0 0
0 3 14 33 19 24 27 1 24 7 2 1 7 3 0 4 20 7 0 0 0 1 2 2 5 4 11 8 11 3 2 5 0 2 6 7 1 0 1 2 0 6 0 1 5 2 1
0 19 21 24 20 24 5 2 26 1 0 0 0 50 21 11 24 3 5 0 0 0 0 7 3 7 4 4 7 3 0 11 8 6 0 8 1 1 3 0 1 9 1 0 4 2 0
9 12 13 26 17 2 19 13 35 1 0 0 34 41 19 31 41 8 1 0 0 0 1 0 3 11 1 2 2 0 3 0 15 0 1 3 0 0 3 4 0 1 0 1 0 0 0
26 12 19 37 25 9 17 21 25 8 0 0 56 17 6 53 8 8 2 2 0 0 0 2 10 9 5 0 2 6 0 0 1 5 0 2 0 0 2 3 2 1 0 0 0 0 0
33 16 24 32 22 13 31 3 29 8 0 1 6 3 0 12 4 4 8 1 0 2 0 1 4 10 12 5 11 11 7 1 0 2 1 0 2 0 0 0 0 0 0 0 0 0 0
26 15 13 6 12 5 12 10 21 0 0 1 8 1 11 10 3 1 1 0 0 0 7 9 10 9 0 14 5 7 8 0 0 0 0 0 0 0 0 0 0 0 0 0 0 0 0
27 5 8 9 11 19 2 0 1 0 0 0 1 0 2 1 1 2 0 0 2 0 1 4 5 0 12 16 0 3 7 0 0 0 0 0 0 0 0 0 0 0 0 0 0 0 0
18 5 6 7 2 8 21 16 0 0 0 1 1 4 1 0 4 5 0 0 2 0 5 9 6 5 16 4 0 1 0 0 0 0 0 0 0 0 0 0 0 0 0 0 0 0 0
7 2 3 3 10 12 1 10 2 0 0 2 0 2 2 8 2 0 0 0 1 2 1 10 6 3 11 4 0 0 0 0 0 0 0 0 0 0 0 0 0 0 0 0 0 0 0
4 1 2 3 8 7 1 0 5 1 0 2 4 0 2 1 0 1 0 3 0 2 0 0 3 9 3 0 0 0 0 0 0 0 0 0 0 0 0 0 0 0 0 0 0 0 0
1 0 2 3 3 6 4 0 0 0 0 0 0 1 2 1 0 0 0 0 0 0 1 0 0 11 0 0 0 0 0 0 0 0 0 0 0 0 0 0 0 0 0 0 0 0 0
0 0 1 3 1 0 1 0 0 0 0 0 0 0 0 1 0 0 0 0 0 0 0 0 0 0 0 0 2 0 0 0 0 0 0 0 0 0 0 0 0 0 0 0 0 0 0
0 1 0 2 0 0 0 0 0 0 0 0 0 0 0 0 0 0 0 0 0 0 0 0 0 0 0 0 0 1 0 0 0 0 0 0 0 0 0 0 0 0 0 0 0 0 0
0 0 0 4 0 0 0 0 0 0 0 0 0 0 0 0 0 0 0 0 0 0 4 0 0 0 0 3 2 0 0 0 0 0 1 2 0 0 0 0 0 0 0 0 0 0 0
0 0 0 3 0 0 0 0 0 0 0 0 0 0 0 0 0 0 0 0 0 0 4 0 0 0 2 9 1 0 0 0 0 0 0 0 0 0 0 0 0 0 0 0 0 0 0
0 0 0 4 0 0 0 0 0 0 0 0 0 0 0 0 0 0 0 0 0 0 0 0 0 0 2 3 0 0 0 0 0 0 0 0 0 0 0 0 0 0 0 0 0 0 0

GFSGBSN_con_mlcape_102.txt.gz
CAPE
22 19 19 13 22 23 18 18 25 33 25 27 26 26 6 10 10 5 3 3 8 15 2 0 0 0 0 0 0 0 0 0 0 0 0 2 3 2 1 2 3 0 0 0 0 0 0
28 18 18 15 19 23 31 21 19 19 35 34 23 29 18 4 8 2 1 3 20 15 2 0 0 10 0 0 0 0 0 0 0 0 0 3 1 2 6 0 2 0 0 0 1 2 0
15 24 20 11 15 7 17 32 31 22 19 33 42 50 19 4 5 0 0 3 93 8 0 0 4 4 9 0 0 0 0 0 0 0 3 4 6 4 4 0 2 6 0 0 0 0 0
13 10 15 15 12 8 2 11 30 36 38 29 41 42 46 14 2 0 0 61 21 0 0 22 8 14 1 0 0 0 0 0 0 0 0 2 1 6 10 0 0 0 6 0 0 0 0
23 29 13 6 8 5 0 3 21 27 42 33 9 23 51 33 3 0 64 71 13 0 0 45 0 16 0 0 0 0 0 0 0 7 8 2 2 1 2 0 0 0 0 0 0 0 0
40 46 32 28 30 5 0 24 48 80 58 31 26 23 30 56 4 0 41 6 23 33 8 22 5 8 0 0 0 0 0 0 3 17 16 1 0 2 2 3 0 0 0 2 0 0 0
62 71 51 35 17 16 5 32 27 43 98 77 90 41 50 55 0 96 39 3 0 2 2 0 0 0 0 0 0 0 0 0 1 2 0 9 3 0 0 0 1 0 1 0 0 0 1
65 80 5 2 10 17 27 37 64 80 5 82 137 53 31 34 93 192 27 5 14 0 1 0 1 4 2 0 0 0 0 0 3 2 1 0 0 0 0 0 3 2 1 0 0 2 0
72 15 0 0 17 26 49 60 99 87 42 85 110 38 10 10 26 39 12 12 0 0 16 4 0 6 0 0 1 0 0 0 0 5 3 0 0 0 2 1 5 1 0 0 1 0 4
22 5 2 17 18 23 26 37 137 53 21 7 0 7 12 15 0 29 12 0 0 2 0 1 0 1 0 3 0 0 0 3 0 0 4 1 0 0 12 12 21 0 5 11 1 0 0
13 3 19 20 5 11 32 23 24 82 9 0 0 5 26 1 25 44 35 1 1 5 0 1 4 4 5 0 0 0 0 1 0 4 0 0 10 0 0 6 2 0 0 3 3 0 0
0 14 13 7 3 8 24 16 0 0 0 2 2 0 10 1 0 30 4 1 0 0 0 1 0 9 0 1 0 0 0 0 0 0 1 0 0 2 10 9 3 0 0 0 0 1 0
0 14 8 3 11 17 12 18 0 0 0 0 5 6 3 25 22 38 6 0 0 0 0 0 2 0 2 2 1 0 0 0 0 0 0 0 1 4 0 0 0 1 1 0 0 0 0
0 10 20 26 18 15 28 34 0 0 0 0 0 2 0 20 28 4 0 0 0 0 1 2 0 5 12 6 5 0 0 0 0 2 0 0 0 0 0 2 1 2 0 0 0 0 0
2 4 24 27 3 1 21 34 6 0 0 0 2 9 18 16 28 2 0 0 0 0 0 1 9 3 1 0 0 0 0 1 12 2 0 0 1 3 0 2 1 2 1 0 0 0 0
2 5 21 19 7 4 0 0 0 0 0 0 13 4 0 29 5 0 0 0 0 2 1 0 8 2 0 0 0 0 0 3 10 0 0 1 0 0 0 0 0 0 0 0 0 0 0
3 3 9 9 14 0 2 0 0 0 0 0 1 0 5 12 2 0 0 0 0 0 0 2 20 3 0 0 0 0 7 5 0 3 1 2 0 0 1 1 0 0 0 0 0 0 0
9 11 7 7 7 3 0 0 0 0 0 0 0 0 10 0 0 0 0 0 0 0 0 0 21 15 2 0 2 8 8 0 0 1 0 0 0 0 0 0 0 0 0 0 0 0 0
7 9 7 5 7 10 0 0 0 0 0 0 0 0 1 2 0 0 0 0 0 0 8 3 3 0 0 5 0 6 2 0 0 0 0 0 0 1 0 0 0 0 0 0 0 0 0
12 8 2 5 6 18 17 1 0 0 0 0 1 0 0 1 0 1 0 0 0 0 7 2 0 0 7 5 0 0 0 0 0 0 0 0 0 0 0 0 0 0 0 0 0 0 0
9 8 4 3 0 15 18 16 0 0 0 0 1 0 0 1 8 0 0 0 1 0 4 0 0 1 8 2 0 0 0 0 0 0 0 0 0 0 0 0 0 0 0 0 0 0 0
2 4 3 5 15 15 8 2 4 0 0 0 1 1 3 1 0 0 0 0 0 0 1 0 9 1 0 0 3 0 0 0 0 0 0 0 0 0 0 0 0 0 0 0 0 0 0
0 1 2 5 10 10 2 1 3 0 0 0 0 0 0 1 0 0 0 0 0 0 0 0 0 5 0 0 0 0 0 0 0 0 0 0 0 0 0 0 0 0 0 0 0 0 0
0 0 0 2 5 1 0 0 1 0 0 0 0 0 0 1 0 0 0 0 0 0 0 0 0 0 0 0 0 0 0 0 0 0 0 0 0 0 0 0 0 0 0 0 0 0 0
0 0 0 2 4 0 0 0 0 0 0 0 0 0 1 0 0 0 0 0 0 0 0 0 0 0 0 0 0 0 0 0 0 0 0 0 0 0 0 0 0 0 0 0 0 0 0
0 0 0 3 5 0 0 0 0 0 0 0 0 0 0 0 0 0 0 0 0 0 0 0 0 0 0 0 0 0 0 0 0 0 0 0 0 0 0 0 0 0 0 0 0 0 0
0 0 0 3 6 0 0 0 0 0 0 0 0 0 0 0 0 0 0 0 0 0 0 0 0 0 0 0 0 0 0 0 0 0 0 0 0 0 0 0 0 0 0 0 0 0 0
0 0 0 1 2 0 0 0 0 0 0 0 0 0 0 0 0 0 0 0 0 0 0 0 0 0 0 0 0 0 0 0 0 0 0 0 0 0 0 0 0 0 0 0 0 0 0
0 0 0 0 3 0 0 0 0 0 0 0 0 0 0 0 0 0 0 0 0 0 0 0 0 0 0 0 0 0 0 0 0 0 0 0 0 0 0 0 0 0 0 0 0 0 0

GFSGBSN_con_mlcape_105.txt.gz
CAPE
12 14 21 31 40 31 31 20 35 51 56 51 50 60 52 52 24 10 8 3 5 15 54 5 0 0 1 0 0 0 0 1 0 0 0 0 0 0 0 0 0 0 0 0 0 0 0
27 25 23 20 15 14 12 15 6 15 42 60 54 55 55 45 37 13 3 0 1 11 94 7 8 4 0 0 0 0 0 0 0 0 0 0 0 2 0 0 0 0 0 0 0 0 0
40 20 25 29 24 18 10 5 13 14 25 39 56 79 51 23 40 21 7 0 3 91 103 4 53 0 0 0 0 0 0 0 0 0 0 4 4 2 0 0 0 2 0 0 0 0 0
34 58 62 64 74 60 25 12 5 2 66 58 59 69 21 35 36 9 6 95 137 120 17 1 75 1 0 0 0 0 0 0 0 0 1 1 0 6 0 1 0 0 0 0 0 0 0
65 79 113 146 6 2 7 24 2 30 85 90 19 106 21 10 17 7 4 51 139 38 1 15 1 3 1 0 0 0 0 0 0 0 2 7 1 2 0 0 0 0 0 0 0 0 0
72 52 1 6 3 7 5 17 31 52 129 119 0 20 14 7 23 18 13 21 62 57 23 7 0 0 0 0 0 0 0 0 6 29 21 4 0 1 1 0 0 0 0 0 0 0 0
6 22 2 0 2 20 33 26 23 53 149 78 36 77 17 20 53 15 33 12 0 0 10 1 0 2 0 0 0 0 0 0 4 9 1 17 0 0 0 0 0 0 0 0 0 0 2
24 10 3 17 19 17 22 16 34 29 101 56 57 38 2 39 9 214 13 23 3 0 0 1 1 6 2 0 0 0 0 0 2 1 7 1 0 0 0 0 0 0 0 0 0 0 0
14 0 29 18 30 25 22 14 66 51 60 22 17 7 1 0 0 38 2 12 7 0 3 4 2 6 2 0 1 0 0 0 4 0 0 0 0 0 0 0 0 0 0 0 0 0 0
0 13 36 16 27 9 27 2 1 9 51 11 0 14 2 0 0 0 0 0 2 1 0 0 4 4 4 4 4 0 0 1 0 0 0 0 0 0 0 1 4 0 0 4 5 0 0
0 27 15 13 17 15 36 1 0 12 6 7 0 8 0 0 1 11 5 0 3 5 0 1 2 2 10 4 0 0 0 0 0 0 1 0 1 0 0 0 2 0 0 0 0 2 0
1 21 30 4 2 35 41 11 0 2 18 19 0 9 4 0 1 4 10 3 0 0 0 0 0 3 0 4 0 0 0 0 0 0 0 0 0 0 0 0 0 0 1 0 0 0 0
4 19 36 7 0 12 21 3 1 4 2 11 4 3 3 4 2 2 0 0 0 0 1 0 3 0 0 0 0 0 0 0 0 0 0 0 0 0 3 0 0 1 2 0 0 0 0
5 18 26 6 0 15 1 0 0 0 0 0 1 0 0 0 0 0 0 0 0 0 0 0 0 0 4 0 3 0 0 0 0 0 0 0 0 0 0 2 2 0 0 0 0 0 0
4 18 17 3 0 5 4 0 0 0 0 0 0 0 0 0 0 0 0 0 0 0 2 2 6 0 2 0 0 0 0 0 4 0 0 0 0 1 0 1 0 3 0 1 0 0 0
3 21 9 18 8 3 2 0 2 0 0 0 0 0 0 0 0 0 0 0 0 0 0 2 2 0 0 0 0 0 0 0 9 6 1 1 0 0 1 0 0 0 0 0 0 0 0
4 11 8 7 15 19 8 0 0 0 0 0 0 0 0 0 0 0 0 1 0 0 0 2 0 0 0 0 0 0 0 0 2 2 1 1 0 0 0 0 0 0 0 0 0 0 0
4 5 9 5 2 16 21 8 0 0 0 0 0 0 0 0 0 0 0 0 0 0 0 0 2 0 0 0 0 4 4 0 0 1 1 0 0 0 0 0 0 0 0 0 0 0 0
3 3 3 4 1 11 17 36 2 0 0 0 0 0 0 0 0 0 0 0 0 0 0 0 0 0 0 0 0 3 0 0 0 1 0 0 0 0 0 0 0 0 0 0 0 0 0
1 2 1 0 1 1 10 10 15 0 0 0 0 0 0 0 0 0 0 0 0 0 0 0 0 0 0 0 0 0 0 0 0 0 0 0 0 0 0 0 0 0 0 0 0 0 0
1 1 2 2 7 4 6 5 2 0 0 0 0 0 0 0 0 0 0 0 0 0 0 0 0 0 0 0 0 0 0 0 0 0 0 0 0 0 0 0 0 0 0 0 0 0 0
0 0 1 3 5 6 2 0 0 0 0 0 0 0 1 0 0 0 0 0 0 0 0 0 0 0 0 0 0 0 0 0 0 0 0 0 0 0 0 0 0 0 0 0 0 0 0
0 0 1 4 4 0 0 0 0 0 0 0 0 0 0 0 0 0 0 0 0 0 0 0 0 0 0 0 0 0 0 0 0 0 0 0 0 0 0 0 0 0 0 0 0 0 0
0 0 1 3 4 0 0 0 0 0 0 0 0 0 0 0 0 0 0 0 0 0 0 0 0 0 0 0 0 0 0 0 0 0 0 0 0 0 0 0 0 0 0 0 0 0 0
0 0 0 1 8 0 0 0 0 0 0 0 0 0 0 0 0 0 0 0 0 0 0 0 0 0 0 0 0 0 0 0 0 0 0 0 0 0 0 0 0 0 0 0 0 0 0
0 0 0 0 1 0 0 0 0 0 0 0 0 0 0 0 0 0 0 0 0 0 0 0 0 0 0 0 0 0 0 0 0 0 0 0 0 0 0 0 0 0 0 0 0 0 0
0 0 0 0 2 0 0 0 0 0 0 0 0 0 0 0 0 0 0 0 0 0 0 0 0 0 0 0 0 0 0 0 0 0 0 0 0 0 0 0 0 0 0 0 0 0 0
0 0 0 0 0 0 0 0 0 0 0 0 0 0 0 0 0 0 0 0 0 0 0 0 0 0 0 0 0 0 0 0 0 0 0 0 0 0 0 0 0 0 0 0 0 0 0
0 0 0 0 0 0 0 0 0 0 0 0 0 0 0 0 0 0 0 0 0 0 0 0 0 0 0 0 0 0 0 0 0 0 0 0 0 0 0 0 0 0 0 0 0 0 0

GFSGBSN_con_mlcape_108.txt.gz
CAPE
36 67 72 82 94 109 73 39 26 33 50 55 85 115 106 92 104 62 28 10 0 0 1 48 23 6 2 0 0 0 1 4 0 0 0 0 0 0 0 0 0 0 0 0 0 0 0
55 75 88 132 132 134 108 108 60 56 11 3 30 89 92 80 27 60 16 7 1 0 16 115 4 13 1 0 0 0 0 0 0 0 0 0 0 0 0 0 0 0 0 0 0 0 0
37 54 67 24 7 4 3 38 59 5 74 17 51 63 74 41 27 30 7 2 1 21 20 55 7 20 16 0 0 0 0 0 0 0 0 0 0 0 0 0 0 0 0 0 0 0 0
59 17 39 34 43 50 46 25 27 30 16 33 30 40 31 113 31 12 2 0 68 74 55 40 31 0 9 4 0 0 0 0 0 0 0 2 0 0 2 0 0 0 0 0 0 0 0
18 66 29 8 29 32 58 61 40 33 36 58 91 40 29 0 17 27 0 0 158 171 134 67 0 0 3 1 1 0 0 0 0 1 2 15 0 0 0 0 0 0 0 0 0 0 0
70 43 4 35 27 70 82 53 101 73 68 131 34 15 16 11 5 21 33 0 66 63 21 0 0 5 1 0 0 0 0 0 0 13 11 5 2 0 0 2 0 0 0 0 0 0 0
50 3 38 20 40 58 68 18 143 123 101 80 25 29 3 17 42 23 25 0 0 2 8 3 0 0 0 0 0 0 0 0 20 15 0 6 0 0 0 0 0 0 0 0 0 0 0
1 18 17 33 58 77 71 25 22 40 71 33 14 11 19 11 47 95 18 19 0 0 1 0 4 0 1 0 0 0 0 0 6 0 4 2 0 0 0 0 0 0 0 0 0 0 0
1 23 11 35 34 75 57 9 24 14 33 20 8 0 1 0 24 13 8 1 0 3 1 3 2 8 3 5 0 0 0 0 0 0 0 0 0 0 0 0 2 3 0 0 0 0 0
6 13 27 29 15 50 32 3 38 34 5 1 5 0 0 0 0 0 1 14 0 0 0 0 3 2 0 0 0 0 0 0 0 0 0 0 0 0 0 0 1 2 0 1 7 2 0
14 14 11 25 16 15 30 13 32 35 0 10 3 0 0 0 0 8 0 0 0 0 0 0 2 2 1 3 0 0 0 0 0 0 0 0 0 9 0 0 1 0 2 0 0 0 0
19 8 14 17 9 10 20 20 2 9 0 0 4 0 0 0 0 1 1 0 0 0 0 0 0 6 1 1 0 0 0 0 0 0 0 0 0 0 0 0 4 0 0 0 0 1 0
16 3 18 9 5 6 14 3 4 0 0 0 0 0 0 0 0 0 0 0 0 0 0 0 0 0 0 0 0 0 0 0 0 0 0 0 0 0 1 1 0 1 0 0 0 0 0
13 5 5 6 9 2 3 2 12 6 0 0 0 0 0 0 0 0 0 0 0 1 0 0 0 0 0 0 0 0 0 0 0 0 0 0 0 0 0 0 0 1 2 0 0 0 0
13 18 4 1 4 18 1 0 0 0 0 0 0 0 0 0 0 0 0 0 2 2 0 0 0 0 0 0 0 0 0 0 0 0 0 0 0 0 0 1 1 1 0 1 0 0 0
6 9 5 0 0 6 16 1 0 0 0 0 0 0 0 0 0 0 0 0 1 1 0 0 0 0 0 0 0 0 0 3 3 3 4 1 0 0 1 0 0 0 2 0 0 0 0
2 4 6 2 0 0 10 12 0 0 0 0 0 0 0 0 0 0 0 0 0 0 0 0 0 0 0 0 0 0 0 0 8 3 2 0 0 0 0 0 0 0 0 0 0 0 0
0 2 3 1 0 0 0 1 1 0 0 0 0 0 0 0 0 0 0 0 0 0 0 0 0 0 0 0 0 0 0 0 1 3 0 0 0 0 0 0 0 0 0 0 0 0 0
0 2 1 5 4 0 0 0 0 0 0 0 0 0 0 0 0 0 0 0 0 0 0 0 0 0 0 0 0 0 0 0 0 0 0 0 0 0 0 0 0 0 0 0 0 0 0
0 2 2 1 7 3 0 0 0 0 0 0 0 0 0 0 0 0 0 0 0 0 0 0 0 0 0 0 0 0 0 0 0 0 0 0 0 0 0 0 0 0 0 0 0 0 0
0 1 2 1 5 10 3 0 0 0 0 0 0 0 0 0 0 0 0 0 0 0 0 0 0 0 0 0 0 0 0 0 0 0 0 0 0 0 0 0 0 0 0 0 0 0 0
0 0 2 1 1 10 3 0 0 0 0 0 0 0 0 0 0 0 0 0 0 0 0 0 0 0 0 0 0 0 0 0 0 0 0 0 0 0 0 0 0 0 0 0 0 0 0
0 0 1 0 0 0 0 0 0 0 0 0 0 0 0 0 0 0 0 0 0 0 0 0 0 0 0 0 0 0 0 0 0 0 0 0 0 0 0 0 0 0 0 0 0 0 0
0 0 0 0 0 0 3 0 0 0 0 0 0 0 0 0 0 0 0 0 0 0 0 0 0 0 0 0 0 0 0 0 0 0 0 0 0 0 0 0 0 0 0 0 0 0 0
0 0 0 0 0 0 0 0 0 0 0 0 0 0 0 0 0 0 0 0 0 0 0 0 0 0 0 0 0 0 0 0 0 0 0 0 0 0 0 0 0 0 0 0 0 0 0
0 0 0 0 0 0 0 0 0 0 0 0 0 0 0 0 0 0 0 0 0 0 0 0 0 0 0 0 0 0 0 0 0 0 0 0 0 0 0 0 0 0 0 0 0 0 0
0 0 0 0 0 0 0 0 0 0 0 0 0 0 0 0 0 0 0 0 0 0 0 0 0 0 0 0 0 0 0 0 0 0 0 0 0 0 0 0 0 0 0 0 0 0 0
0 0 0 0 0 0 0 0 0 0 0 0 0 0 0 0 0 0 0 0 0 0 0 0 0 0 0 0 0 0 0 0 0 0 0 0 0 0 0 0 0 0 0 0 0 0 0
0 0 0 0 0 0 0 0 0 0 0 0 0 0 0 0 0 0 0 0 0 0 0 0 0 0 0 0 0 0 0 0 0 0 0 0 0 0 0 0 0 0 0 0 0 0 0

GFSGBSN_con_mlcape_111.txt.gz
CAPE
67 77 83 72 71 54 35 18 19 100 56 64 41 23 17 63 97 93 74 34 16 0 0 1 36 6 0 0 0 0 15 14 0 0 0 0 0 0 0 0 0 0 0 0 0 0 0
78 48 71 10 10 15 27 71 62 35 92 114 85 57 41 44 88 26 8 31 23 18 0 12 139 31 0 0 0 0 0 0 0 0 0 0 0 0 0 0 0 0 0 0 0 0 0
73 62 5 18 33 57 122 145 135 140 87 64 55 32 27 0 21 29 23 33 10 1 12 33 86 0 0 0 0 13 2 0 0 0 0 0 0 0 0 0 0 0 0 0 0 0 0
40 3 26 17 27 79 123 78 94 131 102 46 49 25 7 5 9 39 16 1 0 54 43 38 21 0 0 0 0 9 0 0 0 0 0 0 0 0 0 0 0 0 0 0 0 0 0
0 18 13 17 28 25 69 76 64 121 144 75 28 14 20 79 11 1 28 0 43 267 86 74 4 7 2 6 10 4 0 0 0 0 0 0 0 0 0 0 0 0 0 0 0 0 0
8 32 21 18 20 26 13 29 44 41 124 73 28 9 14 24 19 20 3 0 27 20 21 10 7 0 3 0 0 0 0 0 0 0 2 0 0 0 0 0 0 0 0 0 0 0 0
25 34 16 12 15 19 11 49 22 29 79 10 16 24 10 14 8 20 0 0 1 2 5 1 1 2 2 0 0 0 0 0 2 0 0 0 0 0 0 0 0 0 2 0 0 0 0
29 24 13 10 17 17 6 27 22 16 13 0 0 3 1 26 77 5 0 0 0 0 0 10 0 0 0 1 2 0 0 0 1 0 0 0 0 0 0 0 0 0 2 0 0 0 0
11 20 12 10 12 9 2 25 10 24 18 1 0 0 0 0 2 4 9 0 11 0 0 2 10 6 5 4 0 0 0 0 0 0 0 0 0 0 0 0 0 0 0 0 1 0 0
6 23 12 11 8 6 0 6 18 21 15 7 0 0 0 0 0 0 1 0 0 0 0 0 1 1 1 4 0 0 0 0 0 0 0 0 0 0 0 0 0 0 0 1 0 1 0
8 23 15 12 3 3 0 0 5 25 19 0 0 0 0 0 0 1 1 0 0 0 0 0 2 0 3 0 0 0 0 0 0 0 0 0 0 0 0 0 1 0 0 0 2 1 0
10 7 18 15 1 0 0 0 0 5 23 7 0 0 0 0 0 3 1 0 0 0 0 0 0 2 0 0 0 0 0 0 0 0 0 0 0 0 0 0 0 1 0 0 0 0 0
5 2 18 13 3 0 0 0 0 0 1 7 0 0 0 0 0 0 0 0 0 0 0 0 0 0 0 0 0 0 0 0 0 0 0 0 0 0 0 0 0 1 2 0 0 0 0
2 3 8 17 4 0 0 0 0 0 0 0 0 0 0 0 0 0 0 0 0 1 1 0 0 0 0 0 0 0 0 0 0 0 0 0 0 0 0 1 3 0 0 0 0 0 0
2 5 3 11 13 1 0 0 0 0 0 0 0 0 0 0 0 0 0 0 0 0 0 0 0 0 0 0 0 0 0 0 0 0 0 0 0 0 0 0 1 1 1 1 0 0 0
1 3 11 6 12 6 0 0 0 0 0 0 0 0 0 0 0 0 0 1 0 0 0 0 0 0 0 0 0 0 0 1 0 0 1 2 0 0 0 0 0 1 2 0 0 0 0
0 3 5 5 4 6 2 0 0 0 0 0 0 0 0 0 0 0 0 0 1 0 0 0 0 0 0 0 0 0 0 0 1 3 3 1 0 0 0 0 0 0 0 0 1 0 0
0 2 3 1 9 6 4 0 0 0 0 0 0 0 0 0 0 0 0 0 0 0 0 0 0 0 0 0 0 0 0 0 0 0 0 0 0 0 0 0 0 0 0 0 0 0 0
0 0 1 0 3 7 5 0 0 0 0 0 0 0 0 0 0 0 0 0 0 0 0 0 0 0 0 0 0 0 0 0 0 0 0 0 0 0 0 0 0 0 0 0 0 0 0
0 0 1 1 0 4 7 0 0 0 0 0 0 0 0 0 0 0 0 0 0 0 0 0 0 0 0 0 0 0 0 0 0 0 0 0 0 0 0 0 0 0 0 0 0 0 0
0 0 0 0 0 1 5 0 0 0 0 0 0 0 0 0 0 0 0 0 0 0 0 0 0 0 0 0 0 0 0 0 0 0 0 0 0 0 0 0 0 0 0 0 0 0 0
0 0 0 1 4 0 0 0 0 0 0 0 0 0 0 0 0 0 0 0 0 0 0 0 0 0 0 0 0 0 0 0 0 0 0 0 0 0 0 0 0 0 0 0 0 0 0
0 0 0 0 3 3 0 0 0 0 0 0 0 0 0 0 0 0 0 0 0 0 0 0 0 0 0 0 0 0 0 0 0 0 0 0 0 0 0 0 0 0 0 0 0 0 0
0 0 0 0 3 0 0 0 0 0 0 0 0 0 0 0 0 0 0 0 0 0 0 0 0 0 0 0 0 0 0 0 0 0 0 0 0 0 0 0 0 0 0 0 0 0 0
0 0 0 0 0 1 0 0 0 0 0 0 0 0 0 0 0 0 0 0 0 0 0 0 0 0 0 0 0 0 0 0 0 0 0 0 0 0 0 0 0 0 0 0 0 0 0
0 0 0 0 0 0 0 0 0 0 0 0 0 0 0 0 0 0 0 0 0 0 0 0 0 0 0 0 0 0 0 0 0 0 0 0 0 0 0 0 0 0 0 0 0 0 0
0 0 0 0 0 0 0 0 0 0 0 0 0 0 0 0 0 0 0 0 0 0 0 0 0 0 0 0 0 0 0 0 0 0 0 0 0 0 0 0 0 0 0 0 0 0 0
0 0 0 0 0 0 0 0 0 0 0 0 0 0 0 0 0 0 0 0 0 0 0 0 0 0 0 0 0 0 0 0 0 0 0 0 0 0 0 0 0 0 0 0 0 0 0
0 0 0 0 0 0 0 0 0 0 0 0 0 0 0 0 0 0 0 0 0 0 0 0 0 0 0 0 0 0 0 0 0 0 0 0 0 0 0 0 0 0 0 0 0 0 0

GFSGBSN_con_mlcape_114.txt.gz
CAPE
18 0 13 30 27 37 92 120 134 151 194 63 68 48 45 68 31 57 91 74 64 27 0 0 7 59 0 0 0 0 27 9 0 0 0 0 0 0 0 0 0 0 0 0 0 0 0
0 7 16 34 26 23 21 54 123 104 154 189 68 83 29 21 2 3 27 42 28 18 5 0 25 0 0 2 0 1 0 0 0 0 0 0 0 0 0 0 0 0 0 0 0 0 0
4 23 35 39 15 14 22 38 97 114 241 130 69 7 0 10 1 0 12 12 19 1 4 20 31 37 4 1 0 0 0 0 0 0 0 0 0 0 0 0 0 0 0 0 0 0 0
17 27 20 17 10 15 41 92 68 120 185 111 24 16 15 6 9 10 17 3 0 0 2 40 77 14 6 1 0 0 0 0 0 0 0 0 0 0 0 0 0 0 0 0 0 0 0
15 21 25 7 17 28 30 29 78 74 92 32 7 7 20 24 10 0 4 33 150 203 85 65 19 5 2 1 1 0 0 0 0 0 0 0 0 0 0 0 0 0 0 0 0 0 0
16 27 11 10 11 25 10 9 38 58 33 63 47 1 7 29 18 22 25 16 80 5 13 10 5 0 4 1 0 0 0 0 0 0 0 0 0 0 0 0 0 0 0 0 0 0 0
13 31 12 8 5 12 14 21 10 8 10 29 13 9 37 60 5 0 0 0 13 1 12 2 0 2 4 0 1 1 1 0 0 0 0 0 0 0 0 0 0 0 0 0 0 0 0
5 24 7 9 3 2 6 9 17 10 7 20 20 14 22 33 18 24 0 0 0 1 2 11 5 4 3 0 1 1 0 0 3 0 0 0 0 0 0 0 0 0 0 0 0 0 0
0 29 15 12 3 0 0 5 12 10 3 16 37 2 0 14 2 0 0 0 3 0 0 4 12 7 4 3 3 1 1 0 0 0 0 0 0 0 0 0 0 0 0 0 0 0 0
0 32 28 11 5 0 0 0 0 0 0 0 3 6 0 0 0 0 0 0 0 0 0 0 1 0 10 5 0 0 0 0 0 0 0 0 0 0 0 0 0 0 0 0 0 0 0
10 0 38 14 6 0 0 0 0 0 0 0 0 0 0 0 0 0 0 0 0 0 0 0 1 0 5 0 0 0 0 0 0 0 0 0 0 0 0 0 0 0 0 0 0 1 0
10 1 12 22 13 1 0 0 0 0 0 0 0 0 0 0 0 0 0 0 0 0 0 0 8 0 0 0 0 0 0 0 0 0 0 0 0 0 0 0 0 0 0 0 0 0 0
4 7 0 21 28 20 1 0 0 0 0 0 0 0 0 0 0 0 0 0 0 0 0 0 0 0 0 0 0 0 0 0 0 0 0 0 0 0 0 0 0 0 0 0 0 0 0
1 8 1 4 22 20 22 5 0 0 0 0 0 0 0 0 0 0 0 0 0 3 2 0 0 0 0 0 0 0 0 0 0 0 0 0 0 0 0 0 0 0 1 0 0 0 0
2 4 8 0 12 19 10 13 0 0 0 0 0 0 0 0 0 0 0 0 1 1 0 0 0 0 0 0 0 0 0 0 0 0 0 0 0 0 0 0 0 1 0 2 0 0 0
0 1 5 3 0 9 9 6 0 0 0 0 0 0 0 0 0 0 0 1 0 1 0 0 0 0 0 0 0 0 0 0 0 0 0 0 0 0 0 0 0 1 1 0 0 0 0
0 0 1 3 0 0 0 1 0 0 0 0 0 0 0 0 0 0 0 0 0 0 0 0 0 0 0 0 0 0 0 0 0 4 6 1 0 0 0 0 0 0 0 0 0 0 0
0 0 2 0 0 1 2 0 0 0 0 0 0 0 0 0 0 0 0 0 0 0 0 0 0 0 0 0 0 2 0 0 0 0 0 0 2 0 0 0 0 0 0 1 0 0 0
0 0 0 2 0 0 1 0 0 0 0 0 0 0 0 0 0 0 0 0 0 0 0 0 0 0 0 0 0 0 0 0 0 0 0 0 0 0 0 0 0 0 0 0 0 0 0
0 0 0 2 0 0 0 1 0 0 0 0 0 0 0 0 0 0 0 0 0 0 0 0 0 0 0 0 0 0 0 0 0 0 0 0 0 0 0 0 0 0 0 0 0 0 0
0 0 0 0 3 1 0 0 0 0 0 0 0 0 0 0 0 0 0 0 0 0 0 0 0 0 0 0 0 0 0 0 0 0 0 0 0 0 0 0 0 0 0 0 0 0 0
0 0 0 0 2 3 0 0 0 0 0 0 0 0 0 0 0 0 0 0 0 0 0 0 0 0 0 0 0 0 0 0 0 0 0 0 0 0 0 0 0 0 0 0 0 0 0
0 0 0 0 1 2 0 0 0 0 0 0 0 0 0 0 0 0 0 0 0 0 0 0 0 0 0 0 0 0 0 0 0 0 0 0 0 0 0 0 0 0 0 0 0 0 0
0 0 0 0 2 0 0 0 0 0 0 0 0 0 0 0 0 0 0 0 0 0 0 0 0 0 0 0 0 0 0 0 0 0 0 0 0 0 0 0 0 0 0 0 0 0 0
0 0 0 0 1 1 1 0 0 0 0 0 0 0 0 0 0 0 0 0 0 0 0 0 0 0 0 0 0 0 0 0 0 0 0 0 0 0 0 0 0 0 0 0 0 0 0
2 0 0 0 0 0 0 0 0 0 0 0 0 0 0 0 0 0 0 0 0 0 0 0 0 0 0 0 0 0 0 0 0 0 0 0 0 0 0 0 0 0 0 0 0 0 0
0 0 0 0 0 0 0 0 0 0 0 0 0 0 0 0 0 0 0 0 0 0 0 0 0 0 0 0 0 0 0 0 0 0 0 0 0 0 0 0 0 0 0 0 0 0 0
0 0 0 0 0 0 0 0 0 0 0 0 0 0 0 0 0 0 0 0 0 0 0 0 0 0 0 0 0 0 0 0 0 0 0 0 0 0 0 0 0 0 0 0 0 0 0
0 0 0 0 0 0 0 0 0 0 0 0 0 0 0 0 0 0 0 0 0 0 0 0 0 0 0 0 0 0 0 0 0 0 0 0 0 0 0 0 0 0 0 0 0 0 0

GFSGBSN_con_mlcape_117.txt.gz
CAPE
20 17 17 16 15 12 58 93 105 113 195 201 111 71 51 35 48 25 49 63 51 23 0 0 0 43 0 0 0 0 23 0 0 0 0 0 0 0 0 0 0 0 0 0 0 0 0
13 20 28 12 14 29 28 31 113 138 181 161 29 8 15 17 32 5 19 32 33 18 4 0 48 9 20 3 0 1 0 0 0 0 0 0 0 0 0 0 0 0 0 0 0 0 0
18 20 21 8 23 16 13 37 39 90 90 28 0 1 14 15 13 24 10 35 39 38 6 19 54 0 15 0 2 0 0 0 0 0 0 0 0 0 0 0 0 0 0 0 0 0 0
14 17 8 4 16 24 11 9 19 14 75 31 17 31 15 6 20 15 13 0 0 1 0 1 42 3 0 4 0 0 0 0 0 0 0 0 0 0 0 0 0 0 0 0 0 0 0
21 22 14 7 12 23 7 6 10 5 0 1 23 53 27 44 0 11 38 111 77 35 47 42 1 0 3 6 0 0 0 0 0 0 0 0 0 0 0 0 0 0 0 0 0 0 0
24 17 21 12 16 8 8 21 12 6 9 3 5 45 40 45 87 40 100 1 10 0 0 0 1 0 2 4 0 0 0 0 0 0 0 0 0 0 0 0 0 0 0 0 0 0 0
22 24 17 15 5 7 9 6 0 7 16 2 2 11 12 5 0 0 0 0 0 0 0 0 0 4 6 0 4 11 0 0 0 0 0 0 0 0 0 0 0 0 0 0 0 0 0
8 19 6 20 11 14 8 8 3 2 0 0 0 12 6 16 6 0 0 0 1 0 1 5 4 7 10 5 3 2 0 0 0 0 0 0 0 0 0 0 0 0 0 0 0 0 0
3 13 18 8 12 11 8 0 0 0 1 0 0 0 2 1 0 0 0 1 3 0 0 2 9 5 6 3 1 2 0 0 0 0 0 0 0 0 0 0 0 0 0 0 0 0 0
8 6 17 14 8 9 8 4 0 0 0 0 0 0 0 0 0 0 0 0 0 0 0 0 2 1 6 0 0 0 0 0 0 0 0 0 0 0 0 0 0 0 0 0 0 1 0
2 7 6 7 15 10 8 4 1 0 0 0 0 0 0 0 0 0 0 0 0 0 0 0 1 4 0 0 0 0 0 0 0 0 0 0 0 0 0 0 0 0 0 0 0 2 2
2 6 2 3 8 14 16 13 1 0 0 0 0 0 0 0 0 0 0 0 0 0 0 0 0 0 0 0 0 0 0 0 0 0 0 0 0 0 0 0 0 0 0 0 0 1 0
0 3 10 4 0 3 12 12 9 0 0 0 0 0 0 0 0 0 0 0 0 0 0 0 0 0 0 0 0 0 0 0 0 0 0 0 0 0 0 0 0 0 0 0 0 0 0
0 1 7 7 8 2 2 10 5 1 0 0 0 0 0 0 0 0 0 0 0 0 0 0 0 0 0 0 0 0 0 0 0 0 0 0 0 0 0 0 0 0 0 0 0 0 0
0 0 1 8 7 10 2 5 0 4 0 0 0 0 0 0 0 0 0 0 2 1 0 0 0 0 0 0 0 0 0 0 0 0 0 0 0 0 0 0 0 1 1 1 0 0 0
2 0 0 3 2 8 3 0 1 0 0 0 0 0 0 0 0 0 0 0 0 0 0 0 0 0 0 0 0 0 0 0 0 0 0 0 0 0 0 0 0 1 1 0 0 0 0
1 1 0 2 2 1 4 0 0 0 0 0 0 0 0 0 0 0 0 0 0 0 0 0 0 0 0 0 0 0 0 0 3 2 1 0 0 0 0 0 0 0 0 0 0 0 0
0 1 0 0 1 0 0 0 0 0 0 0 0 0 0 0 0 0 0 0 0 0 0 0 0 0 0 0 0 1 0 0 0 0 0 0 0 0 0 0 0 0 0 0 0 0 0
0 0 0 0 0 0 0 0 0 0 0 0 0 0 0 0 0 0 0 0 0 0 0 0 0 0 0 0 0 0 0 0 0 0 0 0 0 0 0 0 0 0 0 0 0 0 0
0 0 0 0 0 1 0 0 0 0 0 0 0 0 0 0 0 0 0 0 0 0 0 0 0 0 0 0 0 0 0 0 0 0 0 0 0 0 0 0 0 0 0 0 0 0 0
0 0 0 0 0 1 0 0 0 0 0 0 0 0 0 0 0 0 0 0 0 0 0 0 0 0 0 0 0 0 0 0 0 0 0 0 0 0 0 0 0 0 0 0 0 0 0
0 0 0 0 0 1 2 0 0 0 0 0 0 0 0 0 0 0 0 0 0 0 0 0 0 0 0 0 0 0 0 0 0 0 0 0 0 0 0 0 0 0 0 0 0 0 0
0 0 0 0 0 0 0 0 0 0 0 0 0 0 0 0 0 0 0 0 0 0 0 0 0 0 0 0 0 0 0 0 0 0 0 0 0 0 0 0 0 0 0 0 0 0 0
0 0 0 0 0 0 1 1 0 0 0 0 0 0 0 0 0 0 0 0 0 0 0 0 0 0 0 0 0 0 0 0 0 0 0 0 0 0 0 0 0 0 0 0 0 0 0
0 0 0 0 0 0 2 1 0 0 0 0 0 0 0 0 0 0 0 0 0 0 0 0 0 0 0 0 0 0 0 0 0 0 0 0 0 0 0 0 0 0 0 0 0 0 0
0 0 0 0 0 0 0 0 0 0 0 0 0 0 0 0 0 0 0 0 0 0 0 0 0 0 0 0 0 0 0 0 0 0 0 0 0 0 0 0 0 0 0 0 0 0 0
0 0 0 0 0 0 0 0 0 0 0 0 0 0 0 0 0 0 0 0 0 0 0 0 0 0 0 0 0 0 0 0 0 0 0 0 0 0 0 0 0 0 0 0 0 0 0
1 0 0 0 0 0 0 0 0 0 0 0 0 0 0 0 0 0 0 0 0 0 0 0 0 0 0 0 0 0 0 0 0 0 0 0 0 0 0 0 0 0 0 0 0 0 0
2 1 0 0 0 0 0 0 0 0 0 0 0 0 0 0 0 0 0 0 0 0 0 0 0 0 0 0 0 0 0 0 0 0 0 0 0 0 0 0 0 0 0 0 0 0 0